GFSSE_850_thetae_000.txt.gz
Theta_e
344 343 343 343 342 343 343 340 339 338 337 334 333 332 335 335 334 331 332 335 334 334 333 332 333 334 335 336 338 340 340 336 338 335 330 328 331 330 326 326 336 340 331
344 343 341 341 341 342 343 341 340 338 338 336 334 334 335 332 331 335 335 332 333 334 334 334 336 335 335 337 337 339 341 340 340 334 330 341 334 332 325 331 341 335 327
349 345 341 343 345 346 346 345 343 339 338 335 335 335 333 331 332 333 332 332 333 334 335 336 336 336 336 337 339 339 339 341 342 337 340 341 342 336 329 336 325 335 337
347 347 346 343 343 345 345 344 342 340 340 337 334 335 333 332 330 333 332 330 332 334 335 336 336 336 337 337 339 340 339 339 341 342 345 341 343 331 332 334 330 337 330
349 349 344 342 343 345 345 342 341 341 339 338 336 334 333 333 331 333 331 331 333 334 334 335 336 336 336 336 337 339 339 341 342 346 345 344 346 337 326 333 331 335 339
350 352 343 345 346 345 345 342 340 339 338 337 335 334 334 331 332 333 331 333 331 331 333 335 336 335 334 334 335 337 338 339 343 350 346 342 344 331 328 337 326 329 334
350 351 347 345 345 345 344 339 336 335 335 335 334 333 331 332 333 332 333 330 330 332 335 337 336 335 334 332 337 339 337 339 346 346 345 348 345 329 339 335 326 323 335
351 352 349 345 345 345 343 337 337 336 335 334 332 332 333 333 334 335 333 331 333 335 339 339 336 339 333 330 338 339 339 341 350 347 348 343 337 332 334 333 336 337 333
351 353 352 350 346 343 344 338 338 338 336 336 335 333 332 334 336 334 331 336 337 338 338 339 340 341 340 335 337 338 339 340 348 344 349 343 339 331 331 333 328 326 333
352 352 354 351 349 350 344 342 340 338 336 337 337 336 337 337 336 333 336 341 336 340 343 340 340 340 340 340 339 340 340 346 348 347 351 347 344 338 331 331 332 323 338
351 352 352 353 351 349 349 341 337 336 337 338 339 338 340 348 349 348 344 341 340 342 343 339 338 338 339 343 338 336 341 346 347 347 348 343 343 342 337 329 330 331 327
352 352 351 353 354 354 351 350 350 348 347 347 347 347 347 349 350 346 346 341 342 340 341 340 339 340 346 345 345 343 343 340 346 347 347 340 341 342 343 339 330 329 334
351 351 354 351 354 353 352 351 351 349 349 348 349 347 348 349 349 351 349 349 347 343 349 348 347 346 345 343 344 344 344 343 342 346 347 341 339 340 342 343 340 330 326
350 351 351 352 351 352 352 350 350 349 349 348 348 341 348 347 350 350 350 350 346 349 348 348 347 344 342 339 344 343 342 340 340 341 344 343 341 339 342 342 343 341 330
350 350 351 352 352 354 350 350 350 349 348 348 348 348 348 348 347 347 346 344 344 349 348 347 347 346 345 345 344 338 338 338 335 338 340 338 339 339 339 341 341 343 342
350 350 351 351 351 350 350 350 350 350 349 348 347 347 338 347 348 350 349 348 348 349 348 346 345 345 346 344 341 340 337 336 337 334 338 340 339 340 340 339 339 341 343
350 350 351 353 353 353 351 352 351 351 349 349 348 350 341 344 346 344 349 348 348 347 339 345 347 347 343 342 340 338 339 339 338 338 337 337 340 343 340 338 339 340 341
351 351 352 351 352 353 353 352 351 350 350 350 349 351 347 346 346 346 348 348 347 344 348 348 346 344 341 340 338 338 339 338 338 338 338 338 336 337 341 341 340 340 340
352 353 353 352 352 352 352 352 351 352 352 351 352 348 350 345 345 347 348 349 345 342 344 346 344 342 339 337 337 336 339 338 338 336 338 340 340 338 335 340 340 341 341
353 354 354 353 353 352 353 350 351 351 351 350 351 350 350 345 348 346 348 346 343 344 346 345 341 339 338 337 335 335 339 338 338 337 336 335 337 340 341 340 341 343 342
353 355 356 354 354 354 352 351 352 350 351 350 350 349 346 349 347 344 348 347 345 345 344 342 338 338 335 337 335 335 337 338 337 336 334 330 331 333 337 341 342 343 343
354 356 357 357 355 352 354 353 350 351 350 352 352 352 352 351 348 347 347 347 345 341 342 339 338 336 336 336 337 335 334 339 338 336 332 327 325 328 331 334 337 332 340
354 356 357 357 356 354 350 354 354 352 351 352 352 352 351 350 349 346 343 342 342 335 334 338 338 336 335 340 338 336 334 334 333 335 336 329 327 326 327 329 331 326 326
353 355 357 357 356 356 352 353 353 353 350 347 348 348 351 350 348 345 342 342 332 333 338 337 336 335 332 335 335 336 335 334 334 333 332 330 328 326 326 325 327 328 320
353 354 356 354 350 354 356 354 356 354 349 348 348 351 350 347 346 344 341 333 324 329 338 334 336 335 335 334 333 334 336 333 333 331 329 329 329 329 327 325 325 325 325
352 353 354 353 347 350 356 356 355 355 352 349 351 348 345 345 347 345 343 334 324 334 336 333 327 333 330 334 334 335 332 331 331 330 329 329 329 328 328 327 327 324 324

GFSSE_850_thetae_003.txt.gz
Theta_e
348 346 345 345 343 342 340 337 336 334 329 329 333 336 336 336 333 333 335 334 334 333 334 335 335 336 338 338 339 341 339 339 336 328 335 334 329 326 327 331 342 340 332
349 345 344 342 342 342 339 339 338 335 335 334 336 336 331 333 335 334 331 334 334 335 336 336 336 337 337 339 339 340 342 341 335 338 343 343 334 327 330 339 343 332 334
349 345 342 342 343 342 340 340 339 338 336 335 337 333 332 332 333 330 330 332 332 334 335 336 337 338 336 339 340 339 338 340 340 341 343 344 338 332 332 325 333 336 334
347 347 347 346 346 346 344 342 339 338 336 335 335 333 331 330 332 331 329 330 333 333 334 336 337 337 337 336 340 340 341 340 342 342 345 344 345 330 334 330 335 331 338
349 349 344 346 346 345 344 342 340 339 335 335 336 333 332 331 332 331 331 333 331 332 334 336 336 335 335 335 335 338 339 342 343 344 347 344 347 332 334 330 338 334 341
351 352 343 344 346 344 343 341 340 339 338 337 336 334 334 331 333 331 332 330 329 332 336 337 335 335 333 334 337 338 336 338 345 347 347 340 345 335 334 332 338 332 332
352 350 346 346 346 345 340 339 338 338 337 336 335 335 332 332 333 333 333 330 332 335 339 339 335 338 331 332 339 337 337 343 348 350 350 349 344 333 334 330 326 327 337
352 350 348 346 345 344 340 338 336 335 335 335 335 333 332 333 335 336 331 333 334 338 339 339 340 340 336 333 337 337 339 341 350 349 349 347 339 330 332 329 338 328 333
352 352 352 349 345 343 338 337 336 336 336 334 332 332 333 334 337 333 332 335 338 339 340 340 341 340 340 336 338 339 339 345 351 348 347 348 338 332 330 324 327 332 336
351 352 351 351 352 350 340 338 339 338 337 336 334 332 333 337 336 332 335 341 336 338 343 340 338 338 338 339 337 335 344 347 348 346 349 346 343 337 332 330 324 325 333
353 352 352 352 353 354 353 342 339 338 337 338 338 338 338 348 350 346 349 339 340 342 341 338 337 337 345 345 344 341 345 345 346 347 349 344 343 342 338 333 335 325 334
352 352 351 352 352 353 349 346 348 347 347 347 348 345 348 350 350 347 348 343 341 339 341 342 340 344 346 346 345 344 345 344 345 344 347 344 339 342 343 340 332 336 330
349 350 353 351 351 352 351 350 349 350 350 348 349 351 349 350 351 350 351 350 349 346 352 349 347 348 346 346 345 345 344 343 343 343 347 345 340 339 341 343 342 333 329
351 350 351 355 351 352 350 350 351 349 348 348 349 351 349 349 350 348 351 350 348 349 346 350 347 346 348 347 346 345 342 340 339 340 342 343 342 341 340 343 343 341 330
350 351 351 352 352 354 351 349 349 349 347 349 349 350 350 349 349 348 348 349 349 348 348 347 347 347 347 346 345 342 341 338 337 336 339 340 337 339 340 340 341 343 340
350 350 350 353 354 351 351 354 352 349 350 347 349 348 349 349 351 351 349 349 348 346 347 346 348 346 345 344 341 342 340 339 339 339 337 340 338 338 340 339 340 340 343
350 351 351 352 354 353 354 353 350 350 348 349 347 350 350 350 351 348 349 348 348 346 346 346 346 344 342 339 339 338 339 339 338 339 338 337 339 340 340 340 339 340 340
350 351 351 351 352 353 353 353 353 350 351 349 349 349 351 352 350 352 350 349 347 348 347 348 345 344 340 338 337 338 338 338 339 339 338 337 336 337 342 342 340 339 340
351 352 352 353 353 355 354 355 353 351 350 352 352 352 353 351 353 352 349 347 349 346 347 348 344 342 337 337 337 336 338 339 338 338 337 339 340 340 337 340 339 338 340
350 352 354 353 353 355 354 351 353 353 353 353 352 354 353 353 352 352 350 349 348 347 347 346 343 339 338 339 336 334 339 340 338 336 335 333 337 339 342 342 344 345 341
350 353 355 355 354 354 355 354 353 352 352 351 349 353 355 351 352 348 348 349 348 346 347 341 340 337 338 338 335 337 339 338 338 336 332 331 332 332 337 340 343 344 343
352 353 355 356 355 354 355 353 354 352 350 349 350 351 353 351 351 351 350 348 348 347 345 343 340 337 337 338 337 336 338 341 339 336 334 330 328 329 333 336 339 331 342
353 354 355 356 356 354 355 354 354 353 351 353 351 353 353 352 353 350 349 343 350 343 334 341 339 337 336 339 336 338 336 339 336 337 337 332 329 328 329 331 334 331 326
352 355 356 356 355 357 355 356 353 352 349 346 346 348 351 355 352 352 349 348 347 335 338 338 337 334 334 336 336 337 332 335 337 337 335 334 331 329 328 327 327 329 328
352 354 357 357 357 357 356 354 354 352 348 349 347 349 351 355 351 349 348 348 344 333 336 334 338 330 340 336 335 334 337 334 332 332 331 332 330 331 329 327 327 326 326
352 354 356 358 357 356 358 353 352 353 350 348 347 352 350 348 350 347 345 348 343 334 339 339 338 338 335 337 336 335 334 332 333 331 330 330 330 330 330 329 329 328 326

GFSSE_850_thetae_009.txt.gz
Theta_e
343 343 343 343 342 341 339 332 330 330 333 335 336 333 333 333 333 332 333 335 335 336 336 336 336 339 339 340 339 337 335 334 338 338 332 327 326 337 340 337 336 330 328
343 343 343 343 340 337 337 329 328 331 334 335 333 332 334 331 333 333 333 334 335 336 336 336 335 338 339 338 338 340 339 340 342 343 339 332 329 341 342 338 333 329 329
344 342 342 341 338 335 332 328 330 333 334 332 333 333 330 330 331 331 332 332 334 336 336 335 334 334 337 339 339 338 340 343 344 344 341 337 330 333 341 336 331 332 327
343 342 342 339 337 335 331 328 331 334 333 332 332 331 329 329 330 331 330 331 334 336 336 334 333 333 335 336 337 341 341 344 344 344 344 341 332 327 330 335 334 336 328
342 342 342 339 338 336 333 331 332 334 333 332 329 330 331 330 330 329 329 330 334 337 337 335 335 331 334 335 335 338 341 343 345 343 344 344 332 329 333 331 338 332 332
344 342 342 340 339 339 337 334 333 334 334 332 331 331 331 330 331 329 332 332 336 339 338 339 333 329 335 335 337 338 341 344 343 343 343 342 333 328 335 334 337 330 335
347 346 345 343 340 340 339 336 334 334 335 335 333 332 331 331 332 329 332 335 338 338 339 340 339 332 336 337 337 338 344 345 347 344 344 344 332 330 334 330 333 330 333
347 346 345 345 344 342 339 338 335 334 335 336 334 333 331 332 334 329 335 338 338 340 340 338 338 337 336 335 343 345 344 345 344 345 345 345 331 329 328 325 332 331 332
345 346 346 343 342 341 339 339 338 337 336 335 334 331 331 335 333 333 337 337 338 340 339 336 337 344 340 343 345 346 346 345 343 333 336 343 335 329 325 334 327 334 327
349 345 345 342 340 339 338 337 337 336 335 334 333 330 332 339 341 346 345 343 340 340 336 340 344 346 346 344 344 346 345 344 344 342 343 342 342 332 327 325 330 336 331
349 345 345 343 339 338 336 335 334 333 333 331 331 331 339 342 347 350 348 346 341 339 339 339 346 347 346 345 345 346 344 342 343 340 347 344 340 341 333 329 327 334 334
351 350 345 343 339 336 335 335 335 335 334 332 332 338 348 344 346 347 346 343 343 342 345 345 346 345 344 343 343 344 342 342 342 343 345 343 342 339 341 333 330 327 334
350 352 351 347 346 343 338 338 337 336 337 338 337 345 347 347 347 339 338 338 346 346 345 345 345 345 345 341 341 343 339 340 338 340 340 340 340 339 339 340 333 329 327
349 351 350 347 348 352 350 347 342 346 347 347 347 344 347 349 347 345 339 343 347 345 345 345 344 345 342 341 339 339 337 335 338 337 336 337 338 336 338 340 337 329 332
350 352 350 347 345 351 349 345 346 349 346 348 347 349 346 345 347 344 343 345 346 347 342 343 344 343 340 341 341 339 336 339 339 336 337 337 338 336 338 339 341 339 331
352 351 350 349 347 349 349 347 347 350 350 350 350 350 348 346 344 347 347 347 345 344 346 343 343 342 341 340 342 338 337 338 336 338 336 338 338 338 338 338 339 340 339
352 350 352 349 349 345 349 349 349 349 347 346 348 348 349 349 347 343 344 345 345 346 345 342 342 344 342 338 337 336 337 337 337 334 337 337 339 337 339 338 339 339 339
348 352 350 350 350 348 347 350 348 348 345 344 346 347 350 349 348 345 344 345 347 347 347 344 341 343 340 338 335 337 336 337 335 337 336 335 337 336 336 338 338 338 338
349 349 350 351 352 351 348 346 347 349 347 347 345 348 350 349 348 345 346 346 349 346 348 344 343 345 340 330 335 337 336 336 337 335 336 335 339 339 338 341 340 338 338
349 349 350 351 350 352 351 345 347 346 346 345 347 348 349 348 348 342 348 345 347 348 343 343 341 337 333 337 337 334 335 337 338 334 334 338 336 338 339 342 338 342 336
349 350 349 350 350 353 352 352 349 347 349 350 347 347 347 349 347 348 346 346 345 347 343 345 339 330 337 336 336 336 336 338 335 332 331 331 331 331 334 336 339 340 343
350 349 350 350 349 354 354 352 351 348 350 348 348 345 347 346 348 344 346 343 345 345 345 342 335 325 337 337 336 333 338 339 336 334 334 329 329 331 331 331 329 330 337
348 350 350 350 351 352 354 354 354 350 349 349 348 349 353 350 349 344 347 345 344 346 345 339 335 328 338 337 336 336 340 340 339 337 335 331 330 328 326 324 328 327 326
348 348 349 349 350 351 352 353 353 348 346 350 352 350 351 348 349 347 344 345 346 346 343 337 333 322 335 337 337 336 331 337 339 339 337 333 331 330 329 327 326 325 326
348 348 349 349 350 351 351 351 351 349 347 351 353 353 348 348 351 347 347 345 343 345 336 324 325 319 334 337 337 337 335 331 330 334 337 334 332 331 330 330 330 328 326
348 349 349 349 350 351 352 352 350 351 348 350 351 347 350 350 349 344 349 347 341 339 328 327 327 319 326 336 335 335 335 334 333 335 334 332 332 331 331 331 331 331 329

GFSSE_850_thetae_012.txt.gz
Theta_e
344 343 342 342 341 341 339 332 332 331 332 334 332 332 332 331 332 334 334 335 336 335 334 335 338 339 338 338 334 334 338 335 333 331 327 325 334 337 335 333 330 334 327
343 342 342 343 342 335 335 330 332 334 335 333 332 332 332 332 333 333 333 335 336 335 333 333 337 338 338 339 338 339 339 340 341 337 330 331 339 339 337 331 329 328 331
343 343 343 341 339 332 331 330 332 334 333 331 333 330 332 331 331 331 333 335 336 335 333 332 333 335 338 339 339 340 342 343 343 342 332 329 337 341 333 334 331 329 340
343 342 341 338 337 331 328 331 332 333 332 332 329 329 329 330 330 330 332 334 335 335 334 333 332 335 335 338 340 340 343 341 342 342 340 332 327 338 336 332 334 327 334
342 342 340 336 334 331 329 333 333 332 332 331 330 329 330 330 329 330 331 335 337 336 337 334 331 335 335 335 339 340 341 343 342 342 343 337 330 332 332 338 333 334 335
341 341 337 336 334 329 330 334 333 332 331 329 329 330 330 331 329 333 333 337 338 339 339 335 330 336 336 337 338 340 343 343 342 343 344 336 329 333 330 337 337 335 334
341 341 338 338 334 332 331 334 334 332 331 330 331 330 330 332 329 334 336 337 339 340 339 338 334 337 337 340 341 342 344 343 333 339 343 339 332 334 334 337 330 334 331
342 341 339 339 338 336 333 332 333 333 333 332 332 330 332 333 330 336 336 337 341 339 337 338 337 336 343 346 344 344 344 342 338 342 342 340 331 328 328 330 330 333 335
345 344 342 340 339 339 336 334 333 333 335 334 333 330 333 334 337 337 341 339 340 339 335 343 341 342 343 343 344 343 343 342 335 335 342 338 330 328 329 326 328 327 334
345 346 345 344 342 339 339 337 334 334 336 334 333 330 336 342 347 346 343 340 339 337 341 344 345 345 346 344 344 343 341 343 342 344 342 340 338 328 322 330 327 326 329
345 346 343 343 341 340 339 337 336 336 334 333 331 331 340 346 345 344 345 342 339 338 337 343 345 343 342 342 343 341 341 341 342 343 344 342 340 336 330 326 330 331 331
346 345 344 340 340 338 337 336 334 333 332 330 330 338 347 343 345 343 337 342 342 340 344 345 345 343 341 340 342 343 340 340 342 340 341 340 340 339 340 330 324 333 332
345 345 344 340 337 337 335 334 333 332 331 330 336 347 346 346 345 340 337 339 344 344 342 344 342 342 340 341 340 338 336 339 338 338 338 338 337 338 339 336 329 328 333
346 344 343 340 337 335 335 336 336 335 334 335 338 340 344 347 345 345 343 344 343 344 343 342 342 342 341 339 337 338 335 337 337 335 336 336 336 334 334 339 336 332 328
349 347 346 343 343 338 338 344 338 340 346 346 346 347 345 347 344 344 343 344 345 344 342 342 342 341 341 340 341 338 336 337 335 336 336 335 337 335 334 339 336 331 330
347 349 348 345 342 347 348 344 344 346 346 348 348 349 348 344 344 344 344 345 345 344 346 343 344 343 342 339 340 337 336 336 336 338 336 336 338 337 336 338 339 340 332
348 346 349 347 346 344 345 345 347 348 350 350 349 350 350 346 347 345 344 346 345 343 342 344 342 341 341 338 335 337 336 335 335 335 335 338 338 337 337 337 339 339 340
348 349 350 349 347 345 344 346 348 352 349 349 347 347 347 348 349 347 343 342 344 347 344 346 344 341 343 338 330 337 335 337 336 336 335 334 336 339 336 337 337 339 339
349 350 350 350 348 347 347 347 347 351 347 345 345 346 345 348 349 346 345 343 344 345 346 346 344 341 341 328 332 337 335 335 334 333 335 335 337 336 337 340 338 337 337
350 350 350 351 349 349 346 347 346 348 349 344 344 345 345 349 348 348 346 346 344 346 346 342 342 339 327 334 336 337 335 337 336 333 336 334 336 337 337 338 339 339 337
349 349 350 350 350 351 350 349 346 345 348 347 347 348 347 348 349 347 347 346 345 346 343 343 343 330 333 336 335 334 333 338 334 332 333 334 333 332 333 336 335 340 339
350 349 349 349 350 350 349 351 347 345 346 342 345 348 347 347 347 347 344 344 344 343 344 342 342 326 335 334 335 334 335 338 336 331 332 329 329 327 326 331 331 332 335
349 349 349 349 349 350 349 351 351 350 344 346 346 347 346 346 345 348 345 345 341 344 343 343 341 327 336 336 335 335 339 339 337 334 332 331 328 329 327 325 326 325 324
348 348 349 349 349 349 349 350 352 351 347 346 347 348 346 350 350 350 346 345 343 338 340 344 336 328 332 336 335 335 334 338 338 335 331 333 332 330 330 329 328 327 324
348 348 348 349 349 349 349 349 350 351 349 344 345 346 349 348 350 349 348 346 343 337 341 339 327 321 329 336 336 335 334 332 336 338 336 333 332 331 330 330 330 331 328
347 347 347 348 349 349 349 349 349 348 348 346 346 350 351 351 349 349 348 343 342 338 342 332 325 326 322 336 336 335 334 330 331 331 333 335 333 331 331 331 331 330 330

GFSSE_850_thetae_015.txt.gz
Theta_e
343 342 342 341 342 343 341 331 329 331 333 333 333 332 331 331 334 334 335 335 334 334 337 338 339 337 337 333 333 336 334 332 331 327 325 326 330 333 332 337 337 327 333
342 342 342 342 342 341 334 332 333 334 332 332 331 331 332 333 332 333 335 335 334 333 334 338 338 338 339 337 338 336 339 340 336 330 333 339 337 334 333 328 327 326 328
342 342 342 342 340 335 335 336 335 334 331 331 331 331 331 331 332 333 335 335 334 333 333 333 336 338 338 338 339 341 342 341 340 332 330 338 340 333 337 329 329 339 331
342 342 342 341 337 331 334 335 334 331 332 329 330 329 330 329 329 333 335 336 335 335 332 332 334 335 338 339 339 341 340 340 341 339 331 328 339 336 333 333 329 339 333
342 342 341 337 334 330 333 334 332 331 329 328 328 330 330 329 331 333 336 338 338 336 329 332 335 335 336 339 340 340 342 339 335 336 333 329 330 335 334 334 328 335 333
342 339 339 337 329 329 332 332 331 331 330 330 329 330 329 329 333 334 337 338 339 338 335 333 336 337 338 339 340 343 344 336 333 328 333 329 328 333 336 331 334 334 336
341 338 335 335 329 329 331 332 331 330 328 329 330 330 331 329 334 336 338 340 338 338 335 336 337 338 342 342 342 343 342 336 335 336 329 331 331 331 336 334 333 330 329
340 337 336 333 329 328 332 332 331 330 329 330 330 331 333 331 336 336 337 339 337 336 338 336 337 342 343 343 342 342 336 334 337 341 342 329 331 338 335 331 329 333 323
340 337 337 335 332 329 330 332 332 331 330 331 331 332 334 333 336 342 339 339 336 337 341 342 342 343 342 344 341 341 339 340 337 341 342 330 330 331 328 331 328 333 330
341 339 338 338 336 333 331 331 332 332 333 333 332 332 335 343 344 342 340 339 336 337 344 344 345 345 342 342 343 340 341 340 340 343 340 336 334 328 329 327 330 328 334
344 342 340 339 339 337 335 333 332 332 334 333 332 332 341 344 344 344 343 339 337 341 343 344 343 342 340 341 342 340 339 340 341 342 342 340 339 330 325 330 328 327 330
345 345 344 342 340 339 338 336 334 335 334 333 330 333 342 343 345 342 339 341 343 340 344 344 343 340 341 342 339 337 337 339 340 340 339 338 339 339 335 329 331 332 331
344 345 343 343 342 339 338 336 335 335 333 331 330 341 344 345 341 340 337 342 344 343 343 342 342 341 340 338 336 337 335 334 338 339 337 337 335 338 340 333 324 333 332
345 344 344 341 339 338 336 335 332 331 330 330 332 343 342 345 344 343 344 343 344 343 342 342 340 341 340 338 338 336 335 336 335 335 332 336 333 334 336 340 331 330 332
343 343 343 339 338 336 335 333 333 333 332 331 337 341 343 344 345 344 344 343 344 344 341 341 341 341 341 341 340 335 336 336 335 335 335 333 335 336 335 339 340 336 331
343 343 342 339 336 335 334 337 335 335 338 341 344 347 346 344 345 346 344 344 344 342 344 342 342 342 342 340 339 334 334 334 335 335 336 335 337 337 335 339 341 331 333
345 345 341 339 337 338 336 342 339 341 345 347 346 347 348 347 345 346 346 343 344 343 341 343 343 343 341 338 332 335 335 333 336 335 334 337 338 335 337 337 339 340 341
344 348 345 343 342 341 343 344 340 346 347 349 348 349 349 349 347 348 347 342 344 344 345 344 346 342 342 339 334 335 335 336 334 334 335 335 335 336 336 336 338 339 339
346 344 347 346 346 346 346 345 343 346 348 348 348 348 347 348 348 348 347 345 343 344 345 345 343 342 342 336 329 335 335 335 333 333 335 334 334 333 336 339 337 335 336
346 346 344 348 347 347 345 343 345 346 348 348 347 346 346 346 348 349 347 344 344 342 344 343 341 341 333 333 336 336 336 337 335 332 332 334 333 336 336 336 335 337 338
346 346 347 348 349 348 346 347 347 346 350 349 346 345 346 345 347 347 347 345 345 343 344 341 341 338 328 335 335 335 335 337 333 331 335 334 333 331 333 335 336 337 339
345 348 348 349 349 349 347 346 345 345 346 348 347 345 344 348 347 347 347 346 344 343 343 342 341 340 330 335 333 334 335 336 334 331 332 329 327 326 325 327 328 330 335
346 347 348 349 349 350 348 349 348 348 346 346 348 347 346 347 347 347 346 346 343 343 341 343 343 341 327 334 335 334 336 337 335 331 331 330 328 328 327 327 325 324 324
347 347 348 348 349 350 349 350 348 348 347 344 345 345 345 347 346 346 346 346 344 343 340 343 342 339 328 336 335 335 335 338 338 335 331 330 331 329 329 330 330 327 325
348 347 348 349 349 349 349 349 348 348 349 347 342 343 345 347 345 346 350 349 346 344 341 340 342 333 325 332 335 333 332 336 338 337 334 331 332 330 330 330 329 330 329
348 348 347 347 348 348 349 349 349 349 347 348 345 345 346 347 346 348 350 349 348 346 340 339 334 326 322 328 334 334 333 331 332 337 337 336 335 332 331 331 330 330 330

GFSSE_850_thetae_018.txt.gz
Theta_e
344 343 345 343 344 343 342 337 340 340 339 336 334 332 332 333 334 335 335 334 334 337 337 338 335 334 334 332 334 333 332 331 329 325 324 327 333 330 336 331 330 334 335
341 343 343 343 343 341 331 335 338 336 334 333 331 331 333 333 334 335 334 333 332 336 337 338 339 338 336 336 335 337 337 333 329 330 334 336 334 333 328 329 326 332 339
342 342 342 343 342 333 329 333 334 333 332 331 331 332 332 332 334 335 334 333 332 333 335 338 338 337 338 338 339 338 340 338 331 330 338 336 330 334 329 328 330 326 333
342 342 342 343 337 334 333 334 333 332 331 331 330 330 329 330 333 335 336 335 335 332 338 337 336 338 338 339 339 338 339 340 334 330 329 338 335 335 331 329 339 332 339
342 342 342 341 333 334 335 334 331 332 330 329 329 329 330 331 334 337 338 338 333 331 333 336 337 337 339 339 339 341 341 339 339 335 329 331 333 333 333 327 334 334 330
342 342 340 338 331 334 334 332 332 329 328 328 330 328 331 333 336 337 339 338 338 334 335 336 337 338 338 339 342 343 341 336 338 334 330 329 334 335 331 330 334 334 337
342 341 337 334 330 332 333 331 330 329 329 329 329 329 330 335 337 339 340 338 338 336 337 337 340 342 342 341 342 339 337 335 334 335 330 330 332 335 332 333 333 336 332
340 339 336 332 329 331 331 331 330 328 329 329 330 331 332 335 336 338 339 337 337 337 336 340 342 342 342 342 341 340 335 335 340 341 334 329 335 337 338 330 334 326 332
338 337 336 331 328 330 331 331 330 328 330 330 330 333 331 337 340 339 339 336 338 340 340 342 342 342 342 341 339 340 340 338 338 341 342 329 335 336 336 330 334 330 326
338 336 334 333 329 329 331 331 330 330 330 331 330 334 336 342 340 341 339 336 339 341 342 342 343 341 340 341 340 338 338 341 341 342 340 332 334 328 331 333 335 338 328
337 336 335 332 329 328 329 330 331 331 332 332 330 336 339 342 341 342 340 336 339 344 345 343 342 339 340 340 341 338 336 340 339 340 340 340 336 330 326 333 337 334 334
339 338 338 336 333 331 329 329 330 331 332 334 331 333 340 344 344 340 340 340 337 340 343 343 340 340 341 339 335 337 334 334 340 338 337 336 339 340 332 327 335 334 338
342 340 339 339 338 337 335 332 332 332 334 333 331 333 343 343 343 340 338 342 340 343 342 341 340 340 339 337 335 336 333 331 338 338 336 336 334 338 340 338 330 336 332
344 345 343 342 340 339 338 336 335 335 334 332 330 337 343 344 343 341 340 342 343 342 343 341 340 340 340 337 339 336 330 332 334 333 331 334 333 334 335 340 333 334 336
344 345 344 343 342 341 338 337 335 334 331 330 330 338 342 344 345 343 342 343 343 341 341 341 339 340 342 340 342 335 332 335 335 334 331 335 335 336 334 338 338 334 332
344 344 344 342 341 339 337 335 332 331 330 330 334 342 343 344 344 345 343 343 344 342 342 341 340 340 340 341 340 334 332 333 333 332 334 336 335 337 335 338 339 337 334
343 342 343 342 339 338 336 333 333 334 334 334 338 345 346 345 344 346 345 344 344 343 342 342 343 343 339 338 334 333 333 334 333 333 332 336 337 336 336 337 339 336 338
342 341 342 341 338 336 335 334 338 336 338 343 344 345 347 346 347 346 347 345 344 343 344 344 344 344 341 339 334 333 334 336 333 332 334 333 335 335 337 336 337 339 339
343 342 340 340 338 336 335 336 339 340 342 345 347 348 348 348 348 346 347 346 344 343 345 346 345 343 341 339 331 331 334 334 333 332 334 333 333 332 334 336 336 335 336
346 342 345 340 339 339 339 338 343 340 345 347 348 347 347 346 346 343 346 347 346 344 344 345 342 341 338 328 335 335 336 335 335 332 331 333 330 333 334 335 335 337 338
344 343 343 344 343 345 344 344 347 343 345 346 347 346 346 345 346 346 348 347 346 345 344 344 341 341 332 332 336 336 335 336 333 331 334 334 332 329 332 332 335 333 337
345 343 345 342 345 345 346 346 345 343 344 345 346 347 346 344 345 345 346 347 347 345 344 343 341 342 332 335 334 334 334 335 333 332 331 329 327 324 324 325 326 329 334
347 344 343 344 345 346 347 347 346 344 345 345 345 348 347 345 344 346 347 347 347 343 342 342 343 343 338 334 333 334 334 335 335 333 332 330 329 328 328 327 325 323 323
347 343 343 345 346 347 347 348 348 346 344 345 345 346 347 347 345 345 346 347 346 344 343 339 342 344 341 329 333 334 334 336 336 335 332 330 331 329 329 329 329 326 325
349 346 344 345 347 347 348 348 348 348 346 345 345 343 345 346 346 346 345 346 347 347 343 340 340 341 339 327 334 334 333 334 338 337 335 331 331 331 330 330 329 330 329
350 349 346 345 346 347 348 348 348 348 348 347 346 347 343 345 344 345 345 346 349 349 346 341 340 341 330 322 330 335 334 333 331 337 337 336 332 332 331 331 330 330 330

GFSSE_850_thetae_021.txt.gz
Theta_e
346 346 346 345 344 339 341 343 344 342 339 336 333 332 333 334 334 334 334 335 344 342 343 336 335 334 331 332 332 331 331 329 327 324 326 330 330 330 327 327 337 343 337
346 345 345 343 343 342 343 342 341 340 337 333 331 332 333 334 335 334 333 334 339 342 343 338 337 335 335 334 335 337 335 330 330 327 333 335 335 330 337 328 336 339 338
344 343 344 344 341 341 336 339 339 336 333 331 331 333 333 334 335 334 337 340 339 337 338 338 338 338 338 338 337 338 339 333 333 338 336 340 341 329 327 326 329 339 339
344 342 343 342 338 332 336 335 334 333 331 331 332 331 332 334 335 336 335 334 336 339 337 336 338 338 338 339 339 339 341 338 331 335 341 342 343 330 329 338 330 335 333
342 342 343 338 331 331 334 333 332 331 331 331 330 329 331 335 337 338 337 334 343 340 340 337 336 339 339 339 340 342 339 339 332 330 337 340 343 337 334 339 332 334 333
342 342 342 334 331 333 334 332 332 330 330 330 329 332 333 337 338 340 340 342 341 340 336 337 338 338 339 341 342 342 339 337 336 329 330 337 342 335 328 339 332 335 336
343 342 339 334 334 335 333 331 330 328 329 329 328 331 334 337 339 340 341 338 337 337 337 340 342 341 341 341 337 336 337 338 338 331 329 340 341 336 335 338 336 334 333
343 345 339 333 335 334 332 331 328 329 329 330 330 333 336 337 339 340 338 338 337 336 340 342 342 341 340 340 339 336 335 339 340 340 329 334 337 338 336 338 336 334 335
343 344 343 332 333 333 331 330 329 329 329 330 332 332 336 339 339 339 337 337 338 339 342 341 341 340 341 339 339 340 340 339 340 342 334 332 337 337 335 330 331 324 334
344 342 342 336 331 331 331 330 328 329 330 330 333 332 337 339 341 339 337 337 341 341 341 342 340 339 340 340 338 337 340 341 341 340 338 331 333 335 335 332 338 330 323
343 339 341 337 329 330 331 331 330 329 330 331 332 334 340 340 341 340 338 337 340 343 343 342 339 340 339 335 337 335 335 339 339 337 339 338 334 329 332 336 332 337 331
342 339 341 336 328 329 330 331 330 331 332 332 330 337 343 343 343 341 339 337 340 341 342 341 340 339 339 340 336 335 336 331 340 338 337 336 339 339 330 332 337 335 334
339 337 336 332 330 328 329 330 330 330 332 334 332 333 342 344 343 339 340 342 339 342 342 341 340 339 338 336 336 337 333 338 338 335 335 336 334 338 340 336 332 337 336
338 337 337 335 332 331 329 329 329 330 331 334 332 331 343 343 342 340 339 343 340 342 343 340 339 340 341 337 340 335 332 335 338 337 332 333 333 334 335 340 332 336 333
339 338 338 338 338 337 336 334 333 332 334 334 331 333 342 345 345 342 342 342 342 341 341 340 340 339 342 341 342 335 332 333 334 337 338 334 334 336 335 337 337 332 335
343 343 342 342 341 339 338 337 336 335 334 332 330 333 342 344 344 343 343 343 343 342 341 342 340 340 339 339 340 334 333 334 334 333 337 339 335 336 335 337 339 336 333
344 344 344 343 343 342 340 338 336 334 331 330 330 339 343 343 343 345 344 344 344 344 342 342 343 344 338 338 336 333 332 334 332 333 335 336 340 336 335 337 339 337 336
343 343 344 344 342 340 339 337 335 332 332 332 331 343 346 345 344 344 346 346 344 344 343 343 342 342 342 340 334 334 334 335 332 332 333 333 334 340 339 336 338 339 338
344 342 342 343 343 339 338 336 333 334 335 335 338 342 344 346 347 347 346 347 345 344 343 344 344 343 341 339 333 331 332 333 333 334 333 333 334 335 339 333 335 335 336
344 342 340 341 341 339 336 335 334 337 337 337 344 346 347 347 347 347 343 344 346 345 344 345 344 341 339 328 335 334 335 335 334 331 335 336 332 333 337 335 336 339 338
345 342 341 340 339 339 336 335 335 337 338 341 344 346 347 344 346 346 346 347 346 346 345 344 344 341 339 329 336 336 334 336 332 332 333 335 327 329 333 333 335 334 338
345 344 343 342 339 337 337 337 338 338 342 340 345 344 347 346 345 345 345 348 347 348 345 345 344 341 341 331 337 336 337 337 334 332 330 328 326 326 324 324 326 330 334
346 345 344 341 341 339 343 342 343 344 345 341 343 344 346 346 345 344 344 347 348 348 346 344 344 343 343 332 333 335 336 335 337 333 332 329 328 328 328 327 322 323 323
346 345 344 342 342 342 343 344 346 346 344 342 342 344 344 346 346 345 345 346 347 348 347 345 342 342 343 337 333 333 333 335 337 337 334 332 330 329 329 329 329 326 326
347 346 345 343 343 343 344 345 346 347 346 345 343 343 344 344 346 347 345 346 346 346 347 345 343 340 342 340 331 333 333 334 336 338 337 334 331 331 330 329 329 330 328
348 347 347 344 343 343 344 345 346 347 348 347 346 343 345 344 345 346 347 346 346 346 348 349 344 340 340 335 327 332 335 336 336 336 338 337 335 333 332 330 330 330 330

GFSSE_850_thetae_024.txt.gz
Theta_e
339 340 339 337 336 335 336 340 340 335 333 335 334 332 333 334 334 334 342 344 343 343 338 342 337 333 332 332 332 332 329 328 325 325 330 331 329 327 329 336 344 345 339
348 343 340 338 338 337 339 343 337 336 337 334 332 333 334 334 334 334 336 342 343 342 338 336 335 335 335 335 337 338 331 330 326 333 337 336 334 337 328 338 345 340 339
345 346 344 338 339 343 343 341 337 338 335 332 333 333 335 336 337 343 343 338 338 338 338 338 338 337 338 339 339 340 338 331 338 336 339 344 340 328 326 334 340 339 339
346 346 346 342 341 341 341 338 338 335 332 331 332 333 335 340 342 335 334 337 340 336 336 338 338 338 339 340 340 340 340 333 331 339 343 342 341 329 333 327 336 338 338
348 348 346 341 340 340 339 337 335 332 331 332 330 332 338 338 337 339 342 343 341 342 336 337 338 339 339 339 341 340 339 337 331 342 344 344 342 337 338 336 339 336 339
348 348 340 338 338 337 335 334 332 331 331 330 331 332 336 338 340 341 342 340 339 336 337 338 339 339 342 342 342 341 336 336 341 341 345 341 345 330 338 340 334 332 328
347 348 341 335 333 334 333 332 331 331 330 329 333 334 337 339 341 341 341 339 337 337 342 342 341 341 339 338 336 336 337 337 344 342 342 345 342 333 339 338 335 337 336
347 347 344 333 333 334 336 332 330 329 330 329 333 335 338 340 339 340 340 339 336 341 342 342 342 340 340 340 339 336 338 341 347 343 343 345 338 337 338 336 334 336 337
347 345 345 344 336 337 338 329 329 329 330 331 333 336 337 338 339 337 337 337 338 342 342 340 341 341 339 338 339 340 341 341 347 344 341 343 338 338 332 334 326 335 334
348 345 344 345 345 347 341 329 329 330 330 332 332 334 338 341 340 339 338 340 341 341 342 339 339 340 339 337 336 337 340 341 345 348 342 341 335 336 332 335 331 326 326
348 345 343 344 345 346 346 333 329 330 330 331 335 337 343 350 351 350 341 339 341 344 342 340 339 339 339 337 334 336 341 342 343 344 345 335 331 335 333 335 333 334 324
347 346 344 343 344 345 344 343 342 343 344 345 345 345 350 348 350 349 344 339 341 341 342 340 340 342 342 339 339 338 336 341 342 342 341 336 338 336 332 335 336 335 332
347 346 345 345 345 345 344 345 345 345 345 347 342 341 350 351 349 350 349 350 346 344 348 346 347 345 340 343 339 338 337 338 338 338 340 335 335 339 340 334 334 335 336
346 346 346 347 346 345 345 345 345 344 345 346 346 332 345 349 350 349 348 348 343 347 348 346 344 345 344 340 340 338 337 335 337 336 340 333 333 334 336 339 334 337 332
346 346 346 347 347 346 346 344 343 345 344 345 347 340 348 350 350 350 347 348 347 347 348 344 344 343 342 346 345 339 335 336 336 336 339 332 334 335 333 338 337 332 334
346 346 347 347 347 346 346 346 346 346 346 347 345 344 341 350 348 351 350 349 349 349 351 343 342 347 338 343 343 338 336 336 336 337 337 336 335 334 334 337 339 334 333
347 347 347 348 348 347 347 345 345 346 346 346 344 336 341 343 344 346 351 350 348 348 344 346 345 348 343 340 335 337 337 336 335 336 338 340 341 335 335 337 339 338 337
348 350 350 349 349 348 348 347 347 346 346 344 342 343 342 343 343 346 349 347 350 343 347 348 347 346 343 341 338 338 336 336 336 335 336 339 340 342 337 336 338 339 336
351 352 352 351 351 351 349 349 346 347 345 344 343 343 346 345 345 346 347 349 347 351 346 347 346 346 342 339 336 337 337 336 335 337 338 337 338 340 341 333 336 335 336
351 352 353 352 352 350 350 348 348 346 345 345 345 345 347 345 346 347 352 345 346 352 349 346 345 344 341 334 334 337 337 337 335 336 337 336 338 339 341 342 340 339 337
351 352 352 351 351 349 349 349 347 345 345 345 345 347 344 345 347 345 352 348 348 349 348 343 346 344 341 337 338 337 338 338 336 336 335 334 334 335 337 338 341 342 339
350 352 353 351 349 342 347 346 347 345 345 346 346 348 344 347 344 345 345 345 348 350 344 344 341 345 342 336 338 338 338 337 336 336 336 335 334 332 333 336 339 340 340
350 352 352 350 348 340 350 349 347 346 346 347 348 349 348 344 346 346 343 344 350 348 350 345 344 345 343 338 336 339 337 337 337 337 337 335 336 333 334 335 335 336 335
349 351 353 352 349 347 341 348 345 347 348 349 350 349 350 344 345 347 344 343 345 351 351 347 348 346 344 340 338 338 335 339 338 338 337 337 335 335 335 334 334 335 334
349 351 353 353 350 350 344 345 347 347 350 350 350 349 350 352 344 352 347 345 345 346 350 347 346 342 347 342 336 339 339 338 338 338 339 337 337 335 335 334 334 334 335
349 351 353 353 345 344 342 340 347 350 350 351 351 351 351 352 352 350 351 345 344 349 349 349 348 344 342 339 336 338 338 337 337 337 336 338 336 335 335 334 334 333 334

GFSSE_850_thetae_027.txt.gz
Theta_e
338 336 335 335 336 338 340 339 332 330 333 333 333 333 334 335 336 341 342 342 342 338 341 339 334 332 333 333 336 330 329 327 325 333 330 328 328 333 336 342 346 345 341
336 335 336 335 336 337 340 336 332 333 334 333 333 334 335 335 333 336 341 342 342 338 336 336 335 336 335 337 338 338 332 332 328 335 336 333 334 329 338 346 347 338 338
335 338 335 336 336 339 341 335 334 335 334 332 334 335 341 342 342 342 339 338 337 338 338 340 338 338 339 339 340 340 332 337 333 342 344 342 336 329 338 343 339 338 340
338 344 345 337 337 342 341 335 335 334 332 333 333 340 342 344 336 335 338 341 338 336 337 338 338 338 340 341 340 339 335 330 339 341 346 345 340 327 329 339 339 339 338
342 348 345 340 342 341 336 335 335 332 332 333 333 339 339 338 340 342 341 339 340 337 337 338 339 339 340 341 341 337 334 332 342 342 344 341 343 336 333 337 335 334 344
349 347 340 341 340 338 335 334 332 331 332 330 332 341 339 340 341 341 340 337 336 339 339 340 341 341 338 338 341 337 336 342 342 344 344 344 343 336 338 341 339 334 328
349 348 343 342 341 336 334 332 331 332 330 332 333 337 339 341 340 340 339 337 340 342 341 341 340 339 339 336 336 337 337 342 343 343 346 346 330 338 335 335 337 333 340
349 344 346 341 339 333 332 331 332 330 329 332 335 337 340 340 340 339 337 336 342 342 342 341 339 339 339 339 337 339 341 346 343 343 344 345 333 337 335 333 335 336 337
347 344 345 344 338 333 332 331 330 330 329 333 336 337 338 339 337 337 336 337 341 341 340 341 341 340 337 337 340 339 337 342 348 338 345 339 337 335 336 329 335 335 336
346 344 344 346 346 346 334 329 329 330 331 332 336 338 340 339 339 338 341 341 341 342 339 339 338 333 332 330 334 335 343 343 347 345 346 343 335 334 331 333 330 330 332
346 343 343 344 346 348 346 336 330 330 331 333 333 339 347 351 348 348 338 340 341 341 340 338 337 339 340 337 338 338 342 347 344 345 345 331 331 335 331 336 335 326 324
347 343 343 343 345 346 344 339 345 344 344 347 348 341 350 350 350 349 339 339 340 341 340 339 340 344 346 343 341 340 341 339 343 343 338 337 335 330 333 336 332 334 326
347 343 343 345 345 345 344 344 344 344 346 347 347 349 350 350 350 348 348 348 345 344 346 346 346 345 341 342 338 339 338 341 338 343 339 334 338 339 336 332 335 334 332
346 345 343 345 346 345 346 344 343 344 345 345 346 341 350 351 349 349 350 349 346 348 349 349 346 345 345 342 341 337 337 338 338 342 339 334 331 335 338 336 330 335 334
346 345 344 346 346 346 347 345 344 344 343 344 347 346 349 350 349 350 350 350 349 348 349 346 345 342 340 347 340 337 338 336 338 341 341 333 331 332 333 339 336 334 332
346 345 345 347 348 348 347 347 345 344 345 345 345 346 342 350 351 351 350 350 347 347 349 347 345 348 342 344 340 337 338 338 335 338 342 335 330 331 333 337 338 333 332
346 347 347 348 349 349 349 349 347 346 345 345 345 346 348 347 347 350 351 347 349 350 344 348 348 347 342 339 337 337 340 337 337 337 341 343 340 332 332 338 339 337 335
347 348 348 347 349 349 349 349 348 347 346 346 345 345 345 350 351 347 351 351 351 348 348 347 346 342 342 341 338 339 336 337 336 336 337 341 344 343 336 334 339 338 335
348 349 349 349 350 351 351 350 350 348 348 346 344 343 345 349 351 350 351 350 347 350 347 346 346 345 341 338 337 336 337 336 338 338 336 339 339 342 341 333 334 337 338
349 351 352 351 351 351 352 351 350 348 348 346 345 344 347 348 348 350 351 351 348 351 349 350 346 344 340 336 335 338 338 336 337 338 338 338 337 339 340 342 337 339 335
350 353 354 353 353 353 353 351 350 348 348 346 346 345 348 351 352 353 354 353 349 351 347 347 348 342 340 339 338 338 338 337 337 337 336 334 335 338 338 340 342 342 339
350 352 354 354 354 353 353 351 350 349 347 346 346 347 350 353 354 352 346 353 353 351 348 349 347 344 340 338 343 339 337 337 336 336 336 335 334 334 334 339 340 341 342
350 352 354 353 353 353 353 352 351 349 347 348 348 348 351 353 353 354 353 349 353 351 349 350 344 347 345 337 340 342 338 338 337 337 337 337 336 334 335 336 337 338 338
349 352 353 353 352 353 352 352 350 349 347 347 348 348 350 353 353 353 352 352 351 351 350 347 349 348 345 341 337 340 343 344 341 339 338 337 337 336 336 336 336 336 335
348 350 353 354 353 353 352 352 352 349 347 348 349 350 349 352 353 353 354 353 352 347 351 347 351 341 348 347 339 339 338 337 339 341 340 338 338 336 337 335 336 336 335
347 349 352 355 353 352 350 343 351 350 347 350 350 351 352 351 355 353 353 353 352 352 353 352 350 350 345 345 341 340 341 340 340 340 339 340 339 337 336 335 335 334 336

GFSSE_850_thetae_030.txt.gz
Theta_e
341 338 338 338 337 338 335 333 331 332 333 333 334 335 335 337 341 342 342 341 338 342 339 334 333 332 333 337 336 330 327 325 326 327 327 327 334 335 341 346 348 339 340
337 336 336 336 340 340 335 333 333 333 332 333 335 343 334 334 336 341 341 340 343 337 336 335 336 336 336 338 339 330 337 333 333 338 335 331 327 336 345 347 347 337 339
335 336 335 338 338 340 340 335 334 332 332 334 337 342 341 342 340 337 337 336 337 338 338 338 338 339 338 339 339 330 334 336 342 341 344 343 328 335 344 343 338 338 341
335 338 336 337 339 341 342 337 334 331 333 334 341 341 341 334 334 338 340 338 336 337 338 338 338 339 340 341 337 331 332 341 341 342 345 341 332 329 339 339 339 338 338
338 345 337 336 340 342 343 335 332 331 332 334 339 339 337 340 339 340 337 337 337 337 338 339 340 341 341 342 335 331 337 344 344 343 343 343 339 326 332 334 335 342 339
346 347 337 338 342 344 336 333 331 332 331 336 339 338 338 338 339 338 335 338 340 340 341 341 337 336 335 337 336 336 342 342 343 343 344 342 333 335 340 341 337 337 327
348 348 339 341 341 341 334 331 331 330 331 333 338 339 339 339 339 338 337 341 340 340 339 338 338 337 337 336 337 337 339 343 343 344 346 339 335 333 334 336 330 336 329
350 348 338 339 342 336 333 331 330 329 333 334 337 340 340 340 337 336 339 341 341 340 340 338 338 336 336 337 338 339 342 340 343 345 343 333 336 334 334 335 336 337 333
347 347 339 341 338 334 331 331 330 329 332 335 338 339 338 336 337 335 339 340 340 339 339 338 333 330 335 335 334 338 342 343 341 339 344 335 333 333 332 336 338 336 336
343 348 347 342 334 333 331 330 329 329 332 335 337 339 339 340 340 339 340 339 340 339 338 337 333 333 333 337 338 343 345 346 341 346 344 341 334 329 329 328 331 330 333
345 345 346 347 345 344 334 329 329 330 331 332 337 339 346 348 342 342 344 339 340 340 338 338 339 341 338 339 339 340 343 345 342 343 340 327 331 330 335 333 326 324 333
345 343 344 346 347 345 344 329 330 330 337 341 348 337 346 349 345 346 338 339 340 341 339 340 344 344 344 340 339 341 341 345 344 343 337 336 329 330 333 330 334 327 323
344 343 344 344 346 343 344 332 341 343 346 348 349 345 346 349 347 347 348 346 345 344 343 344 346 348 344 340 342 340 340 344 343 342 338 334 336 334 332 333 331 331 327
344 343 344 344 346 344 345 341 344 345 346 347 346 344 351 347 350 349 349 350 347 349 346 347 347 345 345 341 339 338 336 341 343 343 339 336 330 337 339 329 334 334 333
345 344 345 345 340 344 347 343 343 344 344 345 347 342 350 347 351 349 351 348 348 344 335 348 346 339 345 338 336 336 339 336 341 342 339 329 329 330 334 335 329 334 332
348 344 344 346 343 345 347 345 345 343 343 346 346 345 349 352 350 348 350 349 348 347 347 348 343 336 345 342 341 339 337 337 335 340 341 339 329 329 330 337 335 331 332
344 345 344 345 345 344 345 347 345 345 346 343 347 346 344 350 351 347 349 350 349 350 345 345 342 343 342 339 335 339 337 337 336 339 342 342 338 334 333 338 339 334 332
346 344 347 348 349 344 345 348 346 347 345 347 345 346 344 342 352 345 351 350 345 349 345 344 343 345 342 342 336 339 338 336 334 337 340 343 343 342 335 336 339 338 337
346 346 347 346 348 347 348 347 346 347 347 346 346 345 344 339 341 352 349 348 347 348 348 346 343 346 340 339 340 336 338 336 338 337 337 340 340 340 339 337 334 337 338
348 347 347 347 349 348 345 348 349 349 347 347 346 344 344 344 342 342 350 352 348 349 350 346 346 342 338 336 338 338 337 335 337 338 338 339 336 338 340 339 339 340 335
349 348 348 349 349 350 350 349 352 347 349 347 346 345 344 344 344 345 350 351 348 346 349 341 341 343 338 338 335 336 334 336 336 337 335 334 337 337 342 339 339 341 338
349 350 349 349 349 351 350 350 348 350 349 348 346 346 345 346 349 346 346 348 353 348 348 340 348 345 340 339 341 339 339 337 336 336 335 335 334 334 335 338 339 338 340
350 350 351 351 351 352 352 351 351 350 349 348 347 346 347 347 347 349 351 347 353 349 349 341 342 344 342 336 342 343 338 338 337 336 335 336 334 334 334 335 338 339 338
350 351 352 353 351 351 351 352 352 350 349 349 347 348 348 348 349 351 352 348 348 350 350 348 342 344 346 343 332 340 342 344 339 339 338 338 335 336 336 336 336 332 334
349 353 354 353 352 352 351 355 352 351 350 347 348 348 348 349 349 348 355 351 345 346 352 350 346 345 342 347 340 337 337 338 340 342 339 339 338 337 337 337 337 337 336
350 352 355 353 353 351 352 351 355 351 349 348 347 348 349 350 352 351 353 352 349 345 352 352 347 341 346 344 344 341 341 339 340 338 340 340 339 338 336 336 336 334 337

GFSSE_850_thetae_033.txt.gz
Theta_e
340 339 338 336 336 334 333 331 333 333 335 334 334 335 337 339 339 340 342 339 339 337 333 334 332 332 335 335 330 327 325 326 326 326 326 325 330 340 344 345 340 340 340
338 338 338 336 337 335 332 332 333 337 334 339 333 333 335 337 340 340 340 338 335 334 335 335 335 336 339 333 334 333 330 333 333 332 329 328 334 341 346 346 339 338 336
336 339 340 341 337 338 333 334 335 334 335 336 338 339 337 337 341 338 339 337 338 338 337 338 338 338 337 334 331 333 338 340 341 342 336 329 336 344 345 339 337 340 339
335 336 339 339 337 340 338 334 332 333 335 338 339 334 332 337 343 338 336 336 338 337 337 338 339 340 340 332 329 340 341 340 343 345 340 338 329 339 338 339 339 338 338
335 335 337 339 338 340 339 332 332 332 335 336 337 336 339 338 337 336 337 337 337 338 339 340 337 338 340 331 331 342 342 342 342 341 341 340 327 334 337 337 341 338 337
336 335 336 340 340 341 334 331 332 331 335 337 337 336 336 338 336 336 339 339 339 338 336 335 335 335 338 332 340 342 342 342 343 343 342 336 335 337 340 335 340 330 334
344 342 336 340 341 341 331 331 331 330 336 337 338 337 338 338 336 340 340 339 338 337 337 337 337 336 336 336 337 341 342 343 342 343 339 332 334 333 334 329 330 327 333
347 345 336 340 340 334 331 331 330 333 335 337 339 339 338 336 336 340 340 339 339 338 338 337 336 338 338 339 340 343 342 344 344 344 338 334 332 331 331 335 337 329 336
347 342 340 338 338 332 330 330 329 333 335 338 338 337 336 336 335 340 339 339 338 339 337 331 331 335 337 338 341 340 343 339 340 342 335 333 332 330 333 339 336 335 337
347 341 337 336 332 331 330 329 328 334 336 337 338 337 336 340 338 340 339 339 339 337 335 336 333 335 336 340 343 343 340 340 338 338 338 336 331 328 327 328 331 333 335
345 338 334 333 331 330 329 329 329 332 335 337 338 341 344 343 344 338 339 340 340 337 338 342 341 339 339 339 340 343 346 342 341 342 337 325 331 329 330 326 325 337 336
343 337 333 331 331 329 328 329 329 331 337 342 337 337 343 343 340 338 338 339 340 340 340 344 342 342 342 341 342 342 343 344 342 339 334 332 327 329 330 332 325 330 335
345 340 340 334 334 331 328 328 330 343 346 344 343 339 345 345 347 344 342 341 344 343 343 345 347 342 339 340 340 340 342 343 342 339 337 333 337 330 331 329 330 326 323
344 341 344 341 339 338 330 328 341 345 346 347 342 343 344 343 349 347 348 347 347 346 344 345 344 344 341 337 336 338 341 345 343 341 335 332 332 338 333 332 331 330 325
343 342 342 341 344 343 343 344 342 343 345 348 347 342 345 345 347 348 349 346 345 345 338 345 343 339 339 336 337 338 339 342 342 340 338 328 330 331 337 329 333 332 331
344 343 343 342 344 345 346 340 343 345 345 347 347 344 343 346 347 347 347 345 347 347 343 343 343 338 338 335 338 337 338 336 338 340 341 331 330 329 330 338 332 332 331
343 346 343 343 340 345 347 345 344 345 344 345 347 346 345 342 348 348 346 348 347 344 343 342 340 342 339 336 336 338 335 337 337 341 341 341 339 333 334 338 337 332 331
344 347 345 345 343 339 345 346 343 344 344 345 342 346 346 342 347 347 351 346 346 346 345 343 343 345 343 339 337 338 337 336 336 336 337 338 341 340 334 336 338 337 336
347 346 344 345 345 343 340 343 342 343 345 346 347 345 345 338 342 343 349 348 346 346 345 343 343 342 339 340 337 337 336 337 335 337 338 339 339 339 340 337 334 337 337
348 345 344 344 346 346 342 339 342 343 342 345 348 346 344 343 338 346 348 349 344 346 344 344 344 341 338 337 337 337 336 335 337 337 338 339 338 340 338 336 339 338 335
345 343 346 347 347 347 346 338 339 339 346 346 347 346 344 344 343 341 345 348 348 347 345 344 338 338 336 338 338 336 334 337 337 338 338 334 336 339 341 338 340 338 339
346 345 345 346 346 345 347 346 340 342 348 345 346 347 345 345 344 341 342 350 347 347 347 342 344 341 337 337 338 337 336 336 337 335 334 335 335 334 336 337 336 336 337
347 347 346 346 345 345 347 349 345 346 347 350 348 345 348 346 345 341 344 345 350 351 349 341 344 343 339 339 342 342 339 337 337 336 335 333 334 335 334 334 334 334 333
348 347 347 347 347 346 347 350 349 344 350 349 349 344 346 347 346 345 343 349 347 350 346 347 341 343 341 339 340 343 340 341 337 337 337 337 337 335 336 336 335 332 333
349 348 348 348 349 347 348 349 349 346 349 349 350 347 346 346 347 345 345 350 348 346 344 349 345 341 345 344 340 335 341 342 338 342 338 338 338 336 336 336 337 336 336
349 349 349 349 350 349 347 348 350 348 348 349 349 349 347 348 347 349 345 350 350 344 344 349 346 340 343 345 341 340 338 338 338 339 339 340 339 337 337 335 335 335 334

GFSSE_850_thetae_036.txt.gz
Theta_e
340 339 339 339 337 334 331 332 332 332 332 332 333 335 336 336 338 338 338 338 336 334 333 331 332 335 333 330 327 326 327 326 326 327 328 333 337 341 344 339 341 341 340
339 339 337 337 335 332 331 332 333 334 337 331 332 337 339 339 338 336 338 335 333 334 335 334 336 338 329 335 327 327 329 331 328 328 333 335 341 344 344 338 338 340 339
339 336 335 334 332 331 332 334 333 335 335 337 337 336 338 336 337 338 338 337 336 337 337 337 337 337 330 332 333 337 337 340 336 330 329 336 342 345 342 338 340 339 338
339 337 336 334 331 333 333 332 333 337 338 339 332 335 341 338 335 335 338 337 337 337 338 339 340 335 330 337 339 340 341 343 342 336 330 332 340 340 337 339 339 338 337
338 340 337 336 333 334 332 332 333 336 337 336 336 337 336 336 336 336 336 338 338 339 337 336 340 333 329 336 341 340 341 340 339 340 336 327 337 338 338 337 336 337 337
338 339 337 336 334 332 331 332 333 336 337 336 335 337 337 335 338 338 339 339 337 336 335 336 336 333 334 339 341 343 342 340 341 340 336 329 329 334 338 340 332 334 336
337 338 336 336 336 331 331 330 332 338 337 337 336 338 336 338 338 338 338 337 337 336 336 336 336 335 337 340 341 341 342 342 343 337 332 336 335 337 331 329 328 336 335
336 338 337 337 339 331 331 330 332 338 338 339 338 336 336 339 339 338 338 338 337 333 333 336 337 337 338 340 341 342 341 343 343 337 334 331 333 333 331 335 328 335 335
337 336 338 337 335 330 330 331 333 336 338 336 335 335 335 338 339 338 338 338 336 331 331 334 334 337 339 340 340 341 339 341 341 335 333 330 330 330 334 337 334 335 335
345 337 337 335 331 330 329 329 334 337 337 337 334 335 334 337 339 338 338 338 335 334 333 335 336 336 342 342 341 342 339 339 339 340 336 331 327 329 331 334 334 335 335
345 337 336 333 331 330 329 329 335 336 337 338 340 338 338 338 338 338 339 339 336 338 341 342 339 338 339 340 342 342 342 340 340 338 328 330 328 328 325 324 330 332 334
345 339 333 331 330 329 329 329 333 335 337 338 340 340 341 336 336 338 340 340 338 340 341 340 342 343 340 341 342 341 342 340 340 335 331 330 329 331 330 324 333 336 331
342 337 333 330 329 328 328 329 331 338 342 336 339 343 344 342 342 338 340 343 342 342 342 340 341 339 338 339 339 342 342 343 340 336 334 335 329 331 329 329 324 327 331
341 334 332 329 328 328 328 330 339 341 342 339 343 341 344 347 345 345 345 346 343 345 344 341 338 337 338 339 338 337 342 343 340 336 332 332 337 334 331 329 329 324 323
343 336 330 329 328 328 328 334 343 344 345 346 343 343 344 346 347 346 345 346 344 342 344 343 339 340 338 338 338 337 339 342 339 336 330 328 330 333 337 330 332 330 326
345 344 331 331 329 328 331 339 343 344 345 347 346 340 345 344 348 345 344 345 345 344 343 343 337 337 337 338 337 337 335 337 340 339 335 334 329 329 335 333 332 331 331
345 342 334 337 333 336 342 339 343 345 345 345 347 344 342 343 346 347 345 345 345 342 343 340 342 338 334 334 339 337 336 337 341 340 336 340 339 333 335 339 332 330 331
344 342 341 341 338 339 342 341 343 345 344 344 346 346 345 344 343 347 346 345 346 343 343 342 344 341 338 337 338 337 336 336 338 337 337 340 338 334 334 337 338 334 334
346 343 342 343 340 339 346 339 343 346 344 345 345 345 344 344 340 344 346 346 345 344 343 342 343 339 341 338 338 337 336 335 336 336 338 338 338 338 336 334 336 337 336
345 344 345 343 342 341 341 342 342 345 344 344 345 345 345 344 338 341 345 346 345 346 344 342 342 339 338 337 337 335 336 337 337 336 339 338 339 338 333 336 338 338 334
345 346 344 344 343 342 341 342 340 345 343 345 345 347 345 344 342 340 343 346 344 345 344 343 344 337 337 338 337 335 336 337 338 337 339 337 337 338 337 337 336 337 337
345 346 346 345 344 344 344 342 340 339 340 345 345 347 347 345 344 342 341 343 346 345 344 342 339 336 338 337 336 335 335 336 338 335 334 335 334 334 334 334 333 333 336
344 347 348 346 344 344 346 344 341 337 338 340 345 346 346 346 344 344 342 344 347 347 347 345 341 338 336 337 337 336 335 336 334 335 335 334 334 335 334 335 334 332 330
347 347 347 345 344 346 345 344 344 337 336 338 340 345 346 346 347 345 342 342 344 348 349 345 341 341 336 337 341 341 337 337 336 335 335 333 335 335 335 335 335 335 334
348 348 345 344 344 345 345 344 342 345 339 339 344 346 346 345 347 346 346 342 346 345 348 347 340 342 339 338 339 341 340 340 337 338 337 336 336 336 336 335 336 336 335
347 347 345 345 345 345 345 345 343 345 344 341 345 348 349 345 344 346 347 343 348 346 345 346 348 341 343 344 340 333 339 341 339 340 339 338 338 338 337 336 335 335 335

GFSSE_850_thetae_039.txt.gz
Theta_e
342 339 333 331 332 331 337 334 332 337 339 334 334 335 336 335 334 336 333 332 335 332 331 333 335 332 330 328 327 326 326 327 328 330 332 333 340 341 334 340 341 340 339
340 339 335 333 333 331 333 333 334 338 334 336 337 337 337 340 340 338 337 336 333 333 332 334 336 330 334 325 327 328 327 326 329 336 335 339 342 343 337 339 340 340 340
339 339 337 334 331 331 332 333 336 332 333 336 338 338 338 338 337 336 334 333 335 336 336 337 336 330 331 331 334 335 335 332 328 333 336 340 343 342 337 339 339 340 338
339 336 337 331 331 332 332 333 334 336 335 335 336 336 339 342 339 341 337 336 337 338 339 341 334 330 338 338 338 340 340 336 332 330 337 341 342 337 338 339 339 338 336
335 334 334 331 332 333 332 335 337 340 332 333 339 343 342 336 336 337 337 337 338 337 336 340 333 330 339 339 340 341 341 337 338 331 330 338 338 338 339 338 337 336 335
334 334 333 332 333 332 332 335 336 336 336 342 341 336 343 340 336 338 339 336 335 335 335 338 330 331 341 341 341 340 339 338 337 331 327 335 336 337 337 340 336 335 334
336 334 334 333 331 331 332 334 337 335 335 341 338 335 338 338 337 336 336 336 336 336 335 335 334 337 339 340 341 341 341 340 334 333 336 334 337 337 337 329 334 334 334
335 334 336 336 331 332 330 336 337 339 337 338 341 340 339 338 337 337 337 336 333 334 336 335 335 337 338 340 341 341 341 342 334 333 332 334 333 328 329 332 333 333 335
336 334 338 337 330 330 330 335 338 340 339 337 336 338 339 337 337 337 337 333 331 332 335 336 337 338 340 339 338 340 340 341 335 333 331 330 330 335 333 329 335 336 336
337 335 336 334 330 330 332 334 337 337 335 335 335 335 338 337 337 337 336 333 332 334 335 335 339 341 340 341 341 337 338 341 338 335 331 328 330 332 334 335 334 336 336
336 338 335 331 330 329 331 334 337 337 336 334 335 334 337 337 337 338 338 335 336 339 341 338 338 338 340 342 341 340 339 338 340 335 331 329 335 328 329 332 336 335 335
339 337 334 331 330 328 331 335 336 337 338 341 340 338 337 337 338 339 338 337 340 342 341 341 341 339 341 341 341 341 339 339 337 333 331 330 335 328 325 332 333 332 334
339 336 335 331 329 328 330 334 335 337 337 339 340 340 336 336 337 340 341 339 340 342 341 341 342 338 338 338 340 342 341 341 337 334 334 330 332 331 328 329 337 335 331
341 336 333 330 329 329 328 330 334 340 337 339 342 343 342 343 340 342 344 342 342 340 340 338 339 339 337 334 336 338 341 341 337 333 332 335 334 332 330 329 324 326 327
341 337 332 329 329 328 328 330 335 342 339 342 342 343 344 345 344 345 345 343 343 342 343 340 340 340 337 337 336 339 340 339 338 332 328 329 335 338 332 331 330 326 321
339 335 331 329 328 328 328 337 340 343 346 345 342 342 345 346 344 344 345 346 344 341 342 339 339 338 337 336 335 334 338 339 338 334 335 331 329 339 338 329 332 331 329
337 332 330 328 328 327 330 340 344 344 344 346 344 341 344 345 345 344 344 345 343 342 339 340 338 338 338 337 336 336 336 339 339 337 339 337 335 333 338 338 331 332 335
338 338 333 328 328 327 334 338 342 344 345 345 346 344 344 343 343 345 345 345 342 342 340 343 340 338 337 339 338 336 335 337 339 338 338 337 335 334 334 337 339 333 333
339 339 342 331 329 329 333 337 342 344 345 343 345 346 345 344 343 345 346 345 345 343 341 343 342 340 336 338 337 336 335 336 336 336 337 337 338 333 335 334 336 337 336
341 343 340 334 337 334 337 340 342 344 345 344 343 344 346 344 342 341 345 345 346 344 341 342 341 338 339 337 336 337 336 335 335 336 338 338 338 335 334 336 337 337 334
344 343 342 341 341 339 341 340 341 342 345 344 344 344 345 344 342 338 341 345 344 344 343 344 343 339 337 336 336 335 337 337 337 336 339 338 336 336 335 337 335 337 336
344 344 342 342 342 342 341 342 341 340 344 344 343 344 346 345 343 343 339 343 346 344 345 344 342 337 337 337 336 335 336 336 337 337 335 337 336 334 334 332 331 331 334
345 344 343 342 344 344 342 342 342 341 342 343 344 345 346 346 344 344 343 341 342 344 344 345 339 337 337 337 335 334 335 336 336 334 334 335 335 335 334 334 334 331 329
344 344 344 343 343 345 343 343 342 342 341 341 342 344 346 346 345 345 344 343 343 346 347 345 340 339 336 336 336 335 335 336 335 335 335 334 334 336 334 335 335 335 334
344 343 344 343 344 344 345 343 343 344 339 336 337 339 345 346 345 345 346 345 342 343 346 347 340 342 338 336 339 340 338 339 336 336 336 336 335 336 335 336 335 336 334
346 341 343 343 344 344 346 344 344 344 341 337 333 334 341 343 344 344 346 346 343 345 345 347 346 342 340 336 337 339 340 341 338 336 339 338 338 338 337 336 336 335 335

GFSSE_850_thetae_042.txt.gz
Theta_e
341 336 333 334 331 338 332 332 334 333 333 332 331 330 331 331 332 338 341 336 332 332 334 335 333 330 328 328 326 328 329 330 332 335 334 338 340 336 338 339 337 338 337
337 333 333 333 333 336 332 340 337 337 343 335 335 335 335 334 342 342 336 334 332 332 340 342 332 333 326 328 327 326 326 326 328 336 335 340 342 340 338 338 338 339 336
335 332 334 332 336 333 335 339 334 335 341 341 342 342 340 340 341 338 334 334 334 336 338 337 331 332 328 336 336 330 328 334 336 333 336 341 342 337 337 340 339 337 336
334 333 334 333 339 337 340 333 332 340 342 342 339 338 339 341 339 334 335 336 337 339 340 337 330 333 336 336 337 336 333 328 331 335 338 341 341 340 339 338 338 335 335
334 333 332 335 339 339 334 334 336 335 336 338 336 339 341 341 339 337 338 337 337 338 339 334 331 338 338 339 341 339 336 334 328 336 341 339 335 338 338 338 336 335 335
336 334 330 335 336 336 336 340 338 333 338 342 343 341 341 339 337 338 337 334 334 337 340 329 331 340 338 340 339 337 335 335 328 329 337 337 337 340 337 336 336 336 335
335 331 332 340 332 333 335 336 334 340 342 337 339 343 338 337 338 335 335 334 335 335 333 332 335 339 340 341 340 338 335 332 332 329 329 332 337 338 338 336 337 334 334
332 331 338 339 331 333 335 340 335 338 342 336 337 337 337 336 336 336 334 333 336 335 334 335 337 338 339 340 340 340 340 332 332 331 333 336 333 332 335 336 334 336 335
334 336 341 332 340 335 342 337 340 336 341 339 338 337 336 337 337 334 331 331 336 336 336 337 338 339 338 338 340 339 339 334 332 331 331 332 331 333 335 334 336 335 334
335 342 335 330 332 330 339 339 341 340 336 335 339 338 336 337 337 334 331 332 333 334 336 339 340 340 340 338 336 338 339 337 334 331 329 338 339 338 332 337 336 334 334
336 337 337 330 330 331 335 338 337 335 335 335 337 336 336 337 337 335 334 335 338 339 337 337 339 340 341 341 339 338 336 338 335 330 331 337 337 331 336 335 334 333 334
337 335 334 330 330 331 334 337 337 335 334 334 334 336 336 337 338 337 335 338 341 341 339 340 339 340 341 341 340 339 338 336 334 330 330 335 332 325 329 331 332 333 334
334 333 334 330 329 330 334 336 337 337 340 338 337 336 336 337 339 339 337 340 341 342 341 340 338 338 338 339 341 340 340 339 334 333 331 330 333 328 333 336 334 330 332
335 331 332 330 329 329 334 335 336 337 339 339 339 336 336 336 340 341 340 341 341 341 342 340 338 337 334 335 339 341 342 339 334 332 334 333 337 330 329 330 331 335 329
335 332 331 330 329 328 332 333 338 336 339 340 342 342 344 342 341 343 343 342 342 342 340 340 338 337 336 336 336 339 337 338 334 328 330 335 338 336 331 329 327 323 323
335 332 331 330 329 328 329 332 340 339 341 341 341 343 344 343 342 343 344 344 342 341 341 341 339 337 335 333 332 339 339 338 334 334 333 331 336 338 336 330 331 329 326
335 334 331 329 328 328 328 331 340 345 345 342 341 343 343 344 343 343 343 344 342 341 339 339 338 337 335 335 335 336 339 339 336 338 336 335 333 337 339 336 337 331 333
335 335 331 329 328 327 329 339 342 344 344 345 344 342 343 343 343 343 344 343 341 339 339 340 339 337 338 339 335 334 338 338 337 338 337 335 335 334 335 338 338 332 332
336 333 331 329 327 327 329 340 343 343 344 345 345 344 344 344 344 344 344 343 342 341 340 342 340 340 337 338 337 335 335 337 337 337 337 337 333 333 335 335 337 337 336
340 334 330 329 327 327 329 338 340 342 343 343 345 344 345 344 344 343 343 343 344 339 341 341 340 339 338 337 336 336 335 336 336 337 338 338 336 334 334 337 337 336 334
342 337 334 333 329 328 327 338 339 342 343 344 342 342 345 345 344 342 342 342 343 343 341 340 341 338 338 336 335 336 336 336 336 336 338 337 337 334 335 335 335 336 335
344 340 337 339 331 330 330 334 339 341 342 344 344 344 343 345 343 342 342 342 342 343 344 343 342 340 336 336 336 335 336 336 337 336 337 336 336 334 334 333 332 331 330
343 341 339 341 332 337 336 339 340 340 342 344 344 343 344 346 345 343 343 343 342 343 345 343 340 336 337 337 336 335 335 335 336 336 334 334 335 334 334 334 334 329 330
343 342 341 341 339 341 341 340 341 341 340 341 343 343 344 344 345 344 344 343 343 343 345 345 342 336 337 337 335 334 334 335 336 335 334 335 334 335 334 335 335 334 333
346 343 342 343 341 340 341 342 342 341 341 341 341 343 342 344 345 344 344 344 344 342 345 347 343 340 337 336 336 336 336 334 337 336 336 337 336 336 336 335 335 335 334
346 345 343 342 343 340 341 343 344 343 342 342 341 340 340 341 344 344 344 345 345 344 344 345 346 340 340 337 336 337 340 339 339 337 336 338 338 338 337 337 336 335 335

GFSSE_850_thetae_045.txt.gz
Theta_e
343 340 334 333 336 336 336 337 339 340 340 341 341 342 340 332 331 337 338 333 331 331 333 333 331 328 328 327 330 332 332 337 337 338 337 341 341 337 338 340 346 343 337
341 335 336 331 336 332 332 331 331 332 331 331 332 332 334 342 341 334 336 338 342 343 342 338 331 328 326 327 326 326 327 328 333 333 339 341 341 340 341 340 343 338 333
336 333 333 336 337 337 339 337 339 343 335 335 338 340 339 340 341 342 340 342 341 341 341 335 339 329 337 338 327 327 336 337 336 338 341 345 342 339 342 341 341 340 336
331 335 340 339 333 337 339 340 339 341 342 342 342 340 340 340 337 342 341 340 338 339 339 331 335 337 334 335 335 329 330 331 332 338 344 347 344 340 339 339 336 337 334
331 336 340 338 336 341 335 340 341 341 341 340 339 340 340 342 339 341 339 339 341 340 340 331 337 337 339 340 337 334 329 332 337 340 341 341 346 339 339 336 338 335 340
331 341 338 336 339 335 340 340 335 337 338 337 337 339 342 340 340 338 335 334 338 341 328 332 338 338 339 338 336 335 334 328 335 339 342 339 343 339 337 336 337 336 338
341 342 339 335 339 335 342 336 336 337 342 342 342 339 338 339 336 334 334 335 337 332 330 338 339 340 341 339 336 334 333 327 329 336 336 341 339 340 338 337 334 332 333
340 343 342 335 339 338 337 334 341 341 337 341 340 343 341 335 335 334 334 334 334 333 336 337 338 339 340 339 339 337 333 333 334 335 338 341 338 335 334 335 336 333 329
342 342 342 333 340 339 341 336 340 339 336 337 340 336 335 336 334 332 332 335 335 336 337 338 339 337 338 340 337 336 333 331 331 336 340 340 331 335 335 334 335 333 334
342 344 341 337 341 342 338 338 337 340 340 339 338 336 336 336 333 331 333 334 335 338 340 340 340 340 337 336 338 337 335 332 330 330 342 341 337 332 336 336 335 334 334
343 344 337 342 336 341 342 341 340 339 339 338 336 336 337 336 333 333 335 337 338 338 337 339 340 341 340 338 337 336 337 333 331 340 343 337 336 336 336 335 335 334 334
344 343 341 333 330 337 344 342 341 337 339 338 336 336 337 336 335 334 336 339 340 338 338 339 339 339 340 343 340 338 337 335 332 337 341 334 327 329 336 333 333 334 334
343 343 336 330 331 334 338 336 335 334 334 334 336 336 337 338 337 335 338 340 341 342 342 340 339 338 338 340 339 339 340 336 333 339 332 334 329 334 334 334 330 331 333
339 337 333 330 330 334 336 336 335 337 337 336 336 336 336 338 339 338 338 340 341 341 340 340 338 336 335 338 341 341 341 338 335 335 333 336 331 330 333 333 335 331 330
336 332 332 330 329 333 336 336 337 340 339 340 337 337 337 338 341 342 341 342 342 342 340 338 337 336 337 337 337 339 339 334 330 330 340 336 337 332 330 328 330 324 326
332 329 330 330 329 332 334 335 337 337 339 341 342 343 344 342 343 344 342 343 343 342 341 340 337 337 332 331 337 339 339 336 335 335 334 333 336 338 333 332 331 327 324
331 329 330 329 329 329 332 336 338 340 341 341 342 343 344 342 342 343 344 343 343 340 340 339 337 336 333 335 335 340 338 336 338 337 335 333 336 337 339 336 334 332 333
332 331 329 329 329 328 329 336 341 343 342 341 342 343 344 344 342 343 343 343 341 340 341 337 337 335 335 337 336 338 339 337 338 338 336 335 334 339 338 338 338 334 333
333 331 331 329 328 328 328 332 342 345 345 345 345 343 344 344 343 344 344 343 341 340 340 340 338 336 337 337 335 334 336 336 337 338 338 334 334 335 336 335 338 337 337
334 336 331 329 328 328 328 338 342 344 343 344 345 344 344 344 343 344 342 343 344 339 342 342 339 338 336 338 337 335 334 336 336 338 336 335 335 333 335 336 336 337 334
339 337 335 329 328 328 328 334 341 342 342 344 345 344 344 344 343 342 342 342 343 341 340 340 340 339 338 335 335 336 334 335 336 336 338 335 335 333 334 333 333 335 336
342 338 337 331 328 327 327 334 340 340 341 344 343 342 343 344 343 342 341 342 343 343 342 342 342 340 338 336 336 336 338 337 336 336 337 336 334 334 334 334 332 332 326
345 341 338 332 329 327 327 329 336 338 341 343 344 344 344 344 344 343 343 343 341 343 343 341 340 341 337 336 336 337 336 338 337 336 335 334 334 334 334 334 334 329 330
345 341 339 334 333 333 328 328 329 335 339 341 342 343 342 344 345 344 343 343 343 343 343 344 341 335 337 337 336 335 334 335 338 338 335 335 334 335 335 335 335 334 333
345 342 343 342 334 339 332 331 331 335 337 338 339 342 343 343 344 344 344 344 343 342 345 346 344 340 337 337 337 335 335 334 335 338 339 340 336 336 336 335 335 335 334
346 344 342 342 338 340 334 337 337 337 339 341 341 341 342 343 343 344 344 344 345 345 343 344 346 341 339 337 336 337 339 342 342 341 340 340 339 338 337 337 336 335 335

GFSSE_850_thetae_048.txt.gz
Theta_e
344 344 344 344 343 343 342 342 343 343 342 342 342 343 341 331 330 336 336 332 332 332 333 332 329 328 328 331 333 334 339 340 339 338 341 342 340 339 342 346 346 345 338
342 343 344 343 343 343 342 341 341 340 339 339 340 337 332 338 340 336 335 341 343 342 338 331 330 328 327 330 329 329 331 332 337 339 340 342 340 341 341 345 342 340 340
342 344 339 338 336 337 334 332 332 332 332 332 333 334 343 341 338 338 339 341 341 342 334 334 329 338 335 327 332 337 336 337 337 339 345 347 345 341 340 340 340 338 335
343 342 344 337 335 340 338 339 343 337 335 340 341 341 340 340 341 339 343 340 338 341 331 335 338 335 335 334 329 333 336 334 337 342 346 348 346 340 339 338 337 335 335
343 342 341 334 338 338 337 339 341 342 342 342 341 340 339 336 339 340 339 340 340 341 332 337 337 339 340 337 335 330 333 336 339 347 348 346 346 339 338 338 338 341 339
343 343 337 334 340 336 340 341 341 340 340 341 340 341 341 340 341 341 336 337 340 329 334 338 338 339 338 336 335 334 330 338 347 345 347 345 343 339 337 337 335 335 328
343 343 341 339 337 341 340 336 339 337 337 337 339 341 341 342 341 336 336 337 331 331 339 339 341 340 338 334 333 332 327 337 346 346 346 344 342 339 339 334 332 330 335
342 343 344 340 339 342 335 339 339 341 341 341 341 343 341 340 342 336 334 334 334 336 337 338 339 341 338 338 334 332 333 341 343 346 345 345 337 337 337 336 334 331 335
342 343 344 346 340 341 335 341 339 335 341 343 343 342 341 340 332 334 335 335 336 337 338 338 337 340 339 337 335 332 331 341 343 343 341 342 337 337 334 338 336 333 328
342 344 344 345 347 348 344 340 337 336 342 343 340 342 339 331 329 334 335 337 339 340 340 340 339 336 338 337 337 333 333 340 341 342 345 338 335 336 337 336 335 335 329
342 344 342 345 347 349 347 341 341 339 339 338 338 339 345 345 344 346 339 337 338 339 340 340 341 339 337 337 336 338 342 340 341 343 342 338 338 337 336 335 335 334 335
342 344 343 347 347 347 347 345 346 346 347 347 348 347 346 346 345 343 341 338 338 338 338 339 340 342 347 345 343 344 343 343 341 343 340 329 332 337 335 333 334 335 333
342 342 343 345 347 348 348 348 348 347 347 347 347 347 347 346 343 345 345 346 346 345 346 346 347 347 346 346 345 344 344 343 341 341 334 330 337 334 334 330 330 333 333
342 342 343 345 346 348 349 346 346 345 345 345 345 337 344 347 346 346 347 345 346 346 346 347 342 341 345 347 346 345 344 341 342 342 334 333 330 334 334 332 334 329 330
342 343 343 345 347 348 349 347 346 346 346 346 343 338 346 348 348 348 347 347 347 346 345 345 344 343 342 344 345 345 344 341 340 343 345 338 334 330 329 332 332 325 327
342 343 344 345 346 347 349 348 350 348 348 346 346 344 338 349 346 347 345 347 348 347 346 345 344 342 340 341 345 344 344 343 342 341 343 338 337 336 330 332 330 326 323
342 343 344 344 345 345 347 345 347 347 346 348 348 344 343 346 343 343 348 344 348 343 341 344 343 340 340 340 343 344 343 344 343 343 343 343 342 337 338 337 332 331 332
341 343 345 343 343 345 346 342 345 346 347 348 350 349 345 343 343 345 344 348 348 346 345 342 340 342 337 338 342 342 341 342 343 343 343 343 342 344 340 338 337 334 334
342 343 345 344 343 343 343 343 345 346 348 348 349 349 344 344 343 348 350 349 342 347 347 344 342 340 340 337 337 339 339 341 341 340 343 342 339 341 343 338 337 337 337
342 343 344 344 344 342 342 341 345 347 348 349 349 350 344 347 343 347 349 343 347 345 344 347 343 342 342 339 337 337 339 339 340 340 340 340 338 340 341 344 345 343 334
344 344 344 345 345 342 339 341 345 346 347 348 348 345 344 345 342 341 345 346 345 347 347 345 342 341 340 340 338 336 336 339 342 341 340 339 340 339 340 340 341 342 343
345 345 345 343 345 335 338 340 344 345 345 347 350 344 344 344 343 347 347 346 349 346 344 343 345 342 340 338 339 337 338 339 340 341 341 340 341 340 340 341 339 340 337
346 346 346 342 335 330 339 339 343 346 348 349 349 348 345 344 344 345 341 347 341 347 348 348 344 344 341 342 338 341 338 339 340 340 341 341 341 340 341 341 341 340 340
346 347 347 345 334 329 329 339 340 344 344 344 348 348 350 343 344 344 343 343 342 347 347 347 346 344 342 341 340 339 337 340 340 341 340 340 341 341 341 341 340 341 341
346 347 348 348 338 333 328 336 340 340 340 343 346 349 350 345 344 346 343 343 343 348 347 347 343 340 341 342 342 342 342 342 340 341 341 341 341 339 339 341 340 340 341
347 347 348 347 338 332 328 327 334 338 338 343 346 346 347 348 350 344 344 344 343 344 347 347 344 341 345 341 342 342 343 344 343 343 342 343 342 342 341 341 341 341 341

GFSSE_850_thetae_051.txt.gz
Theta_e
344 344 341 342 340 341 340 340 341 342 342 341 341 341 335 329 337 337 333 333 335 335 332 330 329 328 330 334 335 338 339 339 339 341 341 340 338 343 345 346 345 342 336
343 344 344 342 342 342 342 342 342 341 342 342 343 338 331 338 339 335 340 343 343 338 332 330 328 327 329 330 330 332 336 338 339 339 341 340 341 343 345 345 339 337 334
348 346 345 343 343 342 342 339 336 337 337 337 335 333 339 337 337 337 341 341 342 334 334 329 338 331 328 337 335 329 331 335 339 343 346 347 343 340 339 339 336 335 337
348 347 348 341 339 336 331 333 334 333 334 334 334 341 340 341 340 344 341 338 340 332 335 338 336 336 333 328 337 337 335 338 343 346 348 348 346 339 338 334 335 338 337
344 344 340 333 340 338 337 344 340 337 340 341 340 340 338 340 340 339 340 339 340 333 337 337 339 339 334 333 330 332 333 339 345 350 347 347 345 338 337 340 341 341 340
342 346 333 337 337 335 338 340 342 341 341 340 340 340 338 341 341 338 340 341 332 337 338 339 339 337 335 334 331 335 341 345 345 349 346 346 343 341 341 338 336 333 331
344 346 336 338 335 339 340 340 340 341 341 340 341 340 340 341 339 342 342 333 332 339 340 340 340 337 334 333 329 332 344 345 345 346 345 343 339 338 336 335 330 333 334
344 343 342 337 340 340 335 337 339 339 338 340 341 342 342 341 338 335 335 335 336 338 338 340 341 337 336 332 332 328 341 345 344 345 347 344 338 337 337 333 334 336 336
342 344 346 345 342 337 338 338 342 341 341 343 342 339 341 333 333 333 334 336 337 338 337 338 340 337 335 333 330 335 344 343 343 345 343 343 338 335 338 337 330 331 333
343 341 344 345 348 347 343 341 338 342 343 342 342 340 331 330 334 337 339 339 340 340 339 337 339 337 336 334 330 338 340 341 342 344 344 336 336 337 336 335 337 329 334
344 341 342 343 345 347 349 342 339 342 341 339 340 342 345 345 346 347 339 338 340 340 341 339 336 337 336 336 340 342 342 343 344 342 343 338 337 336 335 335 335 335 328
343 340 341 343 347 345 346 343 347 345 346 348 345 345 348 345 344 344 337 337 338 338 338 339 343 343 344 346 345 344 341 341 344 343 331 333 337 336 334 333 337 334 334
342 339 343 347 345 348 346 348 347 348 348 348 346 347 345 344 344 346 342 345 343 344 346 344 346 346 346 345 345 344 343 341 343 343 329 335 332 333 330 330 333 333 333
342 340 344 344 346 349 346 346 348 347 344 344 346 347 346 347 346 346 346 344 346 346 342 346 342 344 345 347 345 344 343 343 342 342 330 329 335 335 334 334 329 329 330
342 340 343 343 349 346 348 347 344 344 343 346 347 347 348 348 348 347 346 347 346 345 344 345 342 344 340 341 345 344 341 342 344 344 342 336 329 330 333 336 329 325 328
341 340 342 344 346 348 347 347 346 345 348 344 345 346 348 349 350 348 347 348 346 346 346 344 345 343 341 341 341 343 343 342 343 344 345 337 337 332 330 329 328 325 323
341 341 343 345 347 349 350 348 347 347 344 347 348 345 350 348 345 350 348 347 349 343 340 337 341 342 340 343 341 343 341 344 342 343 343 345 344 341 338 334 329 330 329
341 343 345 344 346 348 349 348 348 347 345 347 348 350 351 348 343 348 348 346 346 346 346 343 342 339 342 340 344 343 341 342 342 343 343 344 344 345 343 335 337 334 333
342 343 345 345 346 347 349 348 347 347 347 347 349 349 351 352 351 350 348 348 347 346 344 341 342 337 340 339 337 341 341 340 342 342 342 342 339 344 347 341 337 337 336
342 343 345 345 345 347 348 349 347 348 348 348 348 350 345 351 351 351 351 343 345 345 347 346 345 343 339 339 337 339 341 341 340 341 340 341 339 341 344 340 343 343 339
343 343 345 346 345 346 347 347 347 347 347 347 349 352 351 351 350 349 350 344 349 346 347 346 340 337 341 339 339 336 337 338 342 339 339 339 340 340 339 341 345 344 343
343 343 345 346 346 345 345 346 346 347 346 347 347 351 353 353 351 348 350 350 347 350 350 348 346 341 340 339 341 338 338 339 341 342 339 340 340 340 342 342 340 338 343
344 344 344 346 347 345 344 343 345 347 347 346 350 351 352 353 353 353 341 350 346 349 347 345 341 345 342 339 342 341 339 339 342 340 342 341 341 342 341 341 342 341 341
344 346 346 345 346 345 342 342 344 346 345 345 347 348 351 352 353 352 351 347 342 350 351 347 349 346 347 341 340 341 341 342 341 343 340 341 342 341 342 342 342 343 342
345 347 347 346 345 345 340 342 343 345 344 345 345 349 350 351 353 353 349 352 351 347 349 352 353 343 343 345 342 341 340 342 340 342 344 343 343 340 341 343 342 341 343
346 347 348 348 346 341 336 334 342 342 344 342 344 349 348 351 351 352 353 353 353 352 351 350 351 348 346 345 345 344 344 344 344 343 342 343 342 343 342 342 342 342 342

GFSSE_850_thetae_054.txt.gz
Theta_e
342 341 340 339 339 339 340 340 341 342 341 339 340 335 330 339 336 333 335 334 334 332 330 330 329 329 332 335 334 338 338 337 339 338 337 339 344 345 346 345 340 335 335
342 341 341 340 340 339 340 342 342 341 342 341 341 331 339 338 335 340 342 343 337 332 330 327 327 328 328 329 330 337 338 338 338 339 340 340 344 344 345 341 332 335 335
347 341 343 341 342 341 342 341 341 340 342 341 333 337 339 335 335 340 340 341 332 333 336 340 328 331 337 330 327 329 335 338 343 345 345 341 340 338 338 334 334 337 337
345 346 344 343 342 341 337 334 333 333 333 333 338 340 340 341 343 340 339 340 335 339 339 337 336 332 328 336 335 335 337 342 347 346 348 345 340 338 333 335 338 334 329
348 349 343 339 337 332 334 338 335 339 338 339 340 339 339 340 339 339 339 338 335 337 337 339 338 333 330 330 332 336 342 345 346 348 347 343 338 336 341 341 340 335 334
349 348 334 336 336 339 343 339 337 340 341 340 343 340 339 340 338 339 340 329 338 338 339 338 336 334 332 329 333 338 344 346 348 346 344 343 340 341 338 334 334 329 336
349 337 334 335 334 339 340 342 340 339 339 341 340 340 341 338 340 340 334 334 338 340 340 339 335 333 330 329 340 345 343 345 346 342 341 338 337 337 334 333 329 336 334
347 342 335 336 339 341 340 340 339 340 340 341 341 340 339 338 336 334 335 336 337 338 341 338 336 332 331 328 341 343 345 345 345 344 339 336 336 337 334 336 336 335 329
344 347 338 337 339 338 338 340 339 339 341 341 338 339 332 332 333 333 334 336 337 336 339 338 333 333 329 332 341 343 345 346 345 345 337 336 336 337 334 326 330 332 334
346 346 347 343 341 342 341 341 341 341 342 337 338 329 329 333 339 341 338 339 338 337 338 338 336 333 329 333 339 341 344 345 344 344 337 334 336 335 335 333 334 336 333
343 343 345 347 346 344 343 338 341 341 339 336 340 339 346 345 342 340 339 340 340 340 337 336 336 336 337 341 342 343 345 344 345 338 332 334 335 334 334 336 333 328 330
341 343 342 345 344 347 347 340 340 338 341 343 347 345 346 348 344 337 337 338 338 339 340 341 338 339 343 344 343 339 344 344 344 338 330 333 334 335 334 338 335 332 333
341 340 342 347 342 348 348 338 342 348 347 347 344 345 347 346 342 344 342 346 338 345 346 342 346 340 341 345 347 347 341 344 343 332 326 327 329 328 329 332 333 332 333
340 342 346 345 342 349 345 347 348 348 349 343 346 348 342 344 346 345 347 347 346 346 345 345 344 342 343 346 345 343 343 344 342 342 331 333 331 333 329 326 327 329 329
341 343 342 346 341 343 346 348 346 346 344 345 345 346 345 348 348 346 347 344 347 347 344 344 344 341 344 343 343 342 343 345 343 342 336 332 328 328 332 333 323 325 328
341 344 345 342 345 348 344 348 348 341 346 345 343 347 348 349 348 350 348 345 345 345 343 341 343 343 344 341 343 343 343 341 343 343 342 340 339 334 330 328 326 323 323
340 341 344 343 345 346 348 348 343 343 347 345 347 344 348 349 348 349 347 347 343 342 345 341 341 341 342 342 340 342 344 343 344 344 345 344 344 342 339 336 329 329 328
341 340 344 343 347 346 344 345 341 346 349 345 349 343 348 348 343 347 347 348 346 341 343 339 339 340 343 338 341 342 343 341 342 343 343 343 343 344 343 337 338 335 335
342 342 343 345 347 345 346 344 347 345 347 346 347 348 347 345 345 345 348 347 341 348 347 343 337 341 342 338 340 341 341 341 342 340 342 342 341 342 341 340 338 339 335
343 343 344 346 347 346 349 344 346 348 348 349 349 351 347 351 352 350 348 343 347 346 341 346 342 338 341 339 340 341 342 340 341 340 341 342 338 341 341 340 341 342 342
342 343 345 346 346 346 349 346 349 346 347 348 348 349 346 353 351 346 348 343 345 346 344 344 340 340 342 337 335 336 337 337 340 339 341 341 340 341 340 341 343 342 342
343 343 344 345 346 345 349 347 348 347 346 349 347 352 343 351 351 349 349 349 344 345 345 347 342 341 339 338 341 342 338 339 342 341 340 339 341 341 342 343 339 335 341
344 343 343 346 347 345 347 346 348 347 349 347 350 349 345 349 346 353 347 349 346 349 341 339 344 345 339 340 340 343 339 342 342 340 340 342 342 341 342 342 342 340 334
344 343 343 345 348 346 345 345 347 347 348 344 350 350 346 347 350 351 342 349 344 350 348 339 339 346 341 341 338 343 341 342 340 343 341 341 338 341 341 342 343 342 343
345 344 343 343 347 347 343 345 344 346 345 346 344 351 351 349 348 353 346 342 341 348 346 346 346 346 344 344 341 340 339 342 341 343 343 342 342 341 341 340 342 342 342
346 345 344 344 343 347 342 345 342 344 345 346 344 350 352 352 345 352 352 343 344 349 350 346 345 341 344 345 343 344 343 344 344 344 344 343 343 342 342 342 342 342 342

GFSSE_850_thetae_057.txt.gz
Theta_e
338 337 338 338 338 338 338 340 340 337 338 339 331 330 334 333 334 335 333 333 331 330 329 328 329 332 336 336 337 337 338 338 336 335 340 343 345 345 342 334 332 333 334
339 338 338 338 339 339 340 341 342 341 341 339 330 336 334 335 339 341 343 335 329 328 326 328 335 329 330 332 338 338 336 338 337 338 340 342 345 343 338 332 332 336 336
340 338 338 340 340 340 342 341 340 341 341 333 335 336 334 341 341 340 339 335 334 342 337 328 339 336 327 329 333 337 338 343 344 343 340 339 338 335 333 335 334 335 333
339 340 340 341 341 341 341 340 337 335 332 334 339 338 340 342 339 339 337 339 339 340 338 338 328 332 332 330 332 337 344 345 346 346 339 337 334 333 336 332 330 324 334
341 340 342 342 341 337 332 331 332 332 334 339 338 338 338 338 338 338 334 335 336 338 339 334 332 329 332 334 338 342 345 345 346 346 343 335 338 339 339 337 329 333 325
342 342 342 339 332 333 340 338 337 339 339 339 339 338 339 335 338 336 331 337 337 338 334 334 332 328 331 335 338 344 346 345 347 344 340 341 341 339 332 331 335 328 332
347 341 338 337 337 341 338 339 341 339 339 339 338 340 336 336 337 331 337 338 340 339 335 332 329 327 334 341 342 342 344 343 343 343 337 336 334 331 333 330 334 333 337
346 337 335 341 340 340 339 342 339 338 339 338 339 337 335 335 331 334 336 336 339 340 335 331 330 327 339 343 343 344 343 342 341 337 334 332 334 334 333 336 333 334 325
338 329 333 337 339 338 337 343 338 338 338 338 337 330 330 331 332 333 336 336 337 339 334 332 329 329 335 343 345 346 345 344 339 333 333 334 336 331 331 329 330 331 331
337 330 332 339 339 335 337 338 338 339 336 336 328 331 334 337 337 338 337 337 337 336 335 332 328 331 342 344 343 343 345 345 344 341 332 334 334 334 331 336 337 336 333
337 332 335 335 334 338 338 338 339 337 335 329 335 342 341 338 338 340 340 339 337 336 336 333 333 338 340 341 342 343 344 344 342 333 332 333 333 333 332 330 327 333 335
341 339 336 338 339 339 336 338 337 337 342 342 343 346 347 341 338 338 339 339 340 340 339 337 341 341 341 341 343 343 344 345 341 330 331 331 331 331 334 333 330 332 332
342 342 341 338 344 338 336 337 341 343 341 344 344 345 345 345 342 341 338 338 341 342 340 341 340 340 342 342 344 345 343 344 330 327 325 328 326 327 330 331 330 332 331
343 343 344 343 345 349 338 340 345 344 344 345 344 346 343 344 345 344 344 344 344 344 343 340 339 340 343 343 341 343 343 342 343 337 328 328 328 325 325 326 327 328 328
342 343 346 340 342 349 343 344 344 347 345 345 342 342 344 344 346 346 345 345 344 343 343 343 340 341 342 343 344 344 344 343 342 336 335 328 328 329 333 323 324 325 329
344 345 345 342 338 345 347 344 345 346 347 347 343 339 345 346 348 345 344 345 343 344 342 342 343 342 340 342 343 344 341 342 342 342 342 341 336 333 330 328 325 323 324
345 344 344 339 337 344 347 346 347 349 348 342 345 342 345 345 345 347 344 343 344 344 342 341 342 343 343 342 343 342 342 341 343 342 342 340 342 342 336 335 330 330 328
343 344 344 340 340 346 349 347 347 347 346 346 346 346 348 346 347 346 344 343 342 341 338 340 341 341 341 342 340 343 342 341 342 341 343 340 341 343 343 337 337 336 336
343 344 344 340 341 347 350 345 342 346 346 349 345 345 345 343 342 345 345 346 341 342 341 339 339 343 341 341 341 341 341 342 342 340 341 341 339 339 339 340 342 340 340
340 340 342 343 342 344 345 341 342 346 347 347 347 350 343 346 346 345 344 344 344 344 343 339 340 340 341 340 341 342 341 340 341 341 341 340 339 341 340 339 341 341 341
341 340 342 344 344 341 345 341 346 348 347 347 349 350 345 348 347 344 342 340 345 342 342 342 340 342 339 340 341 341 340 339 339 341 341 340 340 339 340 341 341 338 340
342 341 342 342 345 342 344 345 346 347 345 347 348 350 350 349 345 346 342 344 347 343 342 338 336 342 339 339 336 338 337 338 341 340 340 341 341 341 342 341 341 330 332
342 342 342 341 345 344 342 345 348 344 344 347 348 348 346 347 344 347 348 347 345 344 340 341 339 343 338 339 340 339 338 341 342 341 340 339 341 340 342 341 342 341 341
342 342 341 341 346 345 342 346 348 349 348 346 348 346 348 343 345 352 350 347 346 345 341 339 342 343 340 340 339 340 339 341 340 341 341 342 339 341 341 341 343 342 342
344 343 342 340 345 345 344 342 347 347 347 347 345 350 347 345 348 345 348 341 341 348 344 338 341 345 342 343 339 339 339 342 340 343 343 341 341 341 341 340 341 342 341
345 343 342 341 342 344 345 339 345 346 347 347 343 348 349 349 345 346 350 348 340 344 343 342 340 344 344 346 343 341 341 344 344 344 345 343 342 341 342 342 342 343 341

GFSSE_850_thetae_060.txt.gz
Theta_e
337 339 337 338 338 335 340 335 329 336 337 329 328 331 331 331 331 329 330 330 330 329 329 330 335 337 338 337 337 338 339 336 336 340 343 343 341 334 333 332 333 335 333
337 339 338 338 336 338 339 340 337 340 336 329 333 332 334 338 340 339 330 328 327 326 329 329 331 335 336 337 337 337 338 337 339 341 342 342 340 333 332 334 337 337 333
336 338 338 337 337 339 341 342 340 340 333 334 333 333 339 339 339 336 332 338 342 328 337 342 329 329 333 337 337 336 339 340 338 339 338 337 333 334 334 335 336 333 331
337 337 338 338 339 341 341 340 340 337 335 337 336 338 341 340 340 337 341 339 339 340 331 329 335 327 329 334 337 343 345 345 340 339 338 332 333 336 333 324 328 334 335
337 337 339 339 341 340 338 335 333 332 337 337 339 340 339 338 338 333 337 335 338 338 331 329 333 333 332 336 342 345 344 346 344 338 334 336 336 337 328 332 330 334 336
338 339 340 341 340 332 330 332 334 336 338 337 337 341 336 341 334 335 336 337 335 334 333 329 328 332 336 340 343 344 343 344 343 338 339 339 339 333 329 332 327 333 335
339 341 341 337 337 338 339 335 338 338 340 337 339 335 341 335 331 337 338 338 336 332 330 328 330 333 337 341 344 343 343 343 343 336 336 335 332 338 331 337 335 337 331
341 341 336 333 340 339 337 338 337 339 338 339 336 337 334 331 335 336 337 340 334 331 329 327 334 340 342 344 342 341 342 341 338 334 333 330 331 330 336 332 337 325 328
340 334 333 338 340 340 339 337 338 339 338 336 330 330 332 333 334 336 337 339 333 330 329 328 341 343 344 345 343 344 343 336 333 332 333 333 336 339 336 328 329 335 329
340 330 331 334 336 338 342 337 338 338 336 328 330 332 335 336 336 335 336 337 333 334 330 329 339 342 343 345 344 344 344 343 341 333 334 333 330 326 331 335 337 330 330
332 331 332 335 335 335 337 338 337 335 327 331 339 339 339 339 339 339 336 337 334 332 329 331 337 341 342 343 341 343 343 344 336 332 332 332 332 331 335 333 332 332 333
332 332 332 332 334 338 338 338 334 331 334 342 339 338 337 338 339 339 336 336 335 334 333 337 339 341 341 342 343 341 343 343 333 332 331 331 331 332 332 329 331 331 336
330 331 332 332 335 337 337 334 338 341 341 345 345 340 338 338 339 338 339 341 340 340 339 340 341 342 344 344 343 342 343 336 329 326 329 328 328 331 332 331 333 332 330
333 333 333 335 334 336 334 333 337 341 340 343 345 344 343 343 344 341 340 342 341 339 337 337 340 341 342 343 343 343 341 339 335 329 329 328 325 325 326 327 328 328 327
341 339 340 336 339 336 339 338 342 343 343 343 344 342 344 344 345 344 345 343 342 342 341 340 342 341 342 343 343 343 343 341 338 334 329 328 328 331 327 323 325 326 328
342 342 343 340 339 339 343 344 345 344 345 345 344 341 344 344 343 342 343 344 342 343 341 342 340 343 343 342 340 342 342 341 341 341 341 338 337 331 328 327 324 323 323
342 343 343 339 346 343 344 344 346 344 346 345 343 341 344 346 345 342 343 344 343 342 343 341 342 341 342 342 342 341 340 340 342 342 340 342 342 341 336 334 332 331 329
342 343 342 343 344 342 343 345 347 347 346 344 345 344 345 345 344 345 343 343 343 344 341 342 342 341 342 343 342 342 340 340 342 341 341 339 340 339 338 337 336 335 334
341 344 343 342 341 344 344 346 347 346 346 345 346 343 345 345 344 344 342 339 339 338 340 341 340 342 341 341 342 341 340 341 340 339 340 339 339 339 338 341 340 340 337
343 343 343 339 338 342 344 346 347 347 346 347 346 345 346 342 342 344 344 340 342 342 340 339 341 342 341 341 341 341 340 340 340 340 340 339 340 339 340 339 340 338 333
343 343 343 341 340 345 342 344 345 346 345 347 346 348 344 347 346 344 343 342 343 343 339 339 340 341 339 340 341 342 342 341 341 341 340 340 340 340 341 340 336 334 334
343 342 342 340 339 344 343 342 342 345 346 347 346 350 343 346 346 345 342 342 342 341 342 341 339 342 338 340 341 339 337 338 339 339 341 341 340 340 341 341 341 338 332
341 340 340 340 339 342 343 342 345 345 346 347 348 349 346 347 342 345 342 344 344 343 340 338 338 342 338 338 337 337 336 338 341 341 340 340 340 339 342 341 341 342 341
341 340 340 341 340 338 341 340 342 345 346 345 347 347 346 348 341 346 347 346 344 342 338 338 341 340 337 340 339 339 340 342 341 340 339 341 341 339 341 340 342 342 341
341 341 341 341 340 337 341 337 341 346 344 346 347 346 347 346 346 344 343 346 345 344 338 340 341 341 339 340 338 340 339 340 341 342 342 341 340 341 341 341 341 339 337
342 341 341 341 341 338 342 339 345 346 347 348 346 347 349 344 348 347 340 341 342 347 340 338 342 344 340 342 339 341 339 344 343 343 344 344 342 341 341 341 343 343 341

GFSSE_850_thetae_063.txt.gz
Theta_e
338 340 338 337 334 334 330 330 334 334 330 327 326 328 330 331 330 329 329 329 330 330 335 339 335 337 340 337 339 339 337 337 340 342 341 336 332 332 338 340 337 331 335
339 340 337 337 336 339 330 331 338 333 328 330 332 332 336 334 330 331 330 328 328 328 328 331 336 336 336 337 337 337 340 341 342 342 344 336 333 332 337 337 339 336 334
339 337 338 335 338 341 337 337 339 333 330 333 332 335 337 338 338 329 332 337 327 342 340 329 333 333 335 336 337 338 340 337 339 339 336 334 338 339 335 337 338 324 319
337 338 336 336 338 340 341 339 339 331 334 332 334 339 338 339 335 339 337 338 334 332 340 331 329 333 337 337 338 341 341 337 337 337 333 339 338 336 327 331 337 336 337
339 338 337 337 341 340 338 339 335 339 337 337 340 340 337 337 333 340 336 338 337 329 329 341 328 331 335 339 343 344 343 340 336 333 334 334 336 327 341 333 332 336 335
337 338 338 340 340 341 339 332 332 340 337 340 339 337 340 339 335 336 338 339 334 333 329 333 332 332 337 343 344 344 344 340 336 336 337 339 334 330 329 326 338 328 319
337 338 339 340 335 331 334 341 337 340 336 341 338 339 338 337 339 341 340 336 339 339 328 331 336 340 343 343 343 342 342 342 337 337 336 333 339 338 336 334 338 327 326
338 339 340 338 332 342 340 338 339 340 339 339 337 338 336 339 338 340 338 334 338 328 329 334 338 340 342 342 341 341 340 339 334 333 331 333 334 335 333 338 326 328 329
340 340 334 334 343 336 341 341 338 337 337 337 337 335 334 334 336 338 337 332 330 327 332 337 340 343 342 340 339 337 336 333 332 332 332 334 338 339 329 328 336 333 337
340 336 332 338 338 341 340 338 337 336 332 329 334 332 332 335 335 337 336 333 330 328 337 341 343 343 341 342 343 341 340 339 334 333 333 332 332 329 331 333 330 329 327
335 332 335 335 338 339 337 338 336 332 327 332 334 336 336 336 336 336 335 335 332 329 333 340 343 343 342 343 342 342 341 336 333 333 333 332 332 338 339 334 331 336 328
331 332 332 334 335 336 336 336 333 327 335 336 337 338 338 338 336 336 335 334 331 330 335 340 341 342 342 341 342 338 336 331 332 332 331 331 331 331 329 332 333 332 331
329 331 335 333 335 337 337 333 329 338 336 335 335 337 338 337 338 337 339 336 335 337 338 339 340 341 341 342 342 340 338 331 328 329 328 328 329 333 330 330 331 330 328
331 330 331 333 336 337 334 334 331 341 342 339 337 338 340 340 337 339 341 339 340 339 339 340 342 342 341 342 342 342 339 334 330 328 327 325 325 325 326 327 327 327 326
331 331 330 333 335 336 333 338 341 341 342 343 341 342 342 343 343 342 343 340 340 339 338 339 342 342 341 342 342 342 339 339 336 332 328 328 329 328 323 323 324 325 326
331 331 333 334 335 334 333 337 340 341 342 344 342 343 344 342 343 344 343 342 341 339 341 341 341 342 342 341 341 342 340 341 341 340 339 338 333 330 328 327 325 324 324
334 335 335 337 335 336 338 341 342 343 342 343 343 342 344 343 343 343 343 342 342 339 341 341 342 342 342 342 341 341 340 341 341 341 341 341 340 338 335 332 333 332 332
341 342 340 339 336 340 342 344 345 344 345 344 342 342 344 345 345 343 343 343 341 341 340 342 341 342 341 341 341 341 341 341 340 341 339 339 338 336 337 336 335 334 333
340 341 342 339 343 342 343 344 346 346 345 344 344 343 344 345 344 343 342 343 341 341 340 341 340 341 342 341 342 342 341 341 340 339 338 339 339 339 338 340 340 338 330
341 341 343 341 340 342 343 344 345 346 346 344 345 344 346 344 342 343 342 342 342 340 340 340 341 341 341 341 341 341 340 340 340 340 340 339 339 340 340 339 338 337 332
342 342 344 341 340 343 344 344 344 346 345 346 346 345 344 342 342 343 342 340 343 343 340 339 340 341 340 341 341 341 341 340 340 340 341 340 339 340 341 340 332 332 333
343 342 344 340 339 341 343 342 342 344 346 346 346 345 345 345 345 343 343 341 342 342 338 338 339 341 339 340 340 340 338 339 339 339 339 340 340 340 340 341 341 339 331
343 342 343 341 340 339 342 342 342 345 347 346 346 346 347 346 344 343 344 342 342 341 341 340 340 341 339 338 340 339 337 337 340 340 340 339 340 339 341 340 341 341 340
344 343 342 342 339 339 341 342 341 341 345 344 346 346 345 347 343 342 340 342 343 342 339 339 338 341 337 336 337 339 339 340 341 340 340 340 341 339 341 340 340 339 339
344 344 343 341 340 339 338 343 342 340 342 343 345 346 347 345 346 346 346 346 342 341 342 338 338 341 336 339 339 341 339 340 341 342 342 341 340 340 340 341 341 339 337
345 343 342 340 340 340 339 338 341 340 341 343 345 346 347 344 346 345 345 341 344 345 342 338 340 341 339 339 339 339 339 342 343 343 344 342 342 341 341 342 343 342 342

GFSSE_850_thetae_066.txt.gz
Theta_e
338 337 338 335 333 332 328 328 328 328 327 326 325 326 328 329 329 329 328 328 328 333 343 334 337 339 338 340 341 336 337 339 343 340 333 331 336 340 337 330 337 330 338
338 337 337 335 333 329 330 335 334 330 328 328 329 331 332 331 330 330 330 329 329 330 339 343 337 340 340 337 337 341 342 343 342 341 339 331 334 334 338 337 330 338 335
339 337 337 335 335 329 331 337 333 329 331 331 333 337 341 340 330 333 335 327 339 335 330 339 339 338 341 339 340 340 340 342 341 339 336 339 338 336 335 331 321 328 335
339 337 337 337 339 337 335 339 333 331 332 336 340 338 338 335 336 338 340 330 341 342 333 333 339 340 339 338 341 341 337 337 336 333 339 336 336 328 337 335 337 322 317
338 337 335 341 341 341 338 338 333 334 334 335 339 338 338 337 339 339 340 339 330 332 340 336 337 340 337 339 342 341 338 336 332 334 336 332 336 339 331 332 336 326 326
337 335 336 339 340 337 338 336 336 338 340 340 337 339 335 333 335 336 338 336 333 329 338 338 339 335 340 342 343 343 338 335 336 337 339 329 332 326 333 338 322 319 338
337 336 337 340 339 338 331 333 339 338 337 340 335 338 337 337 339 338 338 339 340 329 337 336 335 338 342 343 342 341 340 336 337 336 331 335 337 335 334 338 326 324 324
337 337 340 339 331 331 336 339 341 337 340 335 338 333 336 339 340 340 339 339 332 336 336 336 340 342 342 342 340 339 338 334 333 332 335 333 336 335 337 326 329 329 327
338 339 340 331 337 341 338 341 342 340 337 336 335 336 335 340 340 340 336 338 334 332 334 336 341 340 340 337 336 335 333 333 332 331 331 335 339 331 328 335 334 338 329
339 340 335 338 342 336 344 342 341 337 335 337 335 332 333 340 339 337 336 337 331 332 338 340 341 340 340 341 339 338 337 333 333 333 335 338 330 329 331 329 328 328 327
340 336 331 339 337 339 340 340 340 331 328 330 330 332 334 334 337 336 338 337 330 338 341 342 342 341 342 341 339 338 335 333 334 333 331 329 335 337 333 330 335 328 330
339 332 335 336 336 338 338 340 332 327 332 334 336 336 336 335 336 336 335 333 330 332 340 341 341 342 341 341 339 336 332 331 332 332 331 331 334 330 328 334 330 333 327
331 331 333 336 335 336 337 333 326 335 335 336 337 337 336 335 335 335 334 332 332 337 340 341 340 341 341 342 340 339 333 328 330 330 327 328 330 330 328 330 329 328 330
329 330 332 334 335 335 336 330 332 334 334 334 336 336 337 338 340 340 339 338 338 338 339 340 341 341 339 341 341 339 334 330 328 327 325 325 325 326 326 327 327 326 327
329 330 331 333 336 336 333 330 339 335 337 336 337 340 340 338 339 341 340 340 339 339 339 341 341 341 341 342 341 339 337 336 333 330 329 328 329 325 323 324 324 327 326
331 330 330 334 336 335 333 334 338 342 343 339 341 341 340 343 342 343 342 341 341 340 338 340 341 341 342 342 341 340 340 340 339 339 339 336 333 330 328 326 325 325 325
330 330 330 334 336 334 335 340 340 341 341 342 341 340 343 343 342 341 342 341 340 341 341 341 341 342 341 341 341 341 341 340 341 340 341 339 338 337 334 333 334 334 334
330 330 332 334 335 333 334 340 340 341 341 342 341 341 343 343 343 342 343 342 339 340 341 341 340 341 341 342 341 341 341 340 341 339 337 338 337 337 337 335 336 336 334
333 333 334 335 334 335 336 341 342 343 344 343 342 342 343 343 344 341 343 342 340 339 341 340 340 341 341 341 342 341 340 341 339 338 339 339 339 339 338 337 338 334 327
339 340 336 335 334 339 342 343 344 344 344 344 344 344 344 344 343 343 340 343 340 339 339 340 341 341 341 341 341 340 339 340 340 340 339 339 339 340 340 336 335 334 333
340 341 341 338 341 341 342 343 344 344 345 344 345 345 343 342 341 343 342 340 339 339 339 339 340 340 340 340 340 339 339 340 339 339 340 340 340 339 340 341 336 331 329
342 340 341 341 341 340 341 342 343 342 344 345 345 345 343 345 344 342 343 340 342 342 339 339 339 338 338 339 337 339 337 336 337 339 339 339 340 340 339 341 341 338 331
343 342 341 342 340 339 340 343 343 342 344 345 346 344 348 344 343 343 343 344 342 342 339 337 340 339 339 336 338 340 338 337 338 339 340 338 340 339 340 340 340 340 337
343 343 342 341 341 339 342 343 342 339 341 344 344 343 347 345 344 343 343 343 342 341 340 339 340 341 338 336 336 337 340 341 341 341 340 339 339 339 340 339 338 337 336
344 344 343 341 342 340 341 343 343 340 340 342 343 345 346 344 342 343 341 341 343 342 340 339 339 340 337 337 338 339 340 339 343 343 343 341 339 340 340 340 339 338 338
344 344 344 342 342 341 339 342 343 342 339 342 343 342 344 346 345 343 346 343 342 342 340 338 337 340 339 336 339 338 338 342 342 342 343 342 341 341 342 342 342 342 342

GFSSE_850_thetae_069.txt.gz
Theta_e
340 338 337 334 330 332 335 335 332 329 327 326 326 327 328 329 329 329 329 330 340 343 334 338 340 344 346 345 342 341 343 342 339 332 336 340 338 330 336 329 341 341 339
339 338 340 335 331 328 328 329 329 327 327 328 330 333 331 330 331 330 330 330 332 340 341 337 340 341 342 338 341 341 343 343 339 335 336 335 337 338 327 339 340 338 338
337 336 336 336 330 331 335 333 328 328 330 332 341 344 340 332 336 338 328 339 335 331 337 338 338 340 339 340 341 342 343 340 333 336 341 344 340 335 320 325 334 327 319
337 336 333 336 328 329 337 333 329 331 334 340 342 344 338 339 340 341 333 342 342 335 338 339 339 339 338 340 340 337 337 335 333 338 343 341 342 337 336 329 318 319 323
336 336 334 338 333 332 338 335 330 333 334 338 340 340 341 339 339 340 340 331 337 339 336 336 338 337 338 342 340 337 335 332 333 334 326 341 341 331 336 327 322 336 338
337 336 337 340 341 340 337 338 334 336 341 338 340 336 335 337 335 338 336 339 333 340 336 337 336 338 342 343 341 336 335 336 336 335 337 328 331 339 334 322 325 339 333
337 335 340 340 339 338 336 331 338 338 340 337 340 336 336 338 338 338 339 340 330 337 337 334 335 341 342 343 341 338 336 337 335 332 340 342 339 337 331 327 324 326 328
335 339 342 341 342 335 335 335 339 336 340 336 334 338 339 340 339 338 339 332 330 335 336 339 341 342 342 340 339 338 334 334 333 336 339 340 336 335 326 328 328 326 336
335 338 342 337 331 333 339 338 339 339 334 335 334 336 339 340 339 337 338 329 330 335 337 342 341 340 337 336 334 332 333 332 331 333 341 342 333 329 335 335 339 328 327
338 339 337 330 342 343 341 342 340 336 338 331 334 335 341 340 339 335 336 331 332 336 338 340 339 340 339 337 336 336 333 334 340 340 341 335 330 331 330 329 328 329 331
339 340 333 344 337 342 342 341 337 337 335 335 332 335 336 338 336 342 334 331 338 340 341 341 341 341 338 337 335 332 332 335 340 339 340 334 338 337 331 335 329 327 325
342 340 332 342 338 340 343 342 332 327 329 331 334 335 336 335 334 341 336 329 338 341 340 341 341 341 341 341 338 331 329 331 335 337 340 336 333 329 335 331 334 328 327
340 333 335 336 341 341 344 334 326 332 334 336 336 335 336 335 333 333 330 330 336 340 341 341 341 341 341 341 340 335 329 329 331 337 332 334 332 329 330 330 329 328 335
335 332 335 336 339 337 335 328 333 334 336 337 337 336 336 338 338 337 336 337 338 339 340 341 341 339 341 341 340 336 330 329 333 334 332 326 337 327 327 327 327 326 328
330 332 333 335 336 336 333 327 334 333 335 336 337 337 338 340 341 341 340 339 339 339 340 341 341 341 341 341 339 337 336 334 331 331 337 329 328 325 323 324 325 327 325
329 330 332 334 336 336 331 335 334 335 335 337 340 341 340 339 342 342 341 339 339 338 340 340 341 341 342 341 340 339 340 339 339 339 337 336 333 330 329 327 328 328 329
330 331 332 335 336 335 332 334 341 342 339 340 342 341 341 341 341 342 342 341 340 339 339 340 341 341 341 340 341 341 340 341 340 340 339 338 337 336 335 334 334 334 333
333 331 331 335 336 333 336 336 340 341 342 341 340 340 342 342 341 342 341 340 340 341 341 340 341 341 341 341 341 341 341 340 339 338 338 339 338 339 338 338 338 331 327
333 330 330 333 335 332 338 340 340 341 342 342 341 341 342 342 343 341 343 342 340 340 341 339 341 341 341 341 342 341 340 339 339 339 339 339 339 339 337 336 335 329 329
331 330 331 333 335 332 337 340 342 343 344 343 343 343 343 343 343 342 342 341 340 340 340 340 340 341 340 340 340 339 338 338 339 340 340 340 339 339 340 334 331 331 329
332 331 333 333 334 334 335 341 342 342 343 343 344 344 344 343 342 343 341 342 341 338 339 341 340 339 338 340 339 339 338 338 338 339 339 339 340 340 339 341 339 330 329
336 337 336 335 335 337 340 341 342 343 344 344 344 345 342 344 342 343 341 339 340 339 338 339 339 339 338 336 337 338 340 338 338 339 339 339 339 339 340 340 340 335 331
340 339 341 339 338 339 340 341 343 343 344 344 344 343 345 344 344 343 343 340 341 342 339 338 339 340 339 335 336 339 341 341 341 340 339 338 339 339 339 339 339 337 335
343 341 340 341 341 340 341 341 343 343 344 344 342 344 347 345 345 344 343 343 342 342 340 338 338 339 339 337 337 337 340 340 343 343 341 338 338 339 339 338 337 336 337
343 343 342 341 341 341 338 340 343 344 341 343 343 343 345 344 342 343 342 343 342 342 341 340 338 339 338 336 337 339 339 340 342 345 344 343 340 339 339 338 338 338 338
343 343 343 343 342 341 341 339 341 343 341 341 343 343 345 346 342 342 343 341 343 342 343 339 338 339 338 336 335 339 339 343 345 345 346 344 342 342 342 342 342 342 342

GFSSE_850_thetae_072.txt.gz
Theta_e
347 344 340 343 342 340 340 339 336 330 328 327 327 328 329 329 329 329 329 333 340 333 340 342 344 344 345 343 342 342 339 332 336 339 336 332 334 329 342 343 344 344 339
347 345 338 333 334 334 341 328 327 327 328 332 336 333 330 332 330 329 330 333 341 341 337 340 342 341 339 341 342 342 340 337 333 338 336 339 328 338 339 339 340 329 321
345 345 337 329 328 329 332 330 329 338 342 345 345 341 332 339 338 331 340 332 333 338 338 338 339 339 340 341 342 342 336 334 340 341 344 343 330 323 334 334 319 318 322
345 345 346 330 332 336 332 330 332 339 343 345 343 338 338 339 339 336 342 342 332 337 338 338 339 339 341 338 338 336 334 338 341 344 340 343 343 336 320 319 323 328 329
346 347 343 330 331 337 337 331 333 338 339 342 340 340 339 339 340 340 332 337 335 337 337 338 339 340 341 338 336 334 335 336 335 345 344 342 343 337 321 335 341 334 335
346 347 338 337 332 338 337 332 335 340 339 341 335 335 339 338 338 336 338 333 339 336 336 339 338 341 341 339 335 335 336 342 342 342 340 344 342 327 322 339 339 327 336
346 347 345 341 343 338 339 343 342 340 339 340 337 337 338 338 337 338 339 330 338 340 336 336 341 342 343 340 337 337 337 342 343 345 346 346 339 326 327 325 326 336 336
345 347 347 341 339 336 332 341 337 339 338 337 340 340 340 338 338 337 332 330 334 333 335 340 342 342 341 340 335 334 334 344 342 347 344 344 333 329 331 327 326 336 335
346 348 349 348 341 337 337 341 338 338 336 335 337 340 340 337 336 338 328 332 335 340 341 341 340 339 336 334 332 332 332 341 344 346 346 340 333 336 335 340 326 334 335
346 349 347 344 345 348 345 340 339 334 335 337 336 339 339 336 336 336 331 333 335 340 339 339 339 337 336 336 334 332 339 343 344 344 341 335 333 331 330 327 336 334 325
348 347 342 346 349 345 346 341 338 341 337 333 340 340 345 344 345 344 335 338 341 341 340 341 338 336 336 332 330 336 343 342 341 340 342 339 337 333 336 331 327 325 325
347 345 343 348 347 349 351 347 345 345 344 344 345 346 345 346 347 343 340 340 340 340 341 341 341 344 346 346 342 341 341 341 340 341 339 335 330 338 333 336 330 331 329
346 343 346 347 348 349 348 344 343 344 345 346 346 346 346 346 344 343 345 346 344 346 347 346 347 347 348 345 342 340 340 340 340 339 332 332 330 330 330 329 327 329 330
346 344 346 348 348 351 346 343 345 345 345 345 346 345 346 344 344 345 345 346 346 345 345 346 347 348 347 347 343 341 340 340 340 339 328 335 334 326 328 335 326 326 325
344 345 346 347 349 351 346 344 345 345 345 345 345 347 347 346 347 346 346 346 345 345 345 347 347 348 347 347 346 345 343 343 342 341 340 329 326 324 324 324 325 326 326
342 345 346 347 348 349 346 346 346 346 346 346 346 346 342 347 346 346 346 346 346 346 346 347 348 347 345 345 346 345 345 345 345 345 344 340 334 331 330 331 332 333 334
341 344 346 347 347 346 346 344 346 346 346 347 348 344 344 348 343 343 348 346 346 344 341 345 348 347 344 345 346 346 344 345 344 345 344 345 344 338 335 334 335 333 331
342 344 345 345 347 346 345 346 347 348 348 349 348 347 341 342 341 342 346 345 347 347 346 346 347 345 344 345 345 344 344 343 345 346 344 345 344 345 343 337 329 325 323
344 344 345 346 347 346 344 345 348 347 349 349 349 348 342 343 345 342 347 343 346 347 346 345 346 345 344 344 343 344 344 343 345 343 345 345 344 344 343 337 331 330 326
345 343 344 345 347 345 345 347 348 348 348 350 350 351 343 346 343 341 346 343 346 345 345 346 346 345 345 344 342 342 342 342 343 343 343 343 344 345 343 344 344 341 327
345 342 343 345 346 343 346 346 348 348 348 349 350 346 344 346 341 341 347 343 347 345 345 344 343 344 342 342 342 340 340 342 341 341 342 342 343 344 344 344 344 343 342
344 341 343 343 345 339 344 346 347 348 348 350 350 347 348 344 341 341 346 346 344 344 342 340 347 342 342 342 341 341 340 342 341 340 341 341 342 342 342 343 343 344 343
345 342 340 341 344 337 345 346 348 350 349 344 350 349 348 345 344 345 341 347 341 343 343 340 341 342 341 341 338 342 342 341 343 341 342 340 342 341 342 342 343 343 336
344 345 344 339 345 340 342 347 350 348 347 348 349 350 350 346 343 343 342 340 341 347 347 341 344 344 342 339 341 343 341 344 344 342 340 340 341 341 341 341 341 342 340
345 345 346 346 340 348 341 345 349 347 347 349 350 349 351 342 343 346 343 343 342 348 343 348 341 339 341 339 340 343 343 347 348 345 341 340 340 341 341 342 343 343 346
345 347 347 348 341 341 344 340 343 350 350 347 349 348 346 348 347 346 342 342 342 348 342 343 348 339 347 342 342 343 345 347 346 345 343 343 343 344 343 344 345 346 348

GFSSE_850_thetae_075.txt.gz
Theta_e
349 344 344 343 341 341 340 340 337 331 328 327 328 329 330 330 329 329 333 337 332 339 343 344 343 342 342 342 339 332 335 337 333 332 331 330 340 343 345 346 343 343 337
348 346 344 342 341 340 339 333 327 327 330 335 333 331 337 330 330 330 334 340 338 338 340 342 339 341 341 342 341 336 333 338 340 340 332 337 340 340 343 337 321 328 339
348 345 340 338 337 340 329 329 338 342 344 344 340 333 342 335 336 339 331 334 338 338 338 338 339 341 342 342 339 333 339 341 342 342 338 335 329 334 321 318 322 329 338
344 343 342 328 330 340 331 332 340 343 345 344 339 340 341 337 338 342 341 331 337 337 338 340 339 341 339 340 336 336 338 342 342 344 343 343 337 321 327 333 332 337 338
344 345 336 333 336 342 332 335 342 340 343 341 340 338 338 339 338 332 340 334 337 337 338 339 341 338 338 337 333 336 333 344 343 342 345 344 339 330 341 341 334 338 338
348 349 330 331 337 342 334 334 340 339 340 335 334 338 337 338 338 338 338 336 338 338 338 339 341 341 337 334 335 338 342 344 339 343 344 340 326 329 339 333 332 336 327
349 349 340 331 338 339 341 340 341 339 339 339 337 338 338 340 338 338 334 340 338 338 337 341 342 343 337 336 336 337 341 345 343 344 343 341 327 325 326 333 336 337 329
346 349 346 343 338 337 342 341 340 338 337 339 340 340 337 338 338 338 334 337 334 336 340 342 342 341 338 333 334 338 343 346 344 345 343 338 333 332 326 329 334 330 329
349 347 349 348 341 333 339 340 340 336 335 337 339 339 335 338 329 332 339 338 341 341 342 341 339 335 333 332 332 340 342 345 344 344 341 341 336 336 337 327 339 334 341
348 347 348 347 346 349 345 340 336 334 335 336 339 336 336 335 336 336 336 340 339 339 338 337 335 334 335 332 338 341 340 343 346 341 342 335 333 330 328 340 332 325 331
346 345 343 345 348 349 348 339 340 331 333 339 344 345 347 345 346 345 338 340 339 340 337 334 334 331 328 332 341 343 344 342 341 343 341 335 333 336 331 326 325 325 325
345 341 344 348 348 349 347 347 344 346 346 346 346 343 348 347 345 344 341 340 341 340 341 341 346 345 347 344 341 342 340 340 342 343 335 329 337 331 335 331 332 334 327
342 342 349 347 348 349 345 344 344 342 342 343 345 346 340 345 345 344 341 344 346 346 347 347 346 347 346 342 339 338 340 340 341 342 329 327 328 328 327 326 327 327 326
343 343 346 346 349 346 344 345 345 345 343 344 345 344 344 344 344 345 347 345 346 346 346 345 347 345 344 344 341 340 340 339 340 340 326 332 324 324 327 324 324 324 324
342 343 346 348 347 347 345 344 346 343 346 344 345 347 346 346 345 345 346 346 345 345 345 345 348 344 345 345 344 343 342 342 341 342 332 327 325 324 324 325 327 328 331
342 344 346 348 351 347 347 348 343 347 343 345 345 348 349 345 347 346 346 346 346 347 347 347 347 346 344 344 345 345 345 344 345 345 345 340 333 333 334 334 334 333 333
342 345 345 348 348 348 347 346 346 344 347 346 348 350 348 347 348 346 344 346 346 343 345 348 346 345 345 345 345 346 344 345 344 344 345 346 345 340 336 335 330 327 321
341 345 345 345 347 346 346 347 347 346 347 347 347 348 350 346 344 348 346 345 345 347 346 346 346 345 346 344 344 344 343 343 344 345 343 346 347 349 344 329 325 323 321
342 345 346 346 347 346 347 347 347 347 348 348 347 349 349 350 348 349 346 347 348 345 346 345 345 344 344 346 344 344 345 344 346 343 343 345 342 345 347 329 331 323 322
345 345 346 346 348 347 347 348 347 346 349 348 349 348 346 348 345 348 349 345 348 344 344 347 346 346 346 344 343 344 344 342 341 342 344 344 345 346 344 345 347 335 326
346 345 346 347 349 347 347 346 347 348 349 348 349 351 344 351 344 346 348 342 347 346 346 346 343 343 344 342 344 343 341 342 342 340 342 342 343 345 344 344 346 346 339
347 345 345 347 349 348 348 347 346 347 347 347 350 351 352 351 347 349 349 345 345 347 348 348 346 344 342 344 345 344 341 341 340 341 341 341 343 343 343 345 344 345 347
347 344 345 347 349 348 347 348 349 347 350 349 351 349 351 348 350 352 349 348 343 345 343 347 344 347 343 340 341 346 347 342 342 343 342 342 343 343 342 342 344 345 347
346 342 345 347 349 348 348 346 349 347 347 346 348 349 350 351 352 351 349 350 343 347 347 342 343 347 344 340 341 342 342 345 351 340 340 341 341 343 342 342 343 344 347
345 344 347 350 350 348 347 348 349 348 348 347 349 351 351 351 351 351 351 350 347 343 344 349 347 345 343 342 342 343 342 344 344 348 340 340 341 341 342 344 344 344 348
344 344 348 352 351 352 351 345 352 351 349 349 346 352 350 349 350 352 351 350 347 351 345 347 349 341 349 343 346 343 346 348 348 343 342 344 343 344 344 345 346 347 348

GFSSE_850_thetae_078.txt.gz
Theta_e
347 344 342 343 341 342 342 341 333 329 327 327 329 330 330 328 329 337 335 335 339 342 342 341 340 340 339 333 332 330 330 333 329 326 336 342 343 344 343 343 338 337 334
347 344 342 340 341 340 339 329 327 328 333 334 331 338 330 329 332 342 340 335 337 340 341 338 340 340 340 332 336 337 341 339 334 331 338 339 342 342 334 324 336 335 325
349 344 342 340 340 333 328 328 338 343 342 338 335 341 333 338 336 331 338 338 337 339 340 339 340 341 338 332 336 339 342 341 337 340 332 332 329 318 321 328 336 338 326
348 347 339 337 338 330 331 337 342 344 343 339 340 340 336 340 341 337 335 338 337 339 340 339 339 339 336 333 337 341 342 343 343 344 342 330 331 337 334 338 339 339 328
345 344 328 331 338 330 338 342 341 342 340 340 339 338 339 336 334 338 336 339 340 340 339 341 340 338 333 335 334 342 341 343 346 344 342 338 341 341 335 339 338 333 337
347 336 334 336 341 333 336 340 339 340 337 335 339 338 341 340 338 337 339 336 339 338 338 340 339 337 334 333 342 342 337 340 344 339 341 327 339 334 329 335 330 337 332
348 334 333 338 338 338 337 341 339 340 338 336 338 338 338 339 338 340 338 339 338 338 339 341 340 335 335 335 342 344 345 343 342 341 329 327 325 328 336 337 332 337 337
348 345 332 338 339 341 342 340 338 337 338 339 338 335 337 337 337 338 337 334 335 340 342 342 340 334 332 333 342 344 345 346 343 339 331 334 331 325 333 333 330 329 326
349 349 345 341 335 336 339 338 336 334 336 339 335 333 329 330 337 337 336 335 340 342 341 340 336 331 330 335 342 343 345 342 340 342 334 330 338 328 331 335 335 340 328
348 347 347 342 344 340 339 336 333 332 335 336 335 339 336 333 335 338 341 340 339 336 334 333 333 331 332 337 340 341 343 343 340 335 330 333 327 330 339 325 324 325 331
348 349 346 348 347 347 336 335 330 333 341 344 345 345 347 344 343 343 339 339 336 332 332 327 328 330 337 341 342 343 345 344 345 336 331 332 331 329 325 324 325 325 326
347 344 346 350 347 348 340 342 341 344 344 347 349 345 345 345 340 338 339 339 340 341 346 345 345 342 342 343 341 341 340 343 342 334 327 334 329 332 329 329 335 328 325
344 348 348 346 348 346 343 344 343 345 344 343 345 345 342 339 338 339 342 346 344 346 346 347 344 346 347 344 340 339 340 341 340 323 324 326 326 326 325 326 326 325 324
342 347 346 348 344 346 347 346 345 346 341 342 343 343 347 348 347 345 345 348 346 344 336 347 343 344 343 342 341 342 341 341 341 327 324 322 323 324 324 324 324 325 327
346 348 347 342 346 344 345 345 344 344 344 341 346 346 347 344 345 348 347 346 344 347 346 346 346 344 343 344 343 342 341 343 343 343 337 329 326 326 327 329 331 332 335
340 347 347 344 345 346 347 341 345 345 345 345 345 347 347 345 343 343 346 348 347 345 348 345 344 346 346 341 342 343 345 342 346 346 346 341 339 334 334 332 331 328 325
341 347 348 342 345 347 348 346 342 346 346 344 347 349 345 346 348 346 346 345 345 345 346 348 348 345 345 344 344 342 344 343 341 345 347 347 347 346 332 322 320 319 318
341 347 344 349 344 348 343 347 346 345 348 347 349 347 345 342 347 342 349 345 341 344 348 342 347 345 346 344 344 345 344 343 342 343 344 348 347 347 345 322 321 320 319
344 346 343 347 347 347 340 348 347 346 346 347 347 350 349 346 346 349 348 342 345 348 348 345 343 345 346 346 345 344 344 345 345 343 342 345 345 347 345 338 330 325 324
344 345 345 347 347 346 343 349 346 350 347 348 348 347 350 350 342 349 346 343 341 347 346 345 347 344 345 344 345 344 345 344 343 344 344 346 342 344 345 334 345 343 332
345 345 346 347 348 345 345 347 347 348 348 349 348 351 349 345 342 347 349 342 350 348 341 344 343 342 346 344 345 343 341 339 340 341 343 344 343 346 343 345 348 346 345
347 345 346 348 347 345 343 346 347 347 348 347 349 351 351 348 341 348 342 344 349 348 342 346 348 344 343 343 345 345 343 342 342 341 342 341 345 343 343 345 341 343 348
347 345 346 347 349 346 347 347 350 347 349 348 347 350 348 349 343 350 347 346 345 346 336 339 345 345 342 339 342 345 346 348 341 341 341 343 342 343 343 340 345 337 347
347 347 346 347 348 344 348 346 346 349 348 347 347 351 350 346 346 346 349 347 345 348 344 342 345 343 340 341 341 340 340 344 348 342 342 337 343 341 342 343 343 344 346
347 346 345 345 348 343 347 347 347 345 347 349 350 350 350 350 348 349 345 346 342 343 342 341 345 345 343 345 342 344 344 346 346 348 341 342 343 342 342 345 345 345 348
347 342 344 345 347 346 342 346 347 348 347 346 349 343 349 347 347 346 349 348 342 341 350 339 346 339 344 343 344 346 347 346 349 350 342 341 343 343 344 345 346 347 349

GFSSE_850_thetae_081.txt.gz
Theta_e
343 343 343 343 342 343 342 334 328 326 328 330 329 328 327 328 337 332 336 339 342 341 339 339 337 330 332 329 331 330 326 327 335 341 342 342 340 339 336 336 330 333 339
343 343 344 340 340 339 330 327 328 334 334 333 333 330 329 335 339 337 336 338 341 337 338 339 338 330 333 334 337 337 334 333 333 337 340 337 332 323 332 334 324 335 338
343 340 340 340 338 329 328 335 341 340 336 336 339 336 338 332 334 339 337 338 340 339 341 340 336 333 336 340 342 340 340 338 339 330 324 318 320 326 333 336 327 338 339
343 341 340 337 329 334 340 340 341 340 338 338 338 339 340 340 334 337 338 336 339 340 341 338 334 335 341 341 342 343 343 341 344 339 324 332 332 336 338 341 334 327 332
342 340 337 333 329 332 339 338 340 338 338 335 336 338 336 338 335 335 336 340 338 340 341 338 333 335 340 341 342 344 345 343 342 340 330 340 332 340 339 331 337 325 325
335 329 335 332 330 338 337 337 338 337 337 337 340 339 339 337 338 338 338 338 337 339 338 335 333 330 343 343 340 343 342 343 342 338 330 333 328 332 334 330 336 324 325
330 333 337 336 331 335 338 337 337 337 336 337 339 340 339 337 337 338 338 336 337 340 340 335 334 339 340 342 338 340 341 340 331 327 325 325 334 335 334 330 337 324 323
334 334 337 340 338 339 338 337 335 336 338 337 336 336 337 338 338 338 335 336 340 341 342 334 332 334 340 342 343 342 344 335 329 328 327 323 331 335 329 331 326 330 325
333 329 335 336 336 338 336 334 331 337 337 332 331 331 335 335 335 332 333 338 341 341 339 331 330 333 341 343 344 343 342 339 332 328 332 331 325 336 329 339 336 328 326
342 338 334 330 335 337 334 329 331 337 332 333 332 331 334 334 335 333 340 340 336 333 332 330 331 333 339 341 342 343 342 341 331 329 326 325 334 336 324 325 325 337 327
345 343 340 342 339 333 328 329 336 338 340 343 344 341 339 339 339 339 336 333 328 327 329 331 340 341 342 342 343 345 344 344 338 329 328 327 326 325 325 325 325 325 324
349 348 346 345 338 335 340 335 342 343 345 343 341 341 337 338 338 337 336 342 343 342 336 335 339 341 341 342 343 343 344 343 333 326 329 327 331 328 328 332 327 325 324
348 348 348 344 340 341 343 343 343 343 344 343 343 341 338 339 339 340 339 344 342 341 343 343 343 345 344 339 339 344 343 341 330 322 323 324 324 324 324 324 324 324 325
347 346 344 345 343 346 347 345 344 340 342 342 342 344 342 341 340 344 346 347 339 335 342 339 343 345 342 341 342 341 341 341 340 333 324 322 323 324 325 326 327 329 330
347 346 343 341 346 348 346 344 343 342 342 343 345 346 345 345 343 342 344 344 344 344 343 343 343 346 341 341 342 344 343 345 344 345 339 335 333 333 332 332 331 331 328
346 346 343 343 345 344 345 345 344 344 341 344 344 345 344 346 345 342 346 344 342 342 344 344 343 345 342 341 339 340 343 343 343 345 346 346 345 330 327 327 324 321 319
347 346 344 344 344 345 345 343 345 345 345 345 341 343 345 343 343 345 345 345 343 346 342 344 345 345 342 342 341 344 341 341 342 344 344 345 347 345 321 320 319 318 318
347 347 344 341 344 346 343 343 346 344 346 346 346 344 342 343 344 345 344 343 344 346 341 343 345 346 343 344 344 345 343 340 342 343 342 342 345 345 327 324 321 321 323
346 344 344 342 342 342 346 345 346 345 346 345 345 345 347 341 344 344 345 343 346 346 344 344 345 346 345 344 346 344 343 344 344 343 340 343 341 341 338 339 335 329 333
343 345 346 347 344 338 346 347 345 346 344 346 345 345 345 342 347 345 342 346 346 347 345 343 345 344 343 344 344 345 345 344 345 343 344 344 345 344 341 340 343 339 341
342 341 348 347 346 340 345 348 346 345 345 346 345 345 343 343 348 346 342 342 342 346 344 344 344 345 345 344 344 344 343 343 340 342 344 343 345 344 341 344 339 341 345
343 341 346 346 346 345 340 348 348 346 347 347 346 346 345 344 344 347 341 346 342 344 346 343 344 343 344 342 344 344 343 340 340 341 343 343 344 344 344 341 333 341 346
343 344 344 347 347 346 337 347 350 347 347 347 346 345 349 347 344 347 345 345 346 341 344 344 345 344 341 341 343 344 344 345 341 340 341 342 342 343 343 339 343 345 348
345 346 340 344 347 345 343 346 349 346 348 344 346 347 347 346 343 345 342 345 346 344 336 345 344 343 339 340 341 341 343 346 343 341 342 341 343 342 341 343 344 346 347
347 346 346 341 344 343 346 347 347 347 348 347 345 351 350 346 347 347 346 347 346 346 341 346 344 342 342 344 344 343 344 347 348 349 341 340 342 341 343 345 344 345 348
346 346 346 345 342 341 346 346 347 347 346 348 349 347 349 343 346 346 347 346 342 343 341 340 345 342 343 343 345 347 346 346 348 349 343 341 342 342 344 345 345 347 349

GFSSE_850_thetae_084.txt.gz
Theta_e
342 343 342 342 341 342 335 328 326 329 330 329 328 328 331 331 336 337 339 339 339 339 338 331 332 330 328 324 322 326 331 336 338 339 334 338 339 338 329 330 338 339 334
343 343 342 342 342 334 327 328 335 332 336 331 329 332 340 336 335 337 338 339 336 339 336 330 329 334 332 328 337 336 336 338 340 329 323 322 333 334 324 335 337 340 329
343 341 340 339 335 327 332 340 338 335 338 335 336 330 337 341 338 339 339 337 340 339 335 333 337 339 339 339 338 339 337 330 325 318 320 324 333 336 327 336 340 337 334
342 340 339 334 328 339 341 341 339 338 337 339 340 341 334 337 338 338 339 339 341 339 334 335 339 341 342 342 341 343 344 340 327 326 328 334 338 340 337 326 330 338 337
339 340 333 329 334 338 338 339 338 336 333 334 336 339 337 338 339 336 339 339 339 338 334 339 340 341 343 344 344 344 342 340 329 335 333 337 339 333 333 327 325 327 340
340 336 330 328 336 338 337 336 335 334 338 337 336 337 335 338 338 339 337 337 338 336 332 335 338 339 342 343 343 343 341 342 335 333 329 329 332 328 338 325 324 325 329
332 334 329 331 336 336 336 334 334 336 337 337 338 335 339 339 338 336 335 338 338 334 332 331 340 340 339 339 340 342 339 329 327 325 326 333 335 328 340 328 324 323 323
332 335 333 330 337 337 336 334 335 337 338 335 336 340 337 338 339 337 336 339 340 334 333 333 338 341 341 341 342 341 337 327 326 323 326 335 332 328 326 327 336 324 324
332 335 336 336 337 336 333 333 337 335 333 333 334 333 336 337 334 335 340 341 341 334 332 334 337 341 342 341 341 340 335 329 327 331 323 329 338 333 338 330 326 325 325
330 332 331 335 335 332 329 334 335 328 327 326 333 334 332 332 332 339 341 339 332 330 330 333 340 342 344 342 342 342 342 333 329 325 326 334 337 324 326 326 328 326 325
334 331 332 336 330 327 330 335 332 338 339 334 333 337 338 337 339 336 332 331 331 331 332 335 340 341 342 343 343 344 343 339 330 328 325 324 324 324 324 324 324 323 322
336 342 342 332 332 327 334 339 342 344 343 341 336 339 338 337 333 331 329 329 329 336 341 341 341 341 342 343 343 344 342 331 326 328 326 328 325 325 325 325 324 324 324
344 345 337 339 339 336 338 339 342 339 342 342 337 337 338 337 338 343 341 342 339 338 341 344 345 345 344 344 344 344 341 329 324 322 322 323 323 323 323 324 325 326 327
346 344 337 339 343 343 342 340 339 341 343 343 341 338 338 338 338 342 345 340 341 341 343 344 340 338 340 342 341 343 340 341 337 331 327 326 326 327 328 328 330 329 328
346 345 344 343 344 346 343 343 340 342 341 343 344 342 339 340 342 342 341 343 341 340 342 344 343 340 342 342 342 341 343 344 345 344 343 339 332 331 330 329 327 325 323
345 345 344 346 347 345 344 343 342 342 343 344 345 344 345 343 340 343 343 343 343 343 344 342 344 343 344 341 341 342 342 342 343 344 344 346 338 321 322 320 319 318 319
345 344 344 347 344 344 345 344 342 341 344 345 345 344 345 345 342 344 343 342 342 343 343 344 344 342 342 342 342 341 341 339 341 342 343 345 336 321 320 319 319 320 321
344 344 342 341 344 344 344 345 345 343 344 344 342 345 344 342 344 345 344 342 341 342 344 344 344 343 341 340 343 342 340 339 342 341 342 343 333 331 330 323 325 327 330
345 344 342 342 344 343 343 345 344 344 344 343 342 341 342 343 343 344 344 345 344 344 344 344 344 344 343 344 344 344 343 341 343 342 344 342 340 334 336 331 334 340 342
346 344 342 342 343 342 343 344 344 345 345 344 344 345 342 343 343 343 342 342 344 345 344 344 345 343 343 344 344 345 344 344 345 343 344 344 344 340 337 335 341 343 345
344 344 344 343 342 338 343 344 345 345 344 344 344 344 342 340 344 342 342 343 345 345 345 344 345 345 344 344 344 344 343 344 345 344 344 343 344 343 339 336 337 344 344
344 343 343 346 344 337 344 346 346 345 344 345 346 344 342 342 346 345 339 341 340 344 343 344 344 343 343 343 345 343 341 340 340 341 343 343 343 343 341 336 342 347 347
342 341 341 344 345 345 337 345 347 347 347 345 345 344 346 344 343 347 342 345 343 344 344 344 344 343 341 341 341 345 344 341 341 341 341 343 342 342 341 341 345 346 346
342 341 342 344 345 346 343 345 348 347 346 345 344 346 345 346 344 345 344 345 342 342 344 345 344 344 338 339 341 342 343 343 341 340 341 342 341 342 341 343 344 347 348
341 342 341 343 344 345 341 344 347 349 347 345 346 347 347 346 344 347 344 341 345 343 337 345 344 343 341 343 344 343 348 348 348 349 341 341 342 342 342 344 344 345 348
342 344 345 342 340 341 341 345 347 348 347 346 346 346 348 344 345 345 342 344 345 344 344 345 341 342 343 343 345 347 346 348 348 349 345 341 342 342 344 344 345 347 349

GFSSE_850_thetae_087.txt.gz
Theta_e
342 343 341 341 342 342 333 327 327 329 329 329 330 329 336 337 337 337 338 339 341 340 338 335 324 325 326 325 324 328 333 337 336 337 340 339 330 330 338 339 336 333 340
342 342 342 343 339 329 327 330 332 339 329 328 337 335 334 335 336 339 339 338 339 331 337 330 330 324 336 336 338 340 340 333 326 333 336 338 325 333 338 340 333 327 340
342 342 343 340 329 329 338 337 340 337 330 329 338 339 335 335 337 338 337 340 339 331 330 336 334 331 336 330 330 329 330 325 321 322 332 335 328 334 340 339 336 327 333
341 341 339 331 335 341 342 337 340 341 340 339 332 336 338 338 337 338 338 340 339 333 337 339 340 340 339 341 341 338 329 321 325 326 333 338 340 331 328 336 338 339 330
339 338 333 335 341 341 339 340 336 336 337 340 338 334 338 336 339 337 338 339 338 334 336 341 342 343 343 343 341 340 335 329 336 331 336 337 330 333 324 332 336 341 339
339 335 332 336 338 339 338 337 339 335 337 340 339 336 338 338 338 338 338 339 338 335 341 341 341 342 343 343 341 340 341 332 336 330 332 329 338 337 324 327 326 333 335
335 329 329 337 336 337 335 337 336 338 338 337 340 337 338 339 337 336 338 336 334 333 336 340 340 340 339 340 340 338 330 330 327 328 332 329 334 339 323 323 323 324 325
332 329 330 335 336 336 333 339 336 339 339 337 338 338 337 337 340 336 338 335 333 332 335 339 339 339 341 340 340 336 327 325 323 331 335 327 329 325 330 325 324 324 325
334 331 330 337 336 333 334 337 336 334 333 335 340 338 339 339 335 337 339 338 333 331 336 338 341 340 340 339 337 333 331 332 329 324 331 337 336 336 328 325 325 324 324
336 335 336 336 335 329 335 336 328 326 327 331 333 335 339 333 339 342 341 339 332 333 337 339 340 341 341 340 341 341 335 329 326 326 331 326 326 327 327 326 326 325 326
335 333 336 335 329 329 335 329 333 330 330 332 333 336 331 337 340 339 334 332 330 331 336 340 342 343 342 343 343 342 339 330 329 326 324 323 323 324 324 323 322 322 323
332 331 335 329 327 332 333 338 343 338 335 338 338 337 339 336 331 330 331 331 331 331 339 341 341 342 342 342 342 341 335 326 328 327 326 326 324 325 324 324 324 324 325
338 337 332 328 329 337 340 342 340 341 338 338 338 336 333 332 331 332 330 337 339 338 339 340 341 342 343 343 343 339 335 325 323 323 323 323 323 324 324 325 326 327 327
342 334 338 334 335 339 342 340 339 337 338 337 338 337 337 342 339 340 340 337 340 342 343 345 344 340 341 342 340 341 342 341 336 334 330 330 329 329 329 329 329 327 326
338 337 342 341 341 340 339 341 340 342 341 340 338 338 338 340 342 340 339 340 341 342 343 340 340 342 342 341 340 342 343 344 344 344 342 330 329 328 327 325 324 321 320
341 337 342 344 345 343 342 340 341 340 341 343 342 340 340 341 341 342 343 342 340 342 340 342 342 343 340 340 341 341 342 342 343 344 345 336 320 320 319 319 319 319 319
343 341 342 344 344 344 344 342 342 342 342 343 343 344 342 340 341 343 342 342 343 342 341 344 343 341 342 342 342 342 342 340 343 343 344 334 324 321 320 320 321 323 327
344 341 344 344 344 344 344 343 341 342 344 344 343 344 343 342 342 343 342 341 342 344 343 344 343 341 342 342 342 341 340 340 342 342 343 337 336 336 327 327 331 337 341
344 342 343 343 343 344 344 344 343 342 345 343 341 343 343 342 343 344 343 342 341 341 343 343 343 341 342 343 344 343 343 343 343 342 343 341 335 336 335 339 341 342 342
342 342 344 343 343 343 344 344 344 343 343 343 343 343 342 341 342 343 343 343 343 344 344 343 343 342 343 343 343 344 344 343 344 343 343 344 342 339 336 341 343 344 343
343 343 343 343 343 342 341 344 343 343 344 344 344 344 343 341 342 344 342 341 345 344 343 344 344 343 343 343 344 341 342 343 343 343 343 344 344 342 338 336 341 343 346
345 343 342 342 342 341 339 341 342 343 345 344 344 344 344 340 341 342 342 342 344 344 344 342 344 343 342 342 344 344 340 340 340 340 342 342 343 342 341 340 346 346 346
344 343 343 343 342 341 337 342 344 345 346 343 346 344 341 343 342 344 341 341 341 342 344 344 343 343 341 341 341 342 344 342 341 341 340 341 340 340 341 344 346 346 348
343 343 343 345 344 344 339 343 343 343 345 344 345 345 346 345 340 345 344 343 344 345 343 342 344 343 340 339 340 342 344 343 341 339 340 340 338 340 342 343 343 346 348
342 342 341 342 344 344 344 337 344 345 345 346 344 345 344 345 341 344 341 344 344 339 341 344 343 344 341 343 343 342 348 348 346 347 341 340 340 340 342 343 344 346 349
344 343 341 342 344 344 344 338 343 347 346 347 345 345 346 346 344 344 343 341 341 341 340 342 344 343 342 343 345 345 348 348 347 348 341 340 341 341 344 344 345 346 349

GFSSE_850_thetae_090.txt.gz
Theta_e
341 341 335 334 340 341 332 330 333 333 330 332 337 338 338 336 339 339 340 340 339 338 329 327 328 328 326 324 329 335 333 336 340 339 331 329 336 338 338 331 340 340 341
341 339 342 343 337 327 327 329 330 329 329 336 330 336 336 338 339 340 341 344 338 339 325 323 326 335 336 339 341 340 339 339 337 339 331 331 340 339 336 326 339 340 340
341 341 343 335 327 330 334 341 339 330 328 339 338 337 337 338 338 339 340 338 336 336 338 329 337 335 335 337 335 334 321 321 329 334 331 330 341 341 339 334 329 339 339
340 342 339 327 336 340 337 339 340 340 335 335 339 337 335 337 337 337 340 338 338 338 338 334 335 332 333 333 331 320 323 325 330 336 339 339 327 334 339 339 335 333 340
341 339 330 338 340 340 339 338 339 339 340 336 334 337 336 338 336 339 340 339 340 340 340 341 340 341 341 340 337 330 331 334 332 335 334 333 327 326 331 341 341 341 338
338 333 337 340 339 338 338 341 335 338 338 339 339 339 337 336 337 340 339 339 338 340 341 341 342 343 340 339 338 338 333 335 331 333 329 341 329 324 326 331 334 335 336
336 331 335 337 337 337 338 337 338 337 337 336 335 338 337 338 340 341 342 340 339 339 339 340 339 339 338 338 336 329 330 328 328 331 327 338 335 323 323 323 324 326 325
329 330 339 341 341 338 337 337 339 337 337 339 338 339 338 339 339 337 342 341 334 336 338 338 339 340 340 338 332 326 325 324 331 333 326 329 326 336 325 324 324 325 326
329 331 340 342 338 338 337 340 340 337 337 338 337 336 338 340 338 338 342 343 331 337 337 339 340 339 339 337 333 330 330 329 324 330 336 334 337 332 326 325 325 324 325
331 331 337 336 333 334 338 339 337 335 334 338 337 339 339 337 339 340 338 340 331 335 338 339 340 340 340 340 341 336 330 328 326 330 328 326 333 327 327 325 324 325 326
336 335 337 335 329 335 329 334 331 334 333 336 339 337 335 341 342 341 338 334 333 335 338 340 341 341 341 339 339 334 330 329 327 326 325 324 324 324 323 323 323 324 325
333 336 335 330 330 332 338 337 331 332 334 335 333 335 339 339 336 331 331 329 331 337 340 341 342 342 342 339 339 334 326 325 327 325 326 325 326 325 324 324 325 325 326
331 336 330 327 333 333 342 342 336 339 338 337 338 336 330 328 330 331 332 332 336 339 340 341 342 342 342 342 341 339 332 325 324 324 324 324 324 325 326 327 327 327 327
335 332 328 331 337 341 340 340 337 337 337 336 332 332 332 337 334 335 338 339 340 341 343 341 338 342 342 341 342 343 342 342 341 333 330 329 329 329 329 329 328 325 323
335 336 332 337 339 341 340 339 337 336 337 337 335 340 340 341 339 339 340 340 341 343 342 338 341 342 339 339 341 343 343 344 344 344 339 325 327 326 324 322 321 320 320
336 339 340 338 340 340 340 340 341 341 340 339 338 339 341 341 341 341 340 340 341 342 342 340 342 341 341 341 342 342 342 342 343 344 339 323 321 320 319 319 319 321 325
337 341 343 343 339 341 340 341 339 341 342 343 342 341 340 340 343 343 342 341 341 340 341 342 341 341 341 342 341 340 341 340 342 343 338 336 331 323 323 324 328 333 340
338 339 343 344 342 342 343 341 340 340 342 343 343 343 341 342 342 342 342 341 341 342 341 343 342 341 341 342 342 342 341 341 342 342 342 340 338 334 333 337 340 341 342
342 341 343 345 344 344 343 341 341 342 343 342 342 343 342 341 342 343 341 342 342 342 342 343 343 342 341 342 343 344 343 343 343 343 342 340 337 338 341 341 342 343 343
344 341 343 343 343 344 343 343 342 342 345 343 341 342 343 341 342 343 342 342 342 343 343 343 342 342 342 343 343 343 343 343 342 343 343 343 341 339 340 342 344 344 345
345 342 343 343 343 343 343 343 343 342 343 343 343 345 343 340 340 342 341 342 345 343 343 344 343 342 343 342 342 341 339 339 341 342 343 343 343 342 338 338 343 345 346
344 342 344 343 342 342 341 341 342 343 344 344 345 343 344 341 340 342 341 342 343 343 343 342 344 343 342 341 343 342 340 339 340 341 341 341 341 341 341 344 345 346 348
344 343 342 342 342 342 341 341 342 342 343 344 343 345 344 342 340 342 340 341 341 343 343 342 342 342 342 339 340 342 344 342 340 340 340 340 338 342 344 345 346 347 349
344 343 342 342 343 342 338 340 342 342 343 343 345 345 342 344 341 343 341 342 343 341 342 342 342 342 341 340 342 343 344 345 343 339 339 338 337 341 343 343 345 347 349
344 344 342 342 343 341 339 340 342 342 345 345 345 345 345 345 343 343 344 341 343 342 343 342 342 344 341 342 344 343 346 347 347 347 342 338 337 339 342 343 345 347 349
345 344 343 343 344 343 343 341 336 342 344 345 345 344 344 344 342 342 343 341 344 342 338 338 343 343 342 342 344 345 347 347 346 347 345 341 341 341 343 343 344 346 348

GFSSE_850_thetae_093.txt.gz
Theta_e
341 339 337 337 340 339 338 340 335 329 331 338 338 337 336 338 338 338 339 340 333 330 332 329 325 324 325 334 335 337 340 340 333 328 337 338 338 332 337 342 344 343 340
339 334 336 342 336 327 327 329 329 329 332 329 333 334 335 337 338 341 340 341 331 324 324 332 334 339 340 340 339 338 339 339 340 327 341 340 340 327 333 341 342 340 339
336 342 342 332 327 331 335 342 330 328 338 337 336 336 337 337 339 340 340 337 342 327 334 335 338 339 339 340 325 321 323 333 334 328 337 345 341 340 328 339 339 340 340
339 342 332 328 338 337 339 338 336 330 337 338 336 335 336 337 338 339 336 339 336 332 331 331 328 330 333 321 322 327 327 332 340 341 341 340 342 341 340 331 338 339 339
341 338 328 338 338 338 340 340 339 339 332 338 337 337 337 338 340 340 337 337 338 339 337 337 341 339 338 336 330 334 331 333 336 329 336 331 342 338 342 343 340 340 340
339 331 337 336 337 344 342 337 336 338 339 334 337 337 339 339 340 340 337 338 339 341 340 340 340 338 337 335 336 333 331 330 330 337 341 327 336 326 334 335 335 334 334
334 343 341 337 337 336 336 335 337 339 338 339 337 337 337 339 340 339 338 339 338 339 339 339 338 337 336 334 328 327 326 331 331 329 341 333 325 323 323 325 326 327 339
333 337 339 338 338 335 337 338 337 337 337 336 339 338 340 340 341 341 339 338 337 338 338 339 337 337 333 329 327 325 325 332 332 328 328 333 340 325 324 324 325 327 338
330 341 342 340 338 339 338 339 338 337 338 338 339 338 339 339 339 340 339 335 337 338 339 339 340 339 337 334 330 329 328 325 331 334 339 341 333 328 326 326 325 326 327
331 342 342 340 340 339 339 337 333 336 338 337 336 339 337 339 339 340 339 332 336 338 339 340 340 340 340 338 333 330 328 326 330 330 326 336 328 336 324 323 323 324 326
332 339 342 332 335 338 338 338 338 334 339 338 339 337 340 340 341 342 340 332 334 338 340 341 341 339 338 338 333 328 328 328 327 329 336 325 325 324 324 324 325 325 326
334 338 336 329 335 339 339 336 336 337 336 338 333 338 340 340 340 339 331 332 337 339 341 341 341 342 342 340 338 328 324 325 325 326 325 325 326 326 325 325 326 327 327
334 336 330 331 333 341 336 336 336 334 333 334 338 337 335 331 330 329 331 336 339 340 341 341 341 341 341 341 341 337 333 331 327 326 326 326 326 328 327 328 327 326 325
335 331 327 333 335 342 340 338 338 337 338 336 330 329 330 331 334 335 336 338 340 342 339 339 341 341 340 342 342 342 342 342 341 333 329 329 329 329 328 326 323 321 321
333 328 330 337 340 339 338 337 338 337 334 332 333 337 338 336 338 339 340 341 343 340 337 342 341 339 339 340 342 342 343 343 344 340 327 324 325 323 321 320 320 321 325
333 330 338 339 339 339 337 338 338 337 336 339 340 341 340 339 339 340 340 342 342 340 339 340 341 341 341 342 342 341 341 343 343 338 331 324 321 320 321 323 327 334 340
336 335 337 339 339 339 340 341 341 341 339 338 340 340 340 341 342 340 341 340 341 340 340 341 341 341 341 340 340 340 340 341 342 340 337 336 329 327 330 336 341 341 341
339 340 339 340 340 340 340 340 340 343 343 343 341 340 340 342 342 342 342 341 341 340 342 342 341 341 342 342 343 343 343 342 342 341 338 337 337 339 340 341 341 342 343
339 342 343 341 342 342 341 341 340 342 343 342 343 343 342 342 342 342 341 342 342 342 342 342 341 340 341 342 343 343 343 343 343 343 342 339 338 341 342 343 343 343 343
338 339 343 344 344 345 343 340 341 343 343 340 341 342 341 342 342 343 342 341 342 343 342 341 340 341 342 343 341 340 340 341 343 343 343 341 339 340 342 342 343 344 344
343 341 341 345 344 344 343 342 341 342 343 343 342 344 343 340 341 342 342 343 344 343 342 343 342 342 342 342 340 340 339 340 341 342 342 341 339 338 338 342 346 347 348
344 343 342 343 343 343 343 343 343 342 343 343 344 344 344 340 340 342 340 340 343 343 342 343 343 342 341 341 340 340 344 342 339 340 341 341 340 340 342 344 347 348 349
344 344 342 342 341 341 342 343 344 343 344 344 344 344 344 344 340 341 340 341 343 343 343 342 342 342 340 340 341 343 347 344 340 338 339 340 340 342 343 346 347 348 349
343 344 342 342 341 342 342 343 343 341 342 344 343 345 342 342 341 341 340 340 341 340 342 342 342 342 340 341 342 342 346 346 348 344 339 337 341 343 344 344 345 347 349
342 344 343 342 342 343 343 340 341 342 343 344 344 345 344 345 344 341 343 342 343 343 343 342 342 343 341 343 344 344 347 347 346 347 344 342 337 341 342 343 345 347 349
342 344 343 342 342 343 343 339 341 343 343 345 344 344 345 343 344 341 344 341 344 341 340 340 341 342 342 342 344 346 347 349 348 349 349 345 340 341 343 344 345 346 348

GFSSE_850_thetae_096.txt.gz
Theta_e
346 344 334 336 339 340 340 337 331 337 339 339 338 337 339 340 339 339 337 330 336 339 332 329 332 336 336 338 339 340 336 327 338 339 339 334 333 341 343 346 345 344 341
346 345 336 342 340 330 327 329 330 329 330 335 334 335 337 340 341 338 335 324 324 331 336 338 340 340 340 339 337 339 341 328 341 342 342 339 329 341 340 341 342 340 338
345 346 344 335 327 331 343 332 328 335 334 332 334 335 337 339 340 337 339 331 338 340 337 339 339 340 332 320 322 336 334 329 334 343 346 346 341 334 339 340 340 339 339
348 349 342 329 334 339 337 334 330 338 338 336 335 336 338 338 337 332 337 338 337 339 330 330 333 323 322 327 326 331 335 339 341 341 341 344 345 336 335 339 340 340 340
349 343 338 340 338 339 339 339 338 333 338 336 335 336 337 339 338 339 338 339 336 335 341 340 339 340 335 332 333 330 335 332 343 340 342 344 346 344 344 344 341 339 340
345 347 342 340 342 342 338 335 339 338 336 337 337 337 338 339 338 339 339 341 340 340 340 337 337 334 333 334 330 328 330 336 346 344 340 340 340 335 333 334 336 337 337
344 346 347 340 338 337 336 336 337 338 337 336 338 338 339 340 340 338 338 339 339 338 337 336 335 333 331 327 326 329 332 336 344 343 341 340 335 325 326 326 335 338 338
344 346 347 337 337 337 339 337 337 337 337 338 338 339 340 340 340 339 339 338 338 338 336 335 333 330 329 327 325 327 333 342 342 341 344 342 327 325 325 326 329 338 338
343 346 346 346 340 338 339 337 338 338 337 338 339 340 340 340 340 337 334 337 338 338 339 339 336 336 333 329 328 326 327 339 342 344 346 342 332 325 325 326 326 327 328
346 348 345 346 347 347 345 335 337 337 339 338 339 338 338 340 340 332 334 338 339 339 341 340 338 336 331 330 329 328 332 339 341 340 340 333 333 323 323 323 325 326 326
345 346 343 343 346 342 346 337 339 338 338 338 339 339 347 349 346 345 338 336 338 340 341 339 339 338 336 331 328 332 338 338 339 339 336 325 325 324 325 325 325 326 326
345 344 341 344 344 345 341 348 345 346 347 347 347 350 350 348 347 343 334 338 340 341 341 341 342 343 346 346 343 341 336 338 338 338 330 325 328 327 326 327 327 326 325
345 343 342 345 347 344 343 342 345 345 344 346 348 349 348 345 344 343 343 345 344 345 346 346 346 346 345 346 346 344 343 340 339 339 329 327 327 328 328 327 324 323 322
345 342 343 345 347 346 344 342 343 343 344 345 344 343 345 344 345 345 345 345 346 345 346 348 346 341 345 348 347 345 343 340 340 339 330 328 326 325 323 321 321 322 327
343 340 343 346 347 347 346 344 344 345 343 341 344 345 345 346 347 347 348 346 345 346 347 348 346 345 345 346 346 346 344 341 340 338 335 321 320 320 320 322 328 337 341
342 341 345 346 345 347 346 347 346 344 343 343 345 345 346 346 347 347 348 347 345 345 346 346 346 345 344 344 345 345 343 341 342 341 338 326 322 324 329 337 342 342 341
342 342 345 346 346 346 346 346 346 344 344 345 346 340 340 347 340 347 348 347 346 344 346 346 346 345 343 342 344 345 343 343 343 344 343 342 337 337 341 342 342 342 343
342 343 345 344 346 347 347 347 348 348 347 346 346 346 342 342 342 347 347 347 347 347 347 346 345 343 343 343 345 345 344 343 345 345 344 347 348 347 343 342 342 342 344
345 345 346 346 346 347 344 347 348 347 349 348 348 347 342 343 342 348 348 348 347 347 347 345 345 346 345 344 344 344 344 344 345 343 345 348 346 348 348 342 342 343 344
346 347 347 348 348 347 347 346 348 348 349 348 349 348 341 347 342 347 347 347 349 348 347 346 346 346 346 346 343 343 343 344 345 345 345 346 347 348 347 344 350 348 346
346 347 349 349 348 346 348 348 348 348 348 347 349 342 341 346 342 342 348 345 347 349 346 349 346 348 344 342 344 343 341 343 344 345 344 346 346 346 347 349 351 352 351
348 347 348 350 345 345 349 349 349 348 349 349 349 346 347 343 340 345 347 348 348 348 348 345 344 346 344 344 344 345 342 341 342 342 343 344 346 344 346 349 351 350 351
349 350 350 350 348 344 349 348 343 349 349 349 349 349 347 344 346 344 341 349 344 348 348 347 347 344 344 346 342 348 344 343 342 341 343 343 346 345 346 348 349 350 349
349 351 351 350 349 343 341 348 344 344 346 347 350 350 350 345 348 346 342 341 342 348 349 346 348 347 346 347 347 350 347 349 345 342 341 342 344 345 346 346 347 349 351
348 350 351 349 346 348 342 347 346 344 347 347 350 348 351 345 347 348 342 340 341 347 345 351 345 345 347 349 346 350 353 352 352 346 342 341 342 343 345 346 347 348 351
349 350 350 348 341 342 342 341 344 349 347 344 347 350 351 351 350 347 347 340 343 347 343 346 344 343 349 346 350 351 350 350 349 348 346 345 343 344 345 346 348 349 350

GFSSE_850_thetae_099.txt.gz
Theta_e
345 335 331 337 340 339 337 334 339 340 340 340 338 339 338 339 339 332 338 338 337 328 328 332 335 338 340 341 338 328 340 340 339 333 331 341 343 345 345 346 346 344 339
345 342 339 340 338 335 332 331 331 334 337 336 340 338 340 340 337 325 325 325 326 334 340 341 339 341 341 339 341 330 340 342 345 344 339 339 340 341 343 342 341 340 338
346 346 344 331 327 333 337 330 334 335 332 337 339 339 340 339 340 330 337 340 336 338 339 339 340 323 322 334 333 330 336 342 344 347 345 343 342 340 339 339 339 339 339
347 347 343 331 339 340 333 329 336 336 334 335 338 338 338 339 338 339 334 339 335 332 334 326 323 327 329 336 335 338 339 338 342 346 347 346 343 338 341 341 340 340 339
347 344 337 339 339 340 339 336 334 337 335 335 337 336 339 339 338 338 336 335 340 340 339 340 339 336 334 331 335 334 344 342 339 344 344 346 343 344 343 343 341 340 341
346 347 338 339 340 340 338 338 333 338 337 337 336 338 339 337 338 341 340 340 340 338 337 338 336 336 333 328 330 336 344 343 343 341 341 340 340 334 335 337 337 337 336
346 345 345 341 339 339 336 337 336 336 337 338 338 339 340 339 338 339 339 339 338 336 336 334 336 331 325 327 332 332 343 344 341 344 341 341 333 326 330 340 340 338 338
347 346 345 338 337 338 337 338 338 338 337 338 338 339 340 339 339 338 338 338 336 336 336 332 329 328 326 325 330 336 341 343 342 344 342 338 326 325 326 331 336 331 328
346 346 345 345 338 338 337 338 337 338 338 339 340 341 340 338 337 336 338 337 339 339 336 335 332 329 327 326 327 336 340 339 344 343 343 339 324 324 325 326 327 327 326
344 345 345 347 348 345 345 337 338 338 337 337 338 338 339 336 333 336 338 339 340 338 336 331 328 326 327 327 328 337 341 341 340 339 339 326 324 324 324 325 325 325 325
345 343 346 345 346 344 343 338 337 338 337 338 340 344 346 348 345 347 341 338 340 339 339 340 336 331 339 337 337 337 339 340 339 338 335 325 325 325 325 325 326 326 325
342 341 344 345 345 347 341 347 347 348 348 347 348 348 349 348 345 342 337 339 340 340 342 343 342 342 345 346 343 339 338 339 339 337 327 326 326 326 326 325 324 323 323
342 340 346 346 342 341 345 344 347 346 345 346 347 346 345 344 344 343 340 342 343 347 348 345 348 346 344 345 342 340 340 340 339 339 327 326 326 325 323 322 322 324 330
342 341 346 345 345 342 342 344 344 344 345 349 348 347 346 343 345 345 345 344 346 345 345 346 344 348 344 346 343 342 340 340 339 339 325 324 323 321 321 324 332 339 342
341 341 347 347 345 346 343 343 345 344 344 345 347 347 345 347 346 345 345 346 344 347 347 345 344 346 346 346 342 342 341 341 339 336 321 320 321 323 329 339 342 342 341
341 342 347 347 348 346 346 346 345 344 343 345 345 347 348 347 348 346 345 346 344 346 347 345 348 344 344 342 344 344 341 341 343 338 335 326 328 336 342 342 342 342 343
342 344 346 347 347 347 345 346 345 344 345 345 347 349 348 348 350 347 344 346 345 343 347 347 345 343 341 340 344 345 343 344 345 346 343 343 342 342 342 342 341 342 343
342 345 345 345 345 347 348 346 346 346 346 347 346 348 349 349 349 348 347 346 346 347 344 345 343 343 343 343 344 345 344 343 346 347 347 348 349 348 341 341 342 343 344
344 345 345 346 345 346 346 349 346 347 346 346 346 347 350 350 351 347 347 346 347 346 345 343 343 345 344 343 344 344 345 344 347 345 349 350 348 351 349 341 343 344 345
346 346 345 345 346 348 347 347 347 348 347 348 348 349 348 350 350 348 348 347 347 347 346 348 348 344 345 346 344 343 344 344 346 346 348 349 349 350 346 351 352 350 347
346 347 347 348 348 348 347 346 347 347 347 347 348 347 351 350 350 347 348 346 348 349 348 347 348 346 343 342 349 343 342 345 346 346 347 348 348 345 348 351 351 354 353
345 347 347 349 349 347 348 349 347 348 347 347 349 349 351 350 350 349 350 348 350 348 350 350 348 349 342 344 346 346 342 343 343 344 345 346 348 345 347 349 351 353 352
346 346 348 349 348 351 351 348 350 350 350 350 350 349 350 351 350 353 347 353 345 351 349 347 345 348 346 343 345 351 348 345 343 344 344 346 347 345 346 349 349 350 353
348 349 350 349 352 350 349 348 346 346 345 348 349 350 351 351 350 350 351 351 349 349 350 347 347 344 351 345 343 347 342 351 352 342 342 345 345 346 346 348 347 351 352
348 349 351 350 350 353 348 349 349 348 349 350 349 351 348 350 351 349 350 350 351 349 348 353 347 351 346 349 346 347 346 347 340 349 343 343 345 344 345 347 347 348 351
348 350 350 352 351 351 350 349 351 351 351 348 348 350 349 350 350 350 351 350 351 354 350 350 352 351 353 349 351 349 349 350 349 348 345 342 345 345 345 346 347 348 348

GFSSE_850_thetae_102.txt.gz
Theta_e
343 332 334 336 334 335 337 340 341 340 339 336 338 339 339 332 336 336 336 326 325 328 330 335 337 339 338 328 338 338 338 334 329 339 341 344 343 345 346 345 341 339 340
341 333 339 338 339 335 333 331 336 337 336 336 338 340 338 325 330 333 326 333 340 340 339 338 339 339 340 331 340 343 344 343 342 342 341 340 342 343 342 341 341 340 340
347 341 337 329 328 331 330 331 333 332 337 337 337 339 338 329 334 340 338 339 339 339 340 327 321 326 331 329 339 341 342 346 346 344 341 340 339 338 338 338 339 339 338
347 345 329 334 340 333 330 337 337 335 337 338 338 339 339 338 334 338 336 336 332 328 324 325 329 331 333 336 336 339 341 345 346 346 344 339 341 341 340 340 339 338 338
346 342 336 339 340 340 332 339 339 337 337 338 338 339 339 339 337 338 336 339 339 339 339 337 333 330 333 331 338 337 339 344 344 345 344 343 342 342 342 340 340 339 338
348 335 337 338 338 338 337 334 338 337 337 336 339 339 338 340 340 340 340 339 336 337 337 333 338 327 329 336 343 342 341 341 341 341 339 329 333 339 336 337 336 337 336
347 337 340 338 336 334 337 335 338 338 336 337 339 340 340 339 339 338 340 337 338 334 335 335 326 326 329 331 343 339 342 343 341 335 330 326 327 338 341 342 334 334 335
347 342 335 336 335 335 337 336 336 336 336 338 339 339 338 338 338 339 337 335 334 331 328 328 326 324 328 332 340 342 345 346 343 336 326 325 325 327 332 331 327 327 327
346 345 339 338 337 337 339 338 336 335 337 339 339 338 337 337 338 336 337 335 333 333 331 328 326 325 326 334 341 339 341 342 342 344 329 323 324 325 325 326 326 325 325
346 345 345 347 344 340 337 336 337 337 338 339 338 337 334 334 337 338 340 337 336 329 326 325 325 325 325 338 341 341 341 343 338 333 324 324 324 324 324 324 324 324 324
345 347 344 343 345 341 336 337 336 337 337 338 341 342 341 335 344 344 340 339 338 338 331 326 342 342 338 336 337 340 341 339 338 330 324 324 324 324 324 325 325 324 323
346 347 346 344 345 342 342 338 345 345 346 349 347 345 349 347 346 338 339 340 341 342 344 344 342 342 340 343 340 340 338 339 339 327 325 325 325 324 324 323 323 325 329
345 347 344 343 347 343 343 347 345 347 347 345 345 346 343 339 337 338 339 345 339 343 343 345 343 343 346 345 342 340 340 339 339 326 325 324 324 323 323 326 333 340 342
342 347 345 346 342 344 346 347 346 348 344 334 346 345 346 346 344 345 345 335 345 347 341 342 343 339 340 344 341 339 340 340 340 324 322 322 322 324 331 340 342 341 341
342 348 345 344 341 344 346 344 345 346 347 342 346 346 347 344 344 347 343 344 345 344 347 344 347 347 345 342 342 341 341 339 338 328 322 323 327 337 342 342 341 341 341
342 348 344 345 345 346 345 344 344 344 346 346 347 348 346 345 343 343 346 346 346 346 345 342 339 345 342 342 345 342 341 342 339 338 338 337 341 342 341 340 340 340 341
342 347 346 343 343 346 344 346 344 344 346 345 345 346 348 346 342 344 347 346 338 345 344 346 343 341 342 343 344 343 344 344 343 344 345 346 343 339 338 339 341 344 345
344 344 345 347 345 343 342 345 344 347 343 347 345 346 346 347 347 349 347 345 347 349 346 346 345 343 343 344 346 345 344 341 345 347 348 349 350 348 337 341 343 344 345
345 343 346 343 347 346 349 347 349 345 348 348 346 347 348 348 345 347 347 341 344 348 343 345 345 343 346 344 343 344 345 346 347 347 348 350 350 352 346 349 347 348 344
345 344 347 344 345 346 347 345 348 348 346 346 347 349 344 349 351 348 350 342 342 349 347 345 344 345 346 346 346 345 345 346 346 347 350 350 346 348 346 352 353 353 351
346 344 345 344 344 344 348 348 347 346 348 349 347 350 349 345 348 347 344 346 349 348 344 340 348 345 342 343 349 343 342 344 347 346 349 349 348 350 346 351 354 353 354
346 346 342 348 344 344 346 348 348 347 348 348 348 348 344 348 342 349 350 349 346 348 339 346 350 352 342 345 349 348 343 346 346 345 347 348 348 345 348 352 347 349 353
347 346 347 347 345 341 348 348 347 347 349 349 347 350 348 348 344 347 349 348 350 349 343 344 348 349 343 340 347 351 350 348 343 343 344 347 345 346 348 347 350 348 351
345 347 348 348 346 345 349 349 348 348 345 348 347 349 349 350 348 348 348 343 349 338 344 349 347 347 348 347 343 347 341 348 348 345 345 346 348 347 348 348 349 350 346
345 346 347 347 348 348 349 349 346 343 349 350 349 347 348 350 349 349 349 348 343 348 349 347 345 345 349 349 351 346 344 349 347 347 344 343 346 347 345 347 348 351 350
348 348 351 344 348 350 347 347 349 350 349 349 346 348 349 349 348 348 348 346 346 344 343 350 346 344 348 346 350 349 348 347 348 350 349 345 345 344 345 345 346 348 349

GFSSE_850_thetae_105.txt.gz
Theta_e
337 338 338 339 339 340 340 340 339 337 338 338 338 333 337 336 333 326 325 330 332 333 334 337 333 327 335 335 336 330 332 338 339 343 341 342 343 343 343 339 339 335 335
332 334 335 335 335 332 336 338 338 337 336 339 338 326 338 337 326 332 337 338 338 335 337 335 336 328 337 343 343 342 341 341 340 339 342 343 343 343 341 338 339 337 328
333 337 333 330 328 329 329 334 338 335 335 337 337 327 329 336 337 338 338 338 338 332 320 322 329 328 339 341 343 345 344 343 344 339 337 337 340 338 338 339 339 337 337
338 329 327 335 335 328 332 333 331 335 336 337 338 336 336 338 337 337 331 326 324 323 326 325 331 329 332 341 341 344 345 344 345 338 339 339 339 339 338 337 337 336 336
335 331 338 337 330 332 336 335 334 335 336 338 338 338 335 336 334 335 337 337 336 335 332 329 331 332 335 339 340 343 343 343 342 341 340 341 341 341 340 340 340 336 336
342 335 338 338 338 333 338 337 336 336 336 338 338 339 338 337 338 340 337 337 335 335 337 327 328 333 336 342 341 341 341 341 339 332 330 336 334 335 335 338 339 336 335
336 337 337 336 337 339 336 337 336 336 337 339 337 338 339 338 338 338 333 334 336 336 334 326 328 335 341 340 341 342 341 341 330 325 326 335 341 343 339 335 336 337 338
337 335 333 338 339 338 339 338 337 338 338 339 339 338 338 338 339 335 336 337 329 328 324 325 327 331 340 339 343 344 344 339 328 325 325 326 331 335 329 326 326 326 326
334 332 335 335 336 336 336 335 335 336 338 339 338 337 337 338 339 337 336 334 331 327 326 325 327 332 339 342 343 342 342 339 330 323 323 324 325 325 325 325 325 325 325
342 344 336 334 335 335 336 334 334 337 339 338 336 336 336 336 338 337 333 327 325 325 325 325 333 338 340 340 340 344 342 339 337 324 324 324 324 324 324 324 324 324 324
345 344 342 338 335 335 335 335 337 338 337 337 333 332 336 337 339 338 336 337 330 334 341 341 334 334 338 339 340 341 341 338 336 324 323 323 323 324 324 324 324 324 326
346 346 343 339 335 335 334 335 336 340 343 344 345 343 346 341 338 340 340 340 341 342 341 341 338 341 339 337 338 338 338 339 329 324 323 324 324 323 323 326 333 338 340
346 345 344 341 340 336 339 343 342 345 344 344 340 341 343 338 339 340 341 339 339 341 345 340 342 343 344 341 340 340 339 339 332 324 323 323 324 327 334 340 342 342 341
344 343 345 344 342 343 344 344 344 341 342 340 343 342 343 342 342 342 335 337 330 339 340 343 343 343 343 342 341 341 340 339 332 322 322 325 332 339 342 341 340 340 340
345 346 344 342 344 346 345 346 348 345 341 343 345 346 344 345 343 338 335 335 342 342 340 344 341 343 343 341 340 340 340 339 335 326 328 337 341 341 339 337 337 340 342
346 344 341 341 345 346 346 346 347 344 342 346 344 346 345 345 343 343 342 342 341 343 337 339 343 342 342 342 342 340 340 341 338 342 340 341 339 336 335 338 341 343 344
344 344 340 344 345 345 345 344 344 345 347 347 346 345 345 342 339 343 341 338 342 342 343 343 345 343 342 341 343 343 342 339 344 343 346 348 335 334 340 343 344 344 345
345 343 340 342 344 344 343 347 346 346 346 344 341 343 346 341 343 343 344 343 347 349 349 348 348 343 344 345 345 345 343 342 346 346 349 349 349 340 341 344 345 342 342
345 343 344 342 341 342 345 345 346 345 346 347 346 345 344 343 346 347 346 344 344 346 344 344 345 346 344 346 345 345 344 346 346 346 348 349 350 347 346 351 351 348 343
343 344 347 342 343 342 345 347 346 346 347 346 345 347 348 348 348 344 349 343 345 345 347 344 342 346 345 345 347 344 345 346 345 347 345 346 347 346 349 352 353 353 349
340 344 344 343 341 342 346 346 345 345 347 347 347 345 345 342 345 350 346 339 345 346 343 342 345 345 343 346 343 344 345 344 346 346 349 347 349 345 347 348 349 350 352
344 345 344 343 342 342 345 347 347 347 346 348 347 346 345 346 346 350 346 343 345 344 342 345 350 348 343 344 349 343 343 345 346 346 347 348 347 344 348 346 344 343 349
340 344 343 344 344 344 347 347 347 348 347 346 348 348 347 348 344 348 346 346 345 340 338 346 347 350 343 342 346 348 349 347 346 345 345 347 347 347 348 345 348 348 350
342 340 342 342 343 340 343 347 348 346 347 346 345 347 347 347 347 345 345 340 345 334 343 348 351 347 349 348 344 346 346 345 349 343 345 347 344 347 348 346 349 350 351
346 345 341 344 345 339 346 348 345 346 344 346 347 347 347 347 348 349 348 346 343 342 340 344 349 343 348 349 348 349 347 348 347 347 347 346 343 346 345 344 347 349 349
346 346 347 344 343 345 347 348 345 345 349 348 348 347 346 348 347 347 347 348 343 341 346 343 348 345 345 345 347 347 346 344 344 345 345 338 344 346 347 347 346 347 346

GFSSE_850_thetae_108.txt.gz
Theta_e
337 338 337 338 339 338 339 338 335 337 338 336 336 336 331 324 325 328 335 336 334 333 332 328 333 334 334 331 333 338 339 342 341 341 341 341 342 342 340 338 338 333 333
338 338 338 338 338 339 338 337 336 337 340 333 337 335 336 326 328 328 329 332 335 335 333 329 335 339 340 336 337 338 338 339 343 344 344 343 343 340 338 335 328 325 325
335 334 335 334 332 331 334 336 334 335 339 330 333 336 326 338 338 339 337 335 332 327 332 329 340 343 343 343 340 342 340 341 337 338 341 340 339 339 341 341 341 341 340
335 335 334 329 329 330 334 336 336 338 338 334 332 338 337 338 338 337 338 333 320 321 327 329 340 341 342 344 345 344 343 341 337 337 336 337 338 338 336 337 337 336 336
332 327 332 335 329 332 333 331 336 336 337 337 333 338 339 338 335 334 329 329 330 329 330 330 335 340 340 343 343 343 342 342 338 338 337 338 339 340 342 340 334 335 335
331 337 336 330 331 335 334 332 334 336 337 337 337 338 336 338 339 337 336 336 333 329 329 332 336 339 339 339 339 338 337 338 332 333 334 335 338 336 340 337 340 341 335
335 337 337 335 333 336 336 334 335 337 337 337 339 338 339 339 336 336 334 337 329 327 327 332 338 342 341 340 341 341 340 329 326 328 337 340 342 338 338 338 341 341 340
336 335 334 335 334 335 336 334 338 337 337 336 338 337 338 338 333 334 329 331 325 325 327 336 341 340 341 341 340 341 339 328 325 325 327 336 342 328 327 326 327 326 327
333 332 333 335 335 337 336 335 337 339 339 337 337 338 338 334 334 332 328 326 326 325 327 329 340 339 342 343 342 340 339 336 325 323 324 325 326 325 324 324 324 324 324
334 335 334 335 337 335 335 336 337 338 338 337 336 336 334 334 331 326 327 327 326 325 326 331 337 341 343 342 342 340 338 337 326 323 323 323 324 324 323 323 324 324 324
338 335 334 334 336 334 334 337 339 339 337 335 334 336 337 337 335 336 327 326 333 329 333 338 340 340 340 341 343 341 338 337 328 323 323 323 324 324 324 324 325 327 330
343 340 337 334 335 334 337 338 337 338 335 331 335 339 340 338 338 336 334 330 334 341 340 336 336 337 338 339 340 340 339 338 324 324 324 324 324 325 329 334 337 340 341
342 338 336 334 334 334 334 338 343 344 344 345 343 342 338 338 339 339 339 339 342 337 337 341 340 339 339 339 339 338 339 339 323 323 323 324 329 336 339 340 341 340 341
342 342 341 336 339 342 339 343 344 343 340 341 340 338 338 338 339 338 334 333 339 338 340 342 344 344 343 341 340 340 339 338 321 322 326 333 340 341 340 339 339 340 341
343 342 342 341 345 344 344 342 340 343 342 342 342 343 342 337 340 336 333 340 340 342 339 341 343 342 340 340 341 339 340 337 330 332 338 341 339 337 336 339 342 343 345
345 344 343 343 344 346 345 344 342 341 342 343 345 343 344 342 340 339 339 339 340 339 339 341 343 344 342 343 339 339 339 338 341 342 338 335 333 336 340 342 343 344 344
344 343 341 341 346 345 346 344 343 344 346 342 341 344 345 341 339 340 340 342 341 339 341 343 344 344 341 342 342 342 338 340 343 343 347 338 337 341 342 342 343 344 345
343 341 340 343 346 345 346 343 345 346 343 345 341 345 344 339 341 344 343 342 335 342 346 344 345 343 343 343 343 344 343 341 344 347 348 349 341 344 349 348 342 341 341
343 340 341 343 343 345 346 343 344 345 346 345 343 341 340 342 345 345 344 343 344 343 344 345 345 346 343 345 344 344 345 346 345 345 346 348 344 345 344 352 351 348 344
342 341 340 342 344 345 345 344 346 345 346 345 344 342 343 341 347 344 342 342 345 344 344 344 346 347 345 345 346 344 344 345 345 345 346 345 346 349 350 352 350 352 347
341 343 341 341 341 344 344 345 345 346 346 345 346 344 343 346 343 344 344 342 343 344 342 346 347 343 344 346 346 345 344 345 346 346 349 347 347 344 349 346 344 348 347
342 345 341 342 341 342 344 345 345 346 347 347 345 345 345 345 345 344 339 340 344 343 341 348 347 343 343 344 348 343 342 344 345 346 346 348 347 345 347 349 350 349 351
339 344 344 341 341 342 345 345 345 344 346 347 347 347 343 345 346 348 341 341 343 341 340 348 347 346 342 344 348 349 347 346 345 346 346 347 348 348 346 348 348 349 349
341 344 344 343 341 341 342 345 346 346 345 346 342 346 345 345 346 344 346 342 345 343 341 346 346 347 348 345 347 348 347 346 346 343 344 346 345 346 347 348 345 348 348
342 341 341 341 344 342 343 344 345 346 346 346 346 345 346 346 346 344 346 340 343 337 342 345 344 344 348 348 348 346 347 347 346 347 346 345 345 345 346 345 345 346 348
342 340 340 342 343 342 339 346 345 346 345 344 345 347 346 345 347 347 347 345 343 341 346 343 342 343 345 345 346 344 344 342 344 342 343 345 341 344 346 345 344 345 345

GFSSE_850_thetae_114.txt.gz
Theta_e
337 337 338 338 339 339 340 338 336 335 337 339 335 327 335 335 332 333 338 338 335 340 340 342 336 339 339 338 341 344 339 335 336 341 343 342 341 335 339 337 338 338 335
337 339 338 338 338 338 337 337 336 335 337 330 329 329 334 336 339 338 339 335 335 339 340 336 336 339 340 343 342 343 343 342 342 343 341 341 337 340 333 332 338 338 337
337 339 340 339 340 339 339 337 336 332 332 330 324 326 334 333 334 337 340 339 337 339 340 340 335 337 338 338 341 342 344 344 343 342 341 341 341 336 329 330 326 324 323
337 338 338 338 336 336 335 336 337 330 336 332 329 334 333 338 338 337 334 338 335 340 342 343 343 339 341 340 340 336 337 338 338 338 342 341 342 340 339 339 339 340 336
336 335 334 330 330 335 332 335 335 327 333 331 336 337 339 339 339 324 322 329 338 342 340 342 343 344 342 340 341 338 337 336 336 336 336 337 335 335 336 336 333 333 336
335 334 329 330 330 334 332 335 336 332 335 335 336 335 335 332 336 340 337 338 333 337 339 339 338 339 338 338 333 334 334 335 337 337 338 337 336 337 339 341 338 335 335
330 330 336 338 336 335 336 336 337 335 336 334 336 337 337 339 335 336 336 335 334 332 338 338 339 338 339 334 330 325 325 329 335 335 333 335 340 337 335 334 333 335 340
333 335 332 339 339 338 336 336 337 338 338 338 337 338 334 338 337 336 333 334 330 332 339 340 340 339 337 337 336 330 325 325 327 332 337 327 328 329 329 330 330 335 337
337 335 336 340 339 339 339 337 336 338 337 337 337 335 334 336 339 332 328 327 329 335 341 340 342 341 339 337 337 335 332 325 323 324 325 325 324 324 324 324 324 324 325
335 333 335 337 339 337 338 338 336 337 336 336 336 336 340 338 333 326 325 326 328 339 340 339 342 341 341 339 338 337 333 325 323 323 323 323 323 323 323 324 324 325 325
335 334 334 335 336 334 338 338 337 337 336 335 333 338 327 327 326 325 325 325 328 335 339 339 342 341 341 341 340 339 336 326 323 323 323 324 324 326 328 332 335 336 337
335 334 334 335 335 337 339 338 337 335 335 335 336 334 330 325 325 327 327 332 332 335 339 340 339 339 339 339 338 338 336 327 324 324 324 325 329 335 338 339 339 339 340
334 333 334 334 334 335 338 337 336 334 335 336 337 335 334 329 334 335 337 338 336 337 338 337 337 338 338 338 339 338 334 323 323 324 328 334 337 338 338 338 339 340 341
334 333 334 332 333 337 337 336 332 332 336 336 337 337 337 338 337 336 339 338 339 340 339 339 339 340 340 339 338 338 333 323 326 332 338 338 337 337 339 342 343 344 345
334 333 333 333 336 337 341 341 339 339 339 337 335 336 337 338 337 333 335 338 336 341 342 343 343 341 340 339 338 338 335 334 337 337 335 335 337 340 341 342 343 343 343
333 333 333 333 335 341 344 342 340 340 337 338 339 337 341 340 336 336 340 340 340 340 341 342 341 341 341 338 338 341 343 343 340 334 335 338 341 342 343 344 344 344 344
338 338 339 340 341 341 340 340 340 341 340 343 342 342 341 341 339 340 341 340 340 340 342 340 340 341 341 341 340 338 342 344 346 344 338 341 342 342 342 342 343 344 345
339 342 342 342 342 342 341 340 341 343 341 341 342 344 340 339 340 339 339 338 343 341 342 342 340 341 342 343 343 340 341 344 345 345 343 346 348 348 349 348 347 345 343
339 343 343 344 344 345 344 341 342 343 342 341 343 342 339 341 341 340 338 341 341 343 343 344 344 344 343 343 344 344 344 344 344 345 344 346 345 346 347 349 350 350 345
341 342 341 345 344 344 343 342 344 344 342 342 342 342 340 341 343 339 339 337 342 343 343 344 343 343 344 344 345 345 344 344 345 344 344 344 346 348 349 349 349 347 346
342 342 341 343 345 341 343 343 343 344 345 344 342 340 340 342 345 341 340 342 343 344 345 345 344 344 344 345 344 344 344 344 345 345 345 346 347 347 346 347 347 346 347
342 342 344 344 342 342 343 343 343 342 345 344 343 342 342 340 341 343 343 342 345 343 344 346 343 342 343 344 344 343 343 343 344 345 347 347 347 346 346 346 347 348 348
343 342 343 343 342 341 342 343 343 344 345 345 345 344 345 342 342 346 341 341 344 344 340 346 344 342 343 346 346 344 343 345 344 344 344 345 345 346 344 346 345 347 345
342 341 341 343 343 342 343 342 342 342 344 344 344 343 343 342 343 345 343 342 343 342 339 342 346 343 342 344 345 345 345 345 347 345 343 343 344 344 344 344 345 345 345
341 339 340 342 341 342 342 342 343 343 344 344 345 342 344 342 343 343 344 343 344 343 338 345 345 345 345 344 343 344 344 344 345 344 344 344 344 344 344 344 343 345 344
342 340 341 339 340 341 342 342 342 343 342 345 344 344 343 344 344 343 342 343 340 342 338 344 344 343 344 345 345 344 343 342 343 342 342 342 340 342 342 343 341 340 343

GFSSE_850_thetae_117.txt.gz
Theta_e
338 338 338 338 337 337 340 339 338 337 337 333 332 332 335 335 334 337 335 337 338 340 339 339 339 338 338 342 342 338 333 338 342 342 342 337 337 338 335 336 340 340 334
336 337 339 338 336 336 337 337 334 336 332 328 329 328 335 337 337 338 333 338 340 340 339 337 341 342 342 342 343 342 343 343 342 342 341 337 340 332 335 337 338 337 333
337 337 336 336 336 338 336 336 337 333 326 324 331 337 338 337 338 339 335 338 338 340 337 335 337 338 340 340 344 344 344 343 341 341 342 344 330 330 326 325 324 325 327
338 338 338 337 337 337 336 337 333 335 336 331 329 332 336 337 338 336 339 336 339 342 343 340 339 341 340 339 339 338 337 337 339 341 346 347 343 340 339 340 339 337 335
337 338 337 335 336 336 336 337 332 335 327 336 337 339 339 338 322 322 332 338 341 341 343 344 342 339 340 339 337 337 336 335 336 338 342 343 345 339 337 333 333 335 336
337 335 333 331 335 334 335 336 331 334 333 336 333 329 328 334 338 336 337 334 340 339 339 338 339 338 333 331 332 331 332 335 337 340 342 340 344 341 340 341 334 336 335
335 333 330 333 331 333 334 336 337 336 335 336 337 337 336 336 335 336 335 330 334 337 337 339 338 334 330 326 324 325 329 334 335 333 342 343 342 337 334 333 334 341 332
330 336 337 335 337 334 337 337 337 337 336 338 338 335 338 336 334 336 339 333 334 338 339 340 336 336 336 333 326 323 324 326 332 337 328 336 330 330 331 329 333 336 328
335 332 338 338 337 336 335 337 338 337 337 338 336 334 336 338 338 337 334 329 334 339 339 341 338 337 336 332 330 328 324 323 324 325 328 334 324 324 324 324 324 324 324
337 335 342 339 339 338 337 337 337 337 338 338 335 339 341 338 328 325 326 331 336 339 339 342 340 340 339 338 339 335 327 323 323 323 323 325 324 324 324 325 326 327 328
341 339 339 338 337 336 338 338 338 338 336 338 338 336 330 327 326 326 326 327 338 338 339 341 340 339 339 339 337 336 331 325 323 323 324 325 326 328 332 336 338 339 339
340 337 336 336 335 337 338 338 338 336 333 334 331 327 326 326 326 330 328 329 336 339 339 339 338 338 338 338 338 336 332 325 324 324 326 330 333 337 338 338 339 339 339
336 336 334 336 335 338 338 338 336 334 335 335 334 330 329 336 337 337 336 336 337 339 339 337 337 339 339 339 339 337 326 324 326 329 334 337 337 338 338 340 342 344 344
334 336 335 333 335 337 338 336 334 333 336 337 335 335 335 336 337 337 338 338 337 336 337 338 339 340 339 338 337 332 326 328 333 335 337 337 338 341 343 343 344 344 344
333 334 334 333 336 338 337 332 332 334 336 337 337 338 338 338 334 333 337 337 339 340 341 342 342 340 339 339 337 337 335 336 336 335 336 339 340 341 341 343 343 344 344
332 333 333 334 337 338 338 337 337 337 336 335 337 339 338 336 336 339 339 337 338 342 342 341 340 341 339 338 341 343 343 337 335 337 340 341 342 343 344 344 345 344 344
333 333 333 335 338 343 342 340 338 337 339 340 339 341 340 336 337 340 339 339 340 339 340 340 340 341 340 338 339 342 344 345 340 340 341 341 342 343 343 343 343 343 343
333 333 333 336 341 342 341 339 340 340 343 343 342 340 340 339 339 338 339 340 341 341 342 341 340 342 342 341 339 341 344 344 343 345 348 348 347 348 349 349 346 343 342
339 338 340 340 341 340 340 340 342 342 342 342 343 341 338 340 339 339 338 342 342 343 345 343 343 343 343 344 344 343 344 344 342 345 346 345 345 347 349 349 347 345 344
340 342 342 341 342 344 344 341 342 341 343 341 342 341 340 340 341 341 338 341 344 343 345 345 343 344 344 344 345 344 344 344 343 342 343 343 347 348 347 347 347 346 346
341 342 343 344 344 344 344 342 342 342 343 342 341 339 340 343 342 341 339 339 343 345 343 345 344 344 344 345 345 344 344 344 344 342 343 346 346 346 347 347 348 348 349
342 341 342 342 345 344 343 342 342 344 344 343 341 340 339 341 342 342 341 342 343 343 342 345 342 342 343 343 343 343 344 344 344 345 345 346 347 346 346 346 346 347 346
342 342 342 341 344 342 343 343 343 343 343 344 343 342 341 340 340 344 341 341 344 343 341 345 344 342 344 346 345 345 345 347 344 344 344 345 344 344 345 344 345 346 346
342 343 341 342 344 343 344 343 343 343 343 344 343 343 343 343 340 343 341 341 341 342 342 343 345 343 341 344 345 345 345 344 349 348 344 343 343 344 345 344 344 345 344
342 342 342 341 344 343 342 343 342 341 343 342 344 344 343 343 342 343 344 344 343 343 341 342 345 345 344 344 343 344 344 344 344 345 347 347 343 343 343 343 342 341 341
342 342 342 342 343 343 343 343 343 342 342 344 343 344 342 343 342 343 343 343 341 343 340 341 345 344 344 345 344 343 344 343 342 343 344 344 341 341 341 339 341 341 342

GFSSE_850_thetae_120.txt.gz
Theta_e
342 339 337 335 335 336 336 337 341 339 337 336 337 335 336 336 336 336 338 339 341 339 340 339 338 340 343 342 335 334 342 342 342 340 335 339 337 334 334 341 343 344 339
338 338 338 337 334 335 337 337 337 334 337 337 335 333 336 338 334 334 338 341 340 338 339 341 342 342 343 341 341 342 342 342 341 339 340 333 334 337 338 342 342 333 330
337 338 337 337 338 337 338 338 335 326 335 335 338 336 334 338 336 331 339 338 340 338 337 338 340 341 344 344 344 343 343 341 341 342 341 340 335 328 326 325 329 332 332
337 337 336 336 336 335 337 334 336 333 328 331 329 332 335 337 338 340 338 340 342 340 336 340 339 340 340 340 340 338 338 340 344 347 346 346 346 340 340 340 335 333 333
339 343 340 337 336 335 337 333 338 327 336 334 338 338 332 324 328 336 338 341 343 343 343 340 339 340 340 336 335 336 337 338 343 344 345 346 345 341 335 337 338 340 341
344 344 334 330 335 332 337 330 332 334 337 336 336 335 333 336 332 338 337 340 338 337 338 338 334 333 335 332 333 336 337 342 345 344 344 346 345 341 342 335 338 335 341
342 343 341 331 334 333 337 336 336 336 336 336 334 336 338 334 336 337 332 337 337 338 337 333 329 327 325 326 328 333 335 342 344 347 346 346 345 337 335 335 342 334 329
341 341 344 331 333 335 337 339 338 337 338 338 336 337 335 335 336 337 331 334 337 339 339 334 334 333 331 326 324 325 328 343 343 342 343 343 331 334 332 333 336 330 325
344 344 345 345 340 336 338 338 338 338 338 336 335 337 338 337 335 337 330 334 338 340 338 336 337 336 334 331 327 323 323 332 342 342 341 340 324 324 324 324 325 325 325
343 345 346 345 345 346 345 338 337 339 338 334 336 339 339 329 328 327 330 336 338 340 340 339 340 338 339 338 335 326 327 333 336 339 339 328 324 324 325 326 328 331 334
343 344 345 346 347 346 346 340 340 337 337 337 341 338 343 341 342 344 336 336 338 340 341 340 339 338 338 336 333 330 341 336 335 337 337 327 330 333 336 338 339 339 340
342 341 345 345 345 347 347 345 344 346 345 345 344 343 342 343 343 340 328 338 338 339 339 338 338 341 345 344 342 343 341 338 336 338 336 336 338 338 338 339 340 341 343
341 342 345 345 347 347 347 346 346 344 345 342 342 343 343 342 343 342 336 341 342 340 342 343 345 345 346 345 344 341 340 340 338 339 338 337 337 339 342 343 344 344 344
342 343 345 345 348 348 346 345 345 345 344 342 342 344 345 343 343 341 341 340 342 343 342 346 344 346 346 344 344 342 341 339 338 339 337 340 342 343 343 343 343 342 342
342 343 344 345 349 348 347 345 344 344 344 344 344 344 345 343 341 342 340 344 345 346 346 347 346 347 346 344 345 343 340 340 339 341 341 340 341 341 341 342 342 343 344
342 344 344 345 350 347 346 345 344 343 344 345 346 345 338 344 344 344 344 346 347 348 347 347 347 347 344 344 344 343 340 339 339 341 343 342 342 342 342 342 342 343 344
342 343 344 346 347 347 345 343 345 344 344 345 346 339 337 342 341 344 344 345 346 340 342 343 347 344 344 343 344 344 344 343 341 341 343 343 342 342 342 341 341 342 342
342 343 344 344 347 349 349 347 346 345 345 347 348 347 337 337 340 342 346 346 341 345 347 346 345 344 345 344 342 342 344 344 346 346 346 346 347 345 344 344 343 342 343
342 344 344 344 347 348 347 348 348 347 347 348 347 347 339 339 338 344 346 347 345 351 352 350 347 346 345 344 343 344 344 344 346 344 349 347 348 347 348 346 345 346 346
343 344 344 346 347 348 348 348 348 347 347 347 347 347 340 341 340 345 347 346 351 351 351 352 351 350 348 347 344 345 346 345 346 348 348 346 348 347 349 349 351 352 347
345 346 347 347 348 347 347 348 347 346 348 347 346 342 340 343 340 339 347 345 349 352 348 352 349 351 350 349 348 347 347 345 345 346 347 347 348 348 349 352 352 353 353
345 346 348 348 345 348 348 347 348 346 347 347 347 346 347 346 341 343 344 343 345 350 348 352 347 350 350 350 349 347 344 344 342 345 347 348 349 349 350 352 353 347 347
346 346 347 349 348 344 348 347 347 348 345 345 347 347 346 344 345 341 341 346 345 347 350 347 349 345 349 351 347 351 345 345 347 348 349 349 349 349 351 352 351 347 345
347 347 347 348 347 343 343 348 342 344 346 347 348 348 349 348 346 349 341 341 342 348 346 349 351 349 347 351 351 350 346 349 348 347 349 349 349 350 350 350 350 351 342
347 348 347 348 344 349 342 347 345 347 346 347 348 348 345 346 348 348 344 340 340 342 343 342 344 347 351 349 349 351 348 349 349 348 346 348 348 348 347 348 349 349 350
347 348 348 348 342 345 342 342 344 348 348 348 346 348 348 348 348 348 348 344 343 345 343 345 343 345 347 349 350 348 349 348 347 347 346 348 348 348 348 347 347 348 349

GFSSE_850_thetae_123.txt.gz
Theta_e
343 338 336 336 335 335 335 335 337 336 335 337 335 339 337 338 339 339 341 340 341 340 339 339 341 342 338 336 336 341 342 340 337 340 340 336 335 335 342 345 344 344 341
342 343 335 335 334 334 334 335 335 337 338 336 336 338 337 336 338 339 339 338 339 340 341 342 343 342 342 339 341 342 341 339 339 337 334 336 338 341 344 345 342 336 339
338 341 336 333 334 334 335 331 334 337 336 339 338 338 337 338 339 338 339 338 337 337 341 342 343 343 343 344 343 342 340 341 341 342 343 342 335 332 335 335 334 339 335
337 341 341 336 334 334 335 337 329 336 338 336 336 339 339 339 338 339 341 337 335 338 340 340 343 341 342 343 341 339 342 346 343 345 345 346 345 339 339 331 333 334 330
340 343 337 337 336 338 336 338 334 335 335 337 337 330 331 335 337 340 343 344 342 342 341 340 341 340 340 339 337 339 342 345 347 348 347 346 345 337 339 340 340 341 340
345 347 336 335 333 336 334 330 337 337 339 339 336 334 329 332 339 341 339 338 341 340 341 341 343 339 334 334 335 338 344 345 346 347 346 345 344 342 333 335 335 340 339
345 345 340 332 333 336 334 335 336 336 337 334 334 339 334 339 333 339 336 337 337 337 338 328 325 325 327 330 333 338 344 346 344 344 347 346 340 336 337 342 338 329 330
342 345 343 330 333 337 337 337 337 337 338 336 335 333 334 335 337 332 336 338 339 335 335 333 330 326 324 324 328 337 343 344 342 346 344 343 334 331 332 337 332 326 326
341 344 343 343 337 337 338 337 337 338 337 333 335 335 333 335 336 333 338 340 340 336 335 335 333 331 328 324 323 325 340 343 343 343 343 340 324 324 324 324 325 326 327
344 345 345 343 344 346 344 338 338 338 336 335 336 336 332 330 328 331 338 339 341 339 338 338 337 336 331 328 324 331 335 338 340 341 340 325 326 327 331 334 336 338 339
344 345 345 345 347 348 345 339 338 335 334 339 339 341 342 343 344 347 343 339 340 340 339 338 337 336 339 330 335 340 339 338 339 340 335 333 336 337 338 339 339 339 340
342 346 345 345 345 346 346 346 346 347 348 346 343 344 343 346 344 343 337 338 339 338 337 338 340 345 347 349 346 343 342 338 340 340 337 338 338 337 338 340 342 343 344
340 345 344 344 346 345 346 345 348 342 343 343 344 344 342 342 344 341 340 342 339 343 344 342 347 348 346 346 344 340 342 339 340 340 336 336 338 342 343 343 343 343 343
341 344 345 344 345 346 347 345 345 345 342 342 343 343 344 342 344 343 344 344 344 342 342 348 344 346 346 345 344 342 341 339 340 340 339 341 342 342 341 340 340 341 342
342 345 343 347 346 346 346 345 345 344 343 343 344 345 344 342 344 345 345 345 346 342 343 344 346 348 346 346 343 341 340 340 341 341 338 338 338 338 339 341 342 343 344
343 344 345 347 346 346 348 347 344 345 345 345 345 345 348 345 346 345 347 345 344 346 344 345 348 348 344 344 343 341 340 341 342 343 340 339 339 340 341 342 342 343 343
344 344 345 348 348 348 347 345 345 343 342 344 347 348 347 347 345 345 345 347 344 347 347 345 348 347 344 342 345 344 343 342 344 345 344 344 339 338 339 340 340 341 341
344 345 346 346 349 348 347 348 344 345 344 345 346 346 347 347 348 346 346 345 346 347 346 345 346 346 344 342 343 344 344 344 346 346 345 346 346 346 344 341 342 342 343
345 345 346 347 348 348 348 347 345 345 346 347 345 346 348 348 347 348 347 348 349 346 347 346 346 345 345 343 343 343 344 345 346 346 347 348 346 346 349 348 345 346 346
345 345 346 346 349 349 348 348 347 346 347 346 346 348 341 348 349 349 348 349 353 347 347 354 350 349 347 345 344 344 344 344 346 346 348 348 347 348 350 351 353 354 351
344 345 346 348 349 349 348 347 347 346 346 346 347 348 349 348 350 347 349 348 346 352 352 350 349 349 348 346 346 345 346 345 345 345 345 345 348 346 349 349 354 356 354
344 346 346 348 350 350 349 348 347 345 347 346 347 348 349 349 351 350 350 348 349 350 353 353 353 353 348 348 354 346 345 343 342 343 345 346 346 347 346 349 353 354 355
344 346 348 349 350 347 348 348 349 348 350 347 347 348 348 350 350 352 351 352 346 351 353 353 352 348 352 349 348 352 350 349 345 343 345 346 349 348 348 349 351 354 356
346 346 348 349 350 350 349 348 347 348 346 345 347 350 349 350 351 351 350 352 347 352 350 351 350 354 346 353 348 347 346 349 350 345 343 345 350 349 351 350 350 351 353
346 347 347 349 351 351 348 349 349 346 347 349 347 349 350 350 351 349 350 352 353 347 348 349 351 351 354 350 349 351 351 348 347 347 346 345 348 347 347 348 348 349 350
346 348 348 349 349 351 351 347 347 346 349 347 349 351 349 349 350 349 350 351 352 351 349 351 354 354 348 353 351 350 347 349 347 347 345 346 345 346 348 347 348 349 350